[[{"header":{"parameterUnit":"m.s-1","parameterCategory":1,"la1":31.0,"la2":29.5877,"lo1":-88.7671,"lo2":-86.6584,"dy":0.0162,"dx":0.0185,"nx":115,"ny":88,"refTime":"2024-09-13T12:00:00:Z","depth":0,"parameterNumber":2,"parameterNumberName":"U-component_of_WINDS"},"data":[0.0,0.0,0.0,0.0,0.0,0.0,0.0,0.0,0.0,0.0,0.0,0.0,0.0,0.0,0.0,0.0,0.0,0.0,0.0,0.0,0.0,0.0,0.0,0.0,0.0,0.0,0.0,0.0,0.0,0.0,0.0,0.0,0.0,0.0,0.0,0.0,0.0,0.0,0.0,0.0,0.0,0.0,0.0,0.0,0.0,0.0,0.0,0.0,0.0,0.0,0.0,0.0,0.0,0.0,0.0,0.0,0.0,0.0,0.0,0.0,0.0,0.0,0.0,0.0,0.0,0.0,0.0,0.0,0.0,0.0,0.0,0.0,0.0,0.0,0.0,0.0,0.0,0.0,0.0,0.0,0.0,0.0,0.0,0.0,0.0,0.0,0.0,0.0,0.0,0.0,0.0,0.0,0.0,0.0,0.0,0.0,0.0,0.0,0.0,0.0,0.0,0.0,0.0,0.0,0.0,0.0,0.0,0.0,0.0,0.0,0.0,0.0,0.0,0.0,0.0,0.0,0.0,0.0,0.0,0.0,0.0,0.0,0.0,0.0,0.0,0.0,0.0,0.0,0.0,0.0,0.0,0.0,0.0,0.0,0.0,0.0,0.0,0.0,0.0,0.0,0.0,0.0,0.0,0.0,0.0,0.0,0.0,0.0,0.0,0.0,0.0,0.0,0.0,0.0,0.0,0.0,0.0,0.0,0.0,0.0,0.0,0.0,0.0,0.0,0.0,0.0,0.0,0.0,0.0,0.0,0.0,0.0,0.0,0.0,0.0,0.0,0.0,0.0,0.0,0.0,0.0,0.0,0.0,0.0,0.0,0.0,0.0,0.0,0.0,0.0,0.0,0.0,0.0,0.0,0.0,0.0,0.0,0.0,0.0,0.0,0.0,0.0,0.0,0.0,0.0,0.0,0.0,0.0,0.0,0.0,0.0,0.0,0.0,0.0,0.0,0.0,0.0,0.0,0.0,0.0,0.0,0.0,0.0,0.0,0.0,0.0,0.0,0.0,0.0,0.0,0.0,0.0,0.0,0.0,0.0,0.0,0.0,0.0,0.0,0.0,0.0,0.0,0.0,0.0,0.0,0.0,0.0,0.0,0.0,0.0,0.0,0.0,0.0,0.0,0.0,0.0,0.0,0.0,0.0,0.0,0.0,0.0,0.0,0.0,0.0,0.0,0.0,0.0,0.0,0.0,0.0,0.0,0.0,0.0,0.0,0.0,0.0,0.0,0.0,0.0,0.0,0.0,0.0,0.0,0.0,0.0,0.0,0.0,0.0,0.0,0.0,0.0,0.0,0.0,0.0,0.0,0.0,0.0,0.0,0.0,0.0,0.0,0.0,0.0,0.0,0.0,0.0,0.0,0.0,0.0,0.0,0.0,0.0,0.0,0.0,0.0,0.0,0.0,0.0,0.0,0.0,0.0,0.0,0.0,0.0,0.0,0.0,0.0,0.0,0.0,0.0,0.0,0.0,0.0,0.0,0.0,0.0,0.0,0.0,0.0,0.0,0.0,0.0,0.0,0.0,0.0,0.0,0.0,0.0,0.0,0.0,0.0,0.0,0.0,0.0,0.0,0.0,0.0,0.0,0.0,0.0,0.0,0.0,0.0,0.0,0.0,0.0,0.0,0.0,0.0,0.0,0.0,0.0,0.0,0.0,0.0,0.0,0.0,0.0,0.0,0.0,0.0,0.0,0.0,0.0,0.0,0.0,0.0,0.0,0.0,0.0,0.0,0.0,0.0,0.0,0.0,0.0,0.0,0.0,0.0,0.0,0.0,0.0,0.0,0.0,0.0,0.0,0.0,0.0,0.0,0.0,0.0,0.0,0.0,0.0,0.0,0.0,0.0,0.0,0.0,0.0,0.0,0.0,0.0,0.0,0.0,0.0,0.0,0.0,0.0,0.0,0.0,0.0,0.0,0.0,0.0,0.0,0.0,0.0,0.0,0.0,0.0,0.0,0.0,0.0,0.0,0.0,0.0,0.0,0.0,0.0,0.0,0.0,0.0,0.0,0.0,0.0,0.0,0.0,0.0,0.0,0.0,0.0,0.0,0.0,0.0,0.0,0.0,0.0,0.0,0.0,0.0,0.0,0.0,0.0,0.0,0.0,0.0,0.0,0.0,0.0,0.0,0.0,0.0,0.0,0.0,0.0,0.0,0.0,0.0,0.0,0.0,0.0,0.0,0.0,0.0,0.0,0.0,0.0,0.0,0.0,0.0,0.0,0.0,0.0,0.0,0.0,0.0,0.0,0.0,0.0,0.0,0.0,0.0,0.0,0.0,0.0,0.0,0.0,0.0,0.0,0.0,0.0,0.0,0.0,0.0,0.0,0.0,0.0,0.0,0.0,0.0,0.0,0.0,0.0,0.0,0.0,0.0,0.0,0.0,0.0,0.0,0.0,0.0,0.0,0.0,0.0,0.0,0.0,0.0,0.0,0.0,0.0,0.0,0.0,0.0,0.0,0.0,0.0,0.0,0.0,0.0,0.0,0.0,0.0,0.0,0.0,0.0,0.0,0.0,0.0,0.0,0.0,0.0,0.0,0.0,0.0,0.0,0.0,0.0,0.0,0.0,0.0,0.0,0.0,0.0,0.0,0.0,0.0,0.0,0.0,0.0,0.0,0.0,0.0,0.0,0.0,0.0,0.0,0.0,0.0,0.0,0.0,0.0,0.0,0.0,0.0,0.0,0.0,0.0,0.0,0.0,0.0,0.0,0.0,0.0,0.0,0.0,0.0,0.0,0.0,0.0,0.0,0.0,0.0,0.0,0.0,0.0,0.0,0.0,0.0,0.0,0.0,0.0,0.0,0.0,0.0,0.0,0.0,0.0,0.0,0.0,0.0,0.0,0.0,0.0,0.0,0.0,0.0,0.0,0.0,0.0,0.0,0.0,0.0,0.0,0.0,0.0,0.0,0.0,0.0,0.0,0.0,0.0,0.0,0.0,0.0,0.0,0.0,0.0,0.0,0.0,0.0,0.0,0.0,0.0,0.0,0.0,0.0,0.0,0.0,0.0,0.0,0.0,0.0,0.0,0.0,0.0,0.0,0.0,0.0,0.0,0.0,0.0,0.0,0.0,0.0,0.0,0.0,0.0,0.0,0.0,0.0,0.0,0.0,0.0,0.0,0.0,0.0,0.0,0.0,0.0,0.0,0.0,0.0,0.0,0.0,0.0,0.0,0.0,0.0,0.0,0.0,0.0,0.0,0.0,0.0,0.0,0.0,0.0,0.0,0.0,0.0,0.0,0.0,0.0,0.0,0.0,0.0,0.0,0.0,0.0,0.0,0.0,0.0,0.0,0.0,0.0,0.0,0.0,0.0,0.0,0.0,0.0,0.0,0.0,0.0,0.0,0.0,0.0,0.0,0.0,0.0,0.0,0.0,0.0,0.0,0.0,0.0,0.0,0.0,0.0,0.0,0.0,0.0,0.0,0.0,0.0,0.0,0.0,0.0,0.0,0.0,0.0,0.0,0.0,0.0,0.0,0.0,0.0,0.0,0.0,0.0,0.0,0.0,0.0,0.0,0.0,0.0,0.0,0.0,0.0,0.0,0.0,0.0,0.0,0.0,0.0,0.0,0.0,0.0,0.0,0.0,0.0,0.0,0.0,0.0,0.0,0.0,0.0,0.0,0.0,0.0,0.0,0.0,0.0,0.0,0.0,0.0,0.0,0.0,0.0,0.0,0.0,0.0,0.0,0.0,0.0,0.0,0.0,0.0,0.0,0.0,0.0,0.0,0.0,0.0,0.0,0.0,0.0,0.0,0.0,0.0,0.0,0.0,0.0,0.0,0.0,0.0,0.0,0.0,0.0,0.0,0.0,0.0,0.0,0.0,0.0,0.0,0.0,0.0,0.0,0.0,0.0,0.0,0.0,0.0,0.0,0.0,0.0,0.0,0.0,0.0,0.0,0.0,0.0,0.0,0.0,0.0,0.0,0.0,0.0,0.0,0.0,0.0,0.0,0.0,0.0,0.0,0.0,0.0,0.0,0.0,0.0,0.0,0.0,0.0,0.0,0.0,0.0,0.0,0.0,0.0,0.0,0.0,0.0,0.0,0.0,0.0,0.0,0.0,0.0,0.0,0.0,0.0,0.0,0.0,0.0,0.0,0.0,0.0,0.0,0.0,0.0,0.0,0.0,0.0,0.0,0.0,0.0,0.0,0.0,0.0,0.0,0.0,0.0,0.0,0.0,0.0,0.0,0.0,0.0,0.0,0.0,0.0,0.0,0.0,0.0,0.0,0.0,0.0,0.0,0.0,0.0,0.0,0.0,0.2814,0.0,0.0,0.0,0.0,0.0,0.0,0.0,0.0,0.0,0.0,0.0,0.0,0.0,0.0,0.0,0.0,0.0,0.0,0.0,0.0,0.0,0.0,0.0,0.0,0.0,0.0,0.0,0.0,0.0,0.0,0.0,0.0,0.0,0.0,0.0,0.0,0.0,0.0,0.0,0.0,0.0,0.0,0.0,0.0,0.0,0.0,0.0,0.0,0.0,0.0,0.0,0.0,0.0,0.0,0.0,0.0,0.0,0.0,0.0,0.0,0.0,0.0,0.0,0.0,0.0,0.0,0.0,0.0,0.0,0.0,0.0,0.0,0.0,0.0,0.0,0.0,0.0,0.0,0.0,0.0,0.0,0.0,0.0,0.0,0.0,0.0,0.0,0.0,0.0,0.0,0.0,0.0,0.0,0.0,0.0,0.0,0.0,0.0,0.0,0.0,0.0,0.0,0.0,0.0,0.0,0.0,0.0,0.0,0.0,0.0,0.2029,0.2521,0.2211,0.2376,0.3067,0.0,0.0,0.0,0.0,0.0,0.0,0.0,0.0,0.0,0.0,0.0,0.0,0.0,0.0,0.0,0.0,0.0,0.0,0.0,0.0,0.0,0.0,0.0,0.0,0.0,0.0,0.0,0.0,0.0,0.0,0.0,0.0,0.0,0.0,0.0,0.0,0.0,0.0,0.0,0.0,0.0,0.0,0.0,0.0,0.0,0.0,0.0,0.0,0.0,0.0,0.0,0.0,0.0,0.0,0.0,0.0,0.0,0.0,0.0,0.0,0.0,0.0,0.0,0.0,0.0,0.0,0.0,0.0,0.0,0.0,0.0,0.0,0.0,0.0,0.0,0.0,0.0,0.0,0.0,0.0,0.0,0.0,0.0,0.0,0.0,0.0,0.0,0.0,0.0,0.0,0.0,0.0,0.0,0.0,0.0,0.0,0.0,0.0,0.0,0.0,0.0,0.0,0.0,0.0,0.0,0.0,0.0,0.0,0.0,0.0,0.0,0.0,0.1429,0.1502,0.2599,0.0,0.0,0.0,0.0,0.0,0.0,0.0,0.0,0.0,0.0,0.0,0.0,0.0,0.0,0.0,0.0,0.0,0.0,0.0,0.0,0.0,0.0,0.0,0.0,0.0,0.0,0.0,0.0,0.0,0.0,0.0,0.0,0.0,0.0,0.0,0.0,0.0,0.0,0.0,0.0,0.0,0.0,0.0,0.0,0.0,0.0,0.0,0.0,0.0,0.0,0.0,0.0,0.0,0.0,0.0,0.0,0.0,0.0,0.0,0.0,0.0,0.0,0.0,0.0,0.0,0.0,0.0,0.0,0.0,0.0,0.0,0.0,0.0,0.0,0.0,0.0,0.0,0.0,0.0,0.0,0.0,0.0,0.0,0.0,0.0,0.0,0.0,0.0,0.0,0.0,0.0,0.0,0.0,0.0,0.0,0.0,0.0,0.0,0.0,0.0,0.0,0.0,0.0,0.0,0.0,0.0,0.0,0.0,0.0,0.0,0.1894,0.211,0.064,0.0,0.0323,0.0,0.0,0.0,0.0,0.0,0.0,0.0,0.0,0.0,0.0,0.0,0.0,0.0,0.0,0.0,0.0,0.0,0.0,0.0,0.0,0.0,0.0,0.0,0.0,0.0,0.0,0.0,0.0,0.0,0.0,0.0,0.0,0.0,0.0,0.0,0.0,0.0,0.0,0.0,0.0,0.0,0.0,0.0,0.0,0.0,0.0,0.0,0.0,0.0,0.0,0.0,0.0,0.0,0.0,0.0,0.0,0.0,0.0,0.0,0.0,0.0,0.0,0.0,0.0,0.0,0.0,0.0,0.0,0.0,0.0,0.0,0.0,0.0,0.0,0.0,0.0,0.0,0.0,0.0,0.0,0.0,0.0,0.0,0.0,0.0,0.0,0.0,0.0,0.0,0.0,0.0,0.0,0.0,0.0,0.0,0.0,0.0,0.0,0.0,0.0,0.0,0.0,0.0,0.0,0.0,0.0,0.0,0.0,0.0,0.0,0.2206,0.1943,-0.0452,-0.1184,0.0,0.0,0.0,0.0,0.0,0.0,0.0,0.0,0.0,0.0,0.0,0.0,0.0,0.0,0.0,0.0,0.0,0.0,0.0,0.0,0.0,0.0,0.0,0.0,0.0,0.0,0.0,0.0,0.0,0.0,0.0,0.0,0.0,0.0,0.0,0.0,0.0,0.0,0.0,0.0,0.0,0.0,0.0,0.0,0.0,0.0,0.0,0.0,0.0,0.0,0.0,0.0,0.0,0.0,0.0,0.0,0.0,0.0,0.0,0.0,0.0,0.0,0.0,0.0,0.0,0.0,0.0,0.0,0.0,0.0,0.0,0.0,0.0,0.0,0.0,0.0,0.0,0.0,0.0,0.0,0.0,0.0,0.0,0.0,0.0,0.0,0.0,0.0,0.0,0.0,0.0,0.0,0.0,0.0,0.0,0.0,0.0,0.0,0.0,0.0,0.0,0.0,0.0,0.0,0.0,0.0,0.0,0.0,0.0,0.0,0.2339,0.2226,0.1426,-0.0729,-0.1568,-0.0756,0.0,0.0,0.0,0.0,0.0,0.0,0.0,0.0,0.0,0.0,0.0,0.0,0.0,0.0,0.0,0.0,0.0,0.0,0.0,0.0,0.0,0.0,0.0,0.0,0.0,0.0,0.0,0.0,0.0,0.0,0.0,0.0,0.0,0.0,0.0,0.0,0.0,0.0,0.0,0.0,0.0,0.0,0.0,0.0,0.0,0.0,0.0,0.0,0.0,0.0,0.0,0.0,0.0,0.0,0.0,0.0,0.0,0.0,0.0,0.0,0.0,0.0,0.0,0.0,0.0,0.0,0.0,0.0,0.0,0.0,0.0,0.0,0.0,0.0,0.0,0.0,0.0,0.0,0.0,0.0,0.0,0.0,0.0,0.0,0.0,0.0,0.0,0.0,0.0,0.0,0.0,0.0,0.0,0.0,0.0,0.0,0.0,0.0,0.0,0.0,0.0,0.0,0.0,0.0,0.0,0.0,0.0,0.0,0.0,0.2211,0.1738,0.0716,0.0139,-0.0895,0.0,0.0,0.0,0.0,0.0,0.0,0.0,0.0,0.0,0.0,0.0,0.0,0.0,0.0,0.0,0.0,0.0,0.0,0.0,0.0,0.0,0.0,0.0,0.0,0.0,0.0,0.0,0.0,0.0,0.0,0.0,0.0,0.0,0.0,0.0,0.0,0.0,0.0,0.0,0.0,0.0,0.0,0.0,0.0,0.0,0.0,0.0,0.0,0.0,0.0,0.0,0.0,0.0,0.0,0.0,0.0,0.0,0.0,0.0,0.0,0.0,0.0,0.0,0.0,0.0,0.0,0.0,0.0,0.0,0.0,0.0,0.0,0.0,0.0,0.0,0.0,0.0,0.0,0.0,0.0,0.0,0.0,0.0,0.0,0.0,0.0,0.0,0.0,0.0,0.0,0.0,0.0,0.0,0.0,0.0,0.0,0.0,0.0,0.0,0.0,0.0,0.0,0.0,0.0,0.0,0.0,0.0,0.0,0.0,0.1943,0.2047,0.1787,0.1057,0.0356,0.0128,0.0,0.0,0.0,0.0,0.0,0.0,0.0,0.0,0.0,0.0,0.0,0.0,0.0,0.0,0.0,0.0,0.0,0.0,0.0,0.0,0.0,0.0,0.0,0.0,0.0,0.0,0.0,0.0,0.0,0.0,0.0,0.0,0.0,0.0,0.0,0.0,0.0,0.0,0.0,0.0,0.0,0.0,0.0,0.0,0.0,0.0,0.0,0.0,0.0,0.0,0.0,0.0,0.0,0.0,0.0,0.0,0.0,0.0,0.0,0.0,0.0,0.0,0.0,0.0,0.0,0.0,0.0,0.0,0.0,0.0,0.0,0.0,0.0,0.0,0.0,0.0,0.0,0.0,0.0,0.0,0.0,0.0,0.0,0.0,0.0,0.0,0.0,0.0,0.0,0.0,0.0,0.0,0.0,0.0,0.0,0.0,0.0,0.0,0.0,0.0,0.0,0.0,0.0,0.0,0.0,0.0,0.0,0.0,0.0,0.233,0.0,0.2173,0.0,0.1117,0.1068,0.0,0.0,0.0,0.0,0.0,0.0,0.0,0.0,0.0,0.0,0.0,0.0,0.0,0.0,0.0,0.0,0.0,0.0,0.0,0.0,0.0,0.0,0.0,0.0,0.0,0.0,0.0,0.0,0.0,0.0,0.0,0.0,0.0,0.0,0.0,0.0,0.0,0.0,0.0,0.0,0.0,0.0,0.0,0.0,0.0,0.0,0.0,0.0,0.0,0.0,0.0,0.0,0.0,0.0,0.0,0.0,0.0,0.0,0.0,0.0,0.0,0.0,0.0,0.0,0.0,0.0,0.0,0.0,0.0,0.0,0.0,0.0,0.0,0.0,0.0,0.0,0.0,0.0,0.0,0.0,0.0,0.0,0.0,0.0,0.0,0.0,0.0,0.0,0.0,0.0,0.0,0.0,0.0,0.0,0.0,0.0,0.0,0.0,0.0,0.0,0.0,0.0,0.0,0.0,0.0,0.0,0.0,0.0,0.2346,0.344,0.3269,0.2864,0.216,0.2441,0.1829,0.0,0.0,0.0,0.0,0.0,0.0,0.0,0.0,0.0,0.0,0.0,0.0,0.0,0.0,0.0,0.0,0.0,0.0,0.0,0.0,0.0,0.0,0.0,0.0,0.0,0.0,0.0,0.0,0.0,0.0,0.0,0.0,0.0,0.0,0.0,0.0,0.0,0.0,0.0,0.0,0.0,0.0,0.0,0.0,0.0,0.0,0.0,0.0,0.0,0.0,0.0,0.0,0.0,0.0,0.0,0.0,0.0,0.0,0.0,0.0,0.0,0.0,0.0,0.0,0.0,0.0,0.0,0.0,0.0,0.0,0.0,0.0,0.0,0.0,0.0,0.0,0.0,0.0,0.0,0.0,0.0,0.0,0.0,0.0,0.0,0.0,0.0,0.0,0.0,0.0,0.0,0.0,0.0,0.0,0.0,0.0,0.0,0.0,0.0,0.0,0.0,0.0,0.0,0.0,0.0,0.0,0.0,0.0,0.0,0.3791,0.3542,0.3442,0.3518,0.2605,0.1899,0.0,0.0,0.0,0.0,0.0,0.0,0.0,0.0,0.0,0.0,0.0,0.0,0.0,0.0,0.0,0.0,0.0,0.0,0.0,0.0,0.0,0.0,0.0,0.0,0.0,0.0,0.0,0.0,0.0,0.0,0.0,0.0,0.0,0.0,0.0,0.0,0.0,0.0,0.0,0.0,0.0,0.0,0.0,0.0,0.0,0.0,0.0,0.0,0.0,0.0,0.0,0.0,0.0,0.0,0.0,0.0,0.0,0.0,0.0,0.0,0.0,0.0,0.0,0.0,0.0,0.0,0.0,0.0,0.0,0.0,0.0,0.0,0.0,0.0,0.0,0.0,0.0,0.0,0.0,0.0,0.0,0.0,0.0,0.0,0.0,0.0,0.0,0.0,0.0,0.0,0.0,0.0,0.0,0.0,0.0,0.0,0.0,0.0,0.0,0.0,0.0,0.0,0.0,0.0,0.0,0.0,0.0,0.0,0.0,0.5033,0.4445,0.421,0.4424,0.3759,0.2972,0.2035,0.0,0.0,0.0,0.0,0.0,0.0,0.0,0.0,0.0,0.0,0.0,0.0,0.0,0.0,0.0,0.0,0.0,0.0,0.0,0.0,0.0,0.0,0.0,0.0,0.0,0.0,0.0,0.0,0.0,0.0,0.0,0.0,0.0,0.0,0.0,0.0,0.0,0.0,0.0,0.0,0.0,0.0,0.0,0.0,0.0,0.0,0.0,0.0,0.0,0.0,0.0,0.0,0.0,0.0,0.0,0.0,0.0,0.0,0.0,0.0,0.0,0.0,0.0,0.0,0.0,0.0,0.0,0.0,0.0,0.0,0.0,0.0,0.0,0.0,0.0,0.0,0.0,0.0,0.0,0.0,0.0,0.0,0.0,0.0,0.0,0.0,0.0,0.0,0.0,0.0,0.0,0.0,0.0,0.0,0.0,0.0,0.0,0.0,0.0,0.0,0.0,0.0,0.0,0.0,0.0,0.0,0.0,0.0,0.7023,0.5873,0.5124,0.4969,0.5686,0.4842,0.0,0.0,0.0,0.0,0.0,0.0,0.0,0.0,0.0,0.0,0.0,0.0,0.0,0.0,0.0,0.0,0.0,0.0,0.0,0.0,0.0,0.0,0.0,0.0,0.0,0.0,0.0,0.0,0.0,0.0,0.0,0.0,0.0,0.0,0.0,0.0,0.0,0.0,0.0,0.0,0.0,0.0,0.0,0.0,0.0,0.0,0.0,0.0,0.0,0.0,0.0,0.0,0.0,0.0,0.0,0.0,0.0,0.0,0.0,0.0,0.0,0.0,0.0,0.0,0.0,0.0,0.0,0.0,0.0,0.0,0.0,0.0,0.0,0.0,0.0,0.0,0.0,0.0,0.0,0.0,0.0,0.0,0.0,0.0,0.0,0.0,0.0,0.0,0.0,0.0,0.0,0.0,0.0,0.0,0.0,0.0,0.0,0.0,0.0,0.0,0.0,0.0,0.0,0.0,0.0,0.0,0.0,0.0,0.0,0.7526,0.7155,0.6743,0.6435,0.5875,0.5171,0.0,0.0,0.0,0.0,0.0,0.0,0.0,0.0,0.0,0.0,0.0,0.0,0.0,0.0,0.0,0.0,0.0,0.0,0.0,0.0,0.0,0.0,0.0,0.0,0.0,0.0,0.0,0.0,0.0,0.0,0.0,0.0,0.0,0.0,0.0,0.0,0.0,0.0,0.0,0.0,0.0,0.0,0.0,0.0,0.0,0.0,0.0,0.0,0.0,0.0,0.0,0.0,0.0,0.0,0.0,0.0,0.0,0.0,0.0,0.0,0.0,0.0,0.0,0.0,0.0,0.0,0.0,0.0,0.0,0.0,0.0,0.0,0.0,0.0,0.0,0.0,0.0,0.0,0.0,0.0,0.0,0.0,0.0,0.0,0.0,0.0,0.0,0.0,0.0,0.0,0.0,0.0,0.0,0.0,0.0,0.0,0.0,0.0,0.0,0.0,0.0,0.0,0.0,0.0,0.0,0.0,0.0,0.0,0.5964,0.7974,0.7923,0.7762,0.7589,0.6587,0.5798,0.0,0.0,0.0,0.0,0.0,0.0,0.0,0.0,0.0,0.0,0.0,0.0,0.0,0.0,0.0,0.0,0.0,0.0,0.0,0.0,0.0,0.0,0.0,0.0,0.0,0.0,0.0,0.0,0.0,0.0,0.0,0.0,0.0,0.0,0.0,0.0,0.0,0.0,0.0,0.0,0.0,0.0,0.0,0.0,0.0,0.0,0.0,0.0,0.0,0.0,0.0,0.0,0.0,0.0,0.0,0.0,0.0,0.0,0.0,0.0,0.0,0.0,0.0,0.0,0.0,0.0,0.0,0.0,0.0,0.0,0.0,0.0,0.0,0.0,0.0,0.0,0.0,0.0,0.0,0.0,0.0,0.0,0.0,0.0,0.0,0.0,0.0,0.0,0.0,0.0,0.0,0.0,0.0,0.0,0.0,0.0,0.0,0.0,0.0,0.0,0.0,0.0,0.0,0.0,0.0,0.0,0.0,0.0,0.6366,0.8208,0.8366,0.8467,0.839,0.7612,0.6676,0.0,0.0,0.0,0.0,0.0,0.0,0.0,0.0,0.0,0.0,0.0,0.0,0.0,0.0,0.0,0.0,0.0,0.0,0.0,0.0,0.0,0.0,0.0,0.0,0.0,0.0,0.0,0.0,0.0,0.0,0.0,0.0,0.0,0.0,0.0,0.0,0.0,0.0,0.0,0.0,0.0,0.0,0.0,0.0,0.0,0.0,0.0,0.0,0.0,0.0,0.0,0.0,0.0,0.0,0.0,0.0,0.0,0.0,0.0,0.0,0.0,0.0,0.0,0.0,0.0,0.0,0.0,0.0,0.0,0.0,0.0,0.0,0.0,0.0,0.0,0.0,0.0,0.0,0.0,0.0,0.0,0.0,0.0,0.0,0.0,0.0,0.0,0.0,0.0,0.0,0.0,0.0,0.0,0.0,0.0,0.0,0.0,0.0,0.0,0.0,0.0,0.0,0.0,0.0,0.0,0.0,0.0,0.0,0.7071,0.864,0.8728,0.8711,0.8711,0.8497,0.8078,0.0,0.0,0.0,0.0,0.0,0.0,0.0,0.0,0.0,0.0,0.0,0.0,0.0,0.0,0.0,0.0,0.0,0.0,0.0,0.0,0.0,0.0,0.0,0.0,0.0,0.0,0.0,0.0,0.0,0.0,0.0,0.0,0.0,0.0,0.0,0.0,0.0,0.0,0.0,0.0,0.0,0.0,0.0,0.0,0.0,0.0,0.0,0.0,-0.2019,0.0,0.0,0.0,0.0,0.0,0.0,0.0,0.0,0.0,0.0,0.0,0.0,0.0,0.0,0.0,0.0,0.0,0.0,0.0,0.0,0.0,0.0,0.0,0.0,0.0,0.0,0.0,0.0,0.0,0.0,0.0,0.0,0.0,0.0,0.0,0.0,0.0,0.0,0.0,0.0,0.0,0.0,0.0,0.0,0.0,0.0,0.0,0.0,0.0,0.0,0.0,0.0,0.0,0.0,0.0,0.0,0.0,0.0,0.0,0.7389,0.858,0.8728,0.8804,0.8771,0.8768,0.8766,0.0,0.0,0.0,0.0,0.0,0.0,0.0,0.0,0.0,0.0,0.0,0.0,0.0,0.0,0.0,0.0,0.0,0.0,0.0,0.0,0.0,0.0,0.0,0.0,0.0,0.0,0.0,0.0,0.0,0.0,0.0,0.0,0.0,0.0,0.0,0.0,0.0,0.0,0.0,0.0,0.0,0.0,0.0,0.0,0.0,0.0,0.0,0.0,0.0,0.0,0.0,0.0,0.0,0.0,0.0,0.0,0.0,0.0,0.0,0.0,0.0,0.0,0.0,0.0,0.0,0.0,0.0,0.0,0.0,0.0,0.0,0.0,0.0,0.0,0.0,0.0,0.0,0.0,0.0,0.0,0.0,0.0,0.0,0.0,0.0,0.0,0.0,0.0,0.0,0.0,0.0,0.0,0.0,0.0,0.0,0.0,0.0,0.0,0.0,0.0,0.0,0.0,0.0,0.0,0.0,0.0,0.0,0.6607,0.7435,0.8404,0.8677,0.8804,0.8798,0.8784,0.8921,0.9161,0.0,0.0,0.0,0.0,0.0,0.0,0.0,0.0,0.0,0.0,0.0,0.0,0.0,0.0,0.0,0.0,0.0,0.0,0.0,0.0,0.0,0.0,0.0,0.0,0.0,0.0,0.0,0.0,0.0,0.0,0.0,0.0,0.0,0.0,0.0,0.0,0.0,0.0,-0.1277,-0.1718,0.0,0.0,0.0,0.0,0.0,0.0,0.0,0.0,-0.1998,0.0,0.0,0.0,0.0,0.0,0.0,0.0,0.0,0.0,0.0,0.0,0.0,0.0,0.0,0.0,0.0,0.0,0.0,0.0,0.0,0.0,0.0,0.0,0.0,0.0,0.0,0.0,0.0,0.0,0.0,0.0,0.0,0.0,0.0,0.0,0.0,0.0,0.0,0.0,0.0,0.0,0.0,0.0,0.0,0.0,0.0,0.0,0.0,0.0,0.0,0.0,0.0,0.0,0.0,0.0,0.0,0.678,0.6707,0.7335,0.8697,0.8784,0.8804,0.8791,0.8792,0.8578,0.804,0.0,0.0,0.0,0.0,0.0,0.0,0.0,0.0,0.0,0.0,0.0,0.0,0.0,0.0,0.0,0.0,0.0,0.0,0.0,0.0,0.0,0.0,0.0,0.0,0.0,0.0,0.0,0.0,0.0,0.0,0.0,0.0,0.0,0.0,0.0,0.0,0.0,0.0,0.0,-0.2496,-0.2571,0.0,0.0,0.0,0.0,0.0,0.0,0.0,0.0,-0.1946,0.0,0.0,0.0,0.0,0.0,0.0,0.0,0.0,0.0,0.0,0.0,0.0,0.0,0.0,0.0,0.0,0.0,0.0,0.0,0.0,0.0,0.0,0.0,0.0,0.0,0.0,0.0,0.0,0.0,0.0,0.0,0.0,0.0,0.0,0.0,0.0,0.0,0.0,0.0,0.0,0.0,0.0,0.0,0.0,0.0,0.0,0.0,0.0,0.0,0.0,0.0,0.0,0.0,0.0,0.0,0.652,0.7041,0.7776,0.8764,0.8804,0.8804,0.8791,0.8809,0.8519,0.0,0.0,0.0,0.0,0.0,0.0,0.0,0.0,0.0,0.0,0.0,0.0,0.0,0.0,0.0,0.0,0.0,0.0,0.0,0.0,0.0,0.0,0.0,0.0,0.0,0.0,0.0,0.0,0.0,0.0,0.0,0.0,0.0,0.0,0.0,0.0,0.0,0.0,0.0,0.0,-0.2652,-0.271,-0.2788,0.0,0.0,0.0,0.0,0.0,0.0,-0.2466,-0.2332,0.0,0.0,0.0,0.0,0.0,0.0,0.0,0.0,0.0,0.0,0.0,0.0,0.0,0.0,0.0,0.0,0.0,0.0,0.0,0.0,0.0,0.0,0.0,0.0,0.0,0.0,0.0,0.0,0.0,0.0,0.0,0.0,0.0,0.0,0.0,0.0,0.0,0.0,0.0,0.0,0.0,0.0,0.0,0.0,0.0,0.0,0.0,0.0,0.0,0.0,0.0,0.0,0.0,0.0,0.0,0.6203,0.7208,0.809,0.8764,0.8804,0.8804,0.8791,0.8781,0.8405,0.0,0.0,0.0,0.0,0.0,0.0,0.0,0.0,0.0,0.0,0.0,0.0,0.0,0.0,0.0,0.0,0.0,0.0,0.0,0.0,0.0,0.0,0.0,0.0,0.0,0.0,0.0,0.0,0.0,0.0,0.0,0.0,0.0,0.0,0.0,0.0,0.0,0.0,0.0,0.0,0.0,-0.2927,-0.2988,-0.2929,0.0,0.0,0.0,0.0,-0.2867,-0.2846,0.0,0.0,0.0,0.0,0.0,0.0,0.0,0.0,0.0,0.0,0.0,0.0,0.0,0.0,0.0,0.0,0.0,0.0,0.0,0.0,0.0,0.0,0.0,0.0,0.0,0.0,0.0,0.0,0.0,0.0,0.0,0.0,0.0,0.0,0.0,0.0,0.0,0.0,0.0,0.0,0.0,0.0,0.0,0.0,0.0,0.0,0.0,0.0,0.0,0.0,0.0,0.0,0.0,0.0,0.0,0.0,0.6169,0.6794,0.7629,0.8738,0.8804,0.8804,0.8798,0.8791,0.8056,0.0,0.0,0.0,0.0,0.0,0.0,0.0,0.0,0.0,0.0,0.0,0.0,0.0,0.0,0.0,0.0,0.0,0.0,0.0,0.0,0.0,0.0,0.0,0.0,0.0,0.0,0.0,0.0,0.0,0.0,0.0,0.0,0.0,0.0,0.0,0.0,0.0,0.0,0.0,0.0,0.0,-0.3571,-0.3375,-0.3327,-0.3355,0.0,0.0,-0.3144,-0.3475,-0.3271,0.0,0.0,0.0,0.0,0.0,0.0,0.0,0.0,0.0,0.0,0.0,0.0,0.0,0.0,0.0,0.0,0.0,0.0,0.0,0.0,0.0,0.0,0.0,0.0,0.0,0.0,0.0,0.0,0.0,0.0,0.0,0.0,0.0,0.0,0.0,0.0,0.0,0.0,0.0,0.0,0.0,0.0,0.0,0.0,0.0,0.0,0.0,0.0,0.0,0.0,0.0,0.0,0.0,0.0,0.0,0.5311,0.6189,0.7068,0.7902,0.8771,0.8804,0.8804,0.8804,0.8561,0.804,0.0,0.0,0.0,0.0,0.0,0.0,0.0,0.0,0.0,0.0,0.0,0.0,0.0,0.0,0.0,0.0,0.0,0.0,0.0,0.0,0.0,0.0,0.0,0.0,0.0,0.0,0.0,0.0,0.0,0.0,0.0,0.0,0.0,0.0,0.0,0.0,0.0,0.0,0.0,0.0,0.0,0.0,-0.3806,-0.3705,0.0,0.0,0.0,-0.3544,-0.368,0.0,0.0,0.0,0.0,0.0,0.0,0.0,0.0,0.0,0.0,0.0,0.0,0.0,0.0,0.0,0.0,0.0,0.0,0.0,0.0,0.0,0.0,0.0,0.0,0.0,0.0,0.0,0.0,0.0,0.0,0.0,0.0,0.0,0.0,0.0,0.0,0.0,0.0,0.0,0.0,0.0,0.0,0.0,0.0,0.0,0.0,0.0,0.0,0.0,0.0,0.0,0.0,0.0,0.0,0.0,0.0,0.0,0.6203,0.7277,0.8161,0.8784,0.8804,0.8804,0.8791,0.8386,0.0,0.0,0.0,0.0,0.0,0.0,0.0,0.0,0.0,0.0,0.0,0.0,0.0,0.0,0.0,0.0,0.0,0.0,0.0,0.0,0.0,0.0,0.0,0.0,0.0,0.0,0.0,-0.1028,0.0,0.0,0.0,0.0,0.0,0.0,0.0,0.0,0.0,0.0,0.0,0.0,0.0,0.0,-0.3639,-0.4077,-0.4003,-0.3917,0.0,0.0,-0.3917,-0.3955,-0.3873,-0.3527,0.0,0.0,0.0,0.0,0.0,0.0,0.0,0.0,0.0,0.0,0.0,0.0,0.0,0.0,0.0,0.0,0.0,0.0,0.0,0.0,0.0,0.0,0.0,0.0,0.0,0.0,0.0,0.0,0.0,0.0,0.0,0.0,0.0,0.0,0.0,0.0,0.0,0.0,0.0,0.0,0.0,0.0,0.0,0.0,0.0,0.0,0.0,0.0,0.0,0.0,0.0,0.0,0.0,0.0,0.0,0.6203,0.7126,0.7993,0.8778,0.8804,0.8804,0.8798,0.8427,0.8092,0.0,0.0,0.0,0.0,0.0,0.0,0.0,0.0,0.0,0.0,0.0,0.0,0.0,0.0,0.0,0.0,0.0,0.0,0.0,0.0,0.0,0.0,0.0,0.0,0.0,0.0,0.0,0.0,0.0,0.0,0.0,0.0,0.0,0.0,0.0,0.0,0.0,0.0,0.0,0.0,0.0,-0.3932,-0.3916,-0.408,-0.4263,0.0,0.0,-0.4214,-0.4409,-0.4419,-0.4392,-0.4332,0.0,0.0,0.0,0.0,0.0,0.0,0.0,0.0,0.0,0.0,0.0,0.0,0.0,0.0,0.0,0.0,0.0,0.0,0.0,0.0,0.0,0.0,0.0,0.0,0.0,0.0,0.0,0.0,0.0,0.0,0.0,0.0,0.0,0.0,0.0,0.0,0.0,0.0,0.0,0.0,0.0,0.0,0.0,0.0,0.0,0.0,0.0,0.0,0.0,0.0,0.0,0.0,0.0,0.5192,0.6196,0.7126,0.7993,0.8725,0.8804,0.8804,0.8804,0.7983,0.7612,0.0,0.0,0.0,0.0,0.0,0.0,0.0,0.0,0.0,0.0,0.0,0.0,0.0,0.0,0.0,0.0,0.0,0.0,0.0,0.0,0.0,0.0,0.0,0.0,0.0,0.0,0.0,0.0,-0.1397,-0.1541,-0.1776,0.0,0.0,0.0,0.0,0.0,0.0,0.0,0.0,0.0,0.0,-0.4087,-0.4267,-0.4341,0.0,0.0,-0.4426,-0.4412,-0.448,-0.3729,-0.3417,-0.4349,-0.3243,0.0,0.0,0.0,0.0,0.0,0.0,0.0,0.0,0.0,0.0,0.0,0.0,0.0,0.0,0.0,0.0,0.0,0.0,0.0,0.0,0.0,0.0,0.0,0.0,0.0,0.0,0.0,0.0,0.0,0.0,0.0,0.0,0.0,0.0,0.0,0.0,0.0,0.0,0.0,0.0,0.0,0.0,0.0,0.0,0.0,0.0,0.0,0.0,0.0,0.0,0.0,0.0,0.5311,0.6196,0.7234,0.8111,0.8798,0.8804,0.8804,0.8738,0.7923,0.7418,0.0,0.0,0.0,0.0,0.0,0.0,0.0,0.0,0.0,0.0,0.0,0.0,0.0,0.0,0.0,0.0,0.0,0.0,0.0,0.0,0.0,0.0,0.0,0.0,0.0,0.0,0.0,0.0,-0.1702,-0.1803,-0.1792,0.0,0.0,0.0,0.0,0.0,0.0,0.0,0.0,0.0,0.0,-0.4178,-0.4481,-0.4467,-0.447,-0.4477,-0.4082,-0.3974,-0.4442,-0.3227,-0.2407,-0.3042,0.0,0.0,0.0,0.0,0.0,0.0,0.0,0.0,0.0,0.0,0.0,0.0,0.0,0.0,0.0,0.0,0.0,0.0,0.0,0.0,0.0,0.0,0.0,0.0,0.0,0.0,0.0,0.3519,0.0,0.0,0.3506,0.0,0.0,0.0,0.0,0.0,0.0,0.0,0.0,0.0,0.0,0.0,0.0,0.0,0.0,0.0,0.0,0.0,0.0,0.0,0.0,0.0,0.0,0.5591,0.6196,0.7494,0.8384,0.8784,0.8804,0.8804,0.8745,0.8352,0.7563,0.6257,0.0,0.0,0.0,0.0,0.0,0.0,0.0,0.0,0.0,0.0,0.0,0.0,0.0,0.0,0.0,0.0,0.0,0.0,0.0,0.0,0.0,0.0,0.0,0.0,0.0,0.0,-0.1743,-0.1791,-0.1813,0.0,0.0,0.0,0.0,0.0,0.0,0.0,0.0,0.0,0.0,-0.3946,-0.4244,-0.4443,-0.4473,-0.4487,-0.4432,-0.3244,-0.2798,-0.4176,-0.3132,-0.1743,0.0,0.0,0.0,0.0,0.0,0.0,0.0,0.0,0.0,0.0,0.0,0.0,0.0,0.0,0.0,0.0,0.0,0.0,0.0,0.0,0.0,0.0,0.0,0.0,0.0,0.0,0.0,0.4577,0.4316,0.0,0.0,0.0,0.0,0.0,0.0,0.0,0.0,0.0,0.0,0.0,0.9248,0.9941,0.0,0.0,0.0,0.0,0.0,0.0,0.0,0.0,0.0,0.0,0.0,0.0,0.592,0.6032,0.7328,0.8246,0.8791,0.8804,0.8593,0.8096,0.7385,0.6133,0.4329,0.0,0.0,0.0,0.0,0.0,0.0,0.0,0.0,0.0,0.0,0.0,0.0,0.0,0.0,0.0,0.0,0.0,0.0,0.0,0.0,0.0,0.0,0.0,0.0,0.0,-0.1477,0.0,0.0,0.0,0.0,0.0,0.0,0.0,0.0,0.0,0.0,0.0,-0.3921,-0.3966,-0.4301,-0.4558,-0.4609,-0.4562,-0.4137,0.0,0.0,0.0,0.0,0.0,0.0,0.0,0.0,0.0,0.0,0.0,0.0,0.0,0.0,-0.3745,-0.2345,-0.1917,-0.1921,-0.239,0.0,0.0,0.0,0.0,0.0,0.0,0.0,0.0,0.0,0.0,0.0,0.0,0.0,0.0,0.5972,0.0,0.4003,0.0,0.0,0.0,0.0,0.0,0.0,0.0,0.0,1.2168,1.1521,1.0566,1.127,1.1221,0.0,1.0643,0.9606,0.0,0.0,0.0,0.0,0.0,0.0,0.0,0.0,0.6098,0.6341,0.7414,0.828,0.8738,0.8804,0.8427,0.7717,0.6911,0.5524,0.3595,0.3436,0.3186,0.0,0.0,0.0,0.0,0.0,0.0,0.0,0.0,0.0,0.0,0.0,0.0,0.0,0.0,0.0,0.0,0.0,0.0,0.0,0.0,0.0,0.0,0.0,-0.1307,0.0,0.0,0.0,0.0,0.0,0.0,0.0,0.0,0.0,-0.3944,-0.4094,-0.4161,-0.4363,-0.4571,-0.4674,-0.467,0.0,0.0,0.0,0.0,0.0,0.0,0.0,-0.0,-0.0,-0.0,-0.0394,-0.1651,-0.1876,-0.245,-0.4145,0.0,0.0,-0.2647,-0.1658,-0.1679,-0.3409,-0.3472,-0.3313,-0.3245,-0.3071,-0.3301,0.0,0.0,0.0,0.0,0.0,0.0,0.0,0.0,0.8144,0.7682,0.0,0.4536,0.0,0.0,0.0,0.0,0.0,0.5086,0.0,0.0,1.2508,1.2656,1.2295,1.2656,1.2646,1.2285,1.2627,1.1973,1.0303,0.8229,0.0,0.0,0.0,0.0,0.0,0.0,0.6188,0.6976,0.7828,0.8408,0.8745,0.8752,0.8368,0.761,0.6907,0.5649,0.4026,0.3976,0.3735,0.3161,0.2859,0.0,0.0,0.0,0.0,0.0,0.0,0.0,0.0,0.0,0.0,0.0,0.0,0.0,0.0,0.0,0.0,0.0,0.0,0.0,0.0,-0.1056,0.0,0.0,0.0,0.0,0.0,0.0,0.0,0.0,0.0,0.0,-0.4601,-0.4559,-0.4599,-0.4772,0.0,0.0,0.0,0.0,-0.4491,-0.4504,-0.1989,-0.0,-0.0,-0.0,-0.0,-0.0,0.0,0.0,-0.4743,-0.5336,-0.4761,-0.315,-0.4327,-0.5312,-0.4928,-0.2434,-0.1394,-0.4222,-0.5062,-0.5284,-0.5087,-0.4826,-0.4955,1.1074,0.0,0.0,0.0,0.0,0.9201,0.9392,1.0075,1.0083,0.9521,0.852,0.7662,0.0,0.0,0.0,0.0,0.0,0.0,0.9588,1.3267,1.3037,1.2978,1.3125,1.2959,1.2812,1.2705,1.2832,1.2666,1.2097,1.0348,0.8047,0.5373,0.0,0.0,0.0,0.0,0.7244,0.7293,0.8123,0.8397,0.8043,0.7517,0.687,0.614,0.5458,0.4763,0.4137,0.4247,0.4108,0.3615,0.3358,0.0,0.0,0.0,0.0,0.0,0.0,0.0,0.0,0.0,0.0,0.0,0.0,0.0,0.0,0.0,0.0,0.0,0.0,0.0,-0.0,-0.0314,-0.0385,0.0,0.0,0.0,0.0,0.0,0.0,0.0,0.0,0.0,-0.3093,-0.4243,-0.5081,0.0,0.0,-0.3222,-0.2924,-0.377,-0.4662,-0.5101,-0.223,0.0,-0.0,-0.0,-0.0,-0.0,-0.249,-0.4717,-0.5276,-0.5413,-0.5246,-0.4687,-0.5026,-0.5377,-0.525,-0.4578,-0.4091,-0.4821,-0.5155,-0.5303,-0.5033,-0.5389,-0.5854,1.2783,1.1373,1.1338,1.1416,1.1528,1.103,1.1282,1.195,1.2068,1.15,1.0525,1.0457,1.006,0.9401,0.9895,0.0,0.0,0.0,1.1687,1.4616,1.3932,1.3647,1.373,1.3496,1.3319,1.3239,1.3309,1.3297,1.3173,1.1729,0.996,0.7953,0.0,0.0,0.7695,0.8092,0.8077,0.7798,0.8454,0.8427,0.7723,0.6714,0.595,0.5483,0.4842,0.4419,0.4338,0.4445,0.433,0.3982,0.3687,0.342,0.0,0.0,0.0,0.0,0.0,0.0,0.0,0.0,0.0,0.0,0.0,-0.0222,-0.0729,0.0,0.0,0.0,-0.0419,-0.0,-0.0,-0.0,0.0,0.0,0.0,0.0,0.0,0.0,0.0,-0.0,-0.1583,-0.2606,-0.223,-0.2821,-0.3727,-0.4924,-0.4359,-0.3191,-0.1551,0.0,-0.287,-0.3203,-0.1384,-0.0,-0.0,-0.0,-0.05,-0.2297,-0.4504,-0.606,-0.5735,-0.5634,-0.5594,-0.5576,-0.5549,-0.5508,-0.5382,-0.5431,-0.5337,-0.5151,-0.5297,-0.535,-0.5104,-0.5724,-0.6336,1.4184,1.4116,1.3398,1.3262,1.3433,1.227,1.2325,1.3204,1.3898,1.3506,1.2317,1.2786,1.2431,1.1554,1.1746,0.0,0.9612,1.195,1.388,1.5359,1.4841,1.4419,1.4136,1.4097,1.3995,1.3723,1.4005,1.3941,1.3616,1.2477,1.1567,1.0799,0.7896,0.7185,0.8716,0.8801,0.8686,0.8461,0.8671,0.8368,0.7439,0.619,0.5483,0.5433,0.4842,0.4463,0.446,0.445,0.4382,0.4194,0.3958,0.3737,0.3598,0.0,0.0,0.0,0.0,0.0,0.0,0.0,0.0,0.0,0.0,0.0,0.0,0.0,0.0,0.0,-0.0,0.0,-0.0,-0.0,0.0,0.0,0.0,-0.0,-0.0,-0.0,-0.0,-0.0,0.0,0.0,-0.1865,-0.0816,-0.1215,-0.4571,-0.5007,-0.3776,-0.0453,-0.0,-0.0,-0.0,-0.0,-0.0,-0.0,-0.0,-0.0,-0.5176,-0.6284,-0.6204,-0.6002,-0.5985,-0.5981,-0.5786,-0.58,-0.5728,-0.5457,-0.548,-0.5466,-0.5473,-0.5442,-0.5422,-0.5401,-0.6008,-0.6782,1.5107,1.5088,1.4893,1.4492,1.3931,1.3618,1.3632,1.3926,1.4723,1.4532,1.3638,1.379,1.4038,1.436,1.3789,1.3432,1.3342,1.394,1.4606,1.5361,1.4854,1.4629,1.4619,1.4297,1.4077,1.4005,1.4077,1.38,1.3141,1.2291,1.1765,1.1382,0.9275,0.841,0.879,0.8791,0.8754,0.8704,0.8771,0.7629,0.5367,0.5408,0.5273,0.4732,0.457,0.4463,0.446,0.4247,0.4177,0.4187,0.4017,0.389,0.39,0.3035,0.0,0.0,0.0,0.0,0.0,0.0,0.0,0.0,0.0,-0.0,-0.0,0.0,-0.0313,0.0,-0.0,-0.0,-0.0,-0.0,0.0,0.0,-0.0,-0.0,-0.0,-0.0,-0.0,-0.0,-0.0,-0.015,-0.0459,-0.0232,-0.0311,-0.1168,-0.0,-0.0999,-0.0,-0.0,-0.0,-0.0,-0.0,-0.0,-0.0,-0.0,-0.1542,-0.5591,-0.628,-0.6228,-0.6017,-0.5986,-0.5942,-0.583,-0.58,-0.5796,-0.581,-0.5752,-0.5732,-0.5776,-0.5648,-0.5428,-0.5425,-0.6563,-0.7624,1.6006,1.5996,1.5996,1.5663,1.5196,1.4873,1.4651,1.4707,1.5169,1.5093,1.4697,1.4697,1.4933,1.5376,1.4877,1.4782,1.4952,1.4961,1.4878,1.4678,1.4888,1.4811,1.4525,1.4646,1.4651,1.4651,1.4307,1.3745,1.3011,1.2241,1.1974,1.2257,1.0484,0.962,0.9597,0.9343,0.9192,0.9198,0.8793,0.7535,0.5558,0.5471,0.5167,0.4515,0.4463,0.4463,0.4463,0.416,0.4036,0.4187,0.3965,0.3627,0.3199,0.3073,0.2985,0.0,0.0,0.0,0.0,0.0,0.0,0.0,0.0,0.0,0.0,0.0,-0.0,-0.0,-0.0,-0.0,-0.0,-0.0,-0.0,-0.0,-0.0,-0.0,-0.0,-0.0,-0.0,-0.0,-0.0,-0.0,-0.0,-0.0,-0.0,-0.0,-0.0,-0.0,-0.0,-0.0,-0.0,-0.0,-0.0,-0.0,-0.0,-0.1647,-0.3215,-0.4557,-0.5659,-0.6254,-0.6159,-0.6135,-0.6105,-0.6023,-0.6006,-0.6023,-0.6156,-0.6051,-0.601,-0.5945,-0.5861,-0.5768,-0.5573,-0.6854,-0.8027,1.6665,1.6665,1.6665,1.6665,1.6617,1.5908,1.5586,1.5586,1.5576,1.5576,1.5508,1.5586,1.5576,1.5596,1.5586,1.5586,1.5586,1.5586,1.5065,1.4243,1.5006,1.4996,1.4354,1.5008,1.5312,1.5361,1.4579,1.3639,1.2658,1.2074,1.2066,1.259,1.1299,1.0597,1.055,1.0062,0.976,0.9679,0.8852,0.7806,0.6633,0.6014,0.5297,0.4574,0.4463,0.4463,0.446,0.4214,0.4089,0.4187,0.3975,0.3384,0.2473,0.2965,0.3697,0.0,0.2924,0.0,0.0,0.0,0.0,0.0,0.0,0.0,0.0,-0.0,-0.0,-0.0,-0.0,-0.0,-0.0,-0.0,-0.0,-0.0,-0.0,-0.0,-0.0,-0.0,-0.0,-0.0,-0.0,-0.0,-0.0,-0.0,-0.0,-0.0,-0.0,-0.0,-0.0,-0.0,-0.0,-0.0,-0.0,-0.0,-0.0,-0.3923,-0.5497,-0.4144,-0.509,-0.6274,-0.6254,-0.6254,-0.6254,-0.6251,-0.6237,-0.6247,-0.6261,-0.6254,-0.6196,-0.6047,-0.6194,-0.6149,-0.6064,-0.7042,-0.8012,1.6665,1.6665,1.6665,1.6665,1.6655,1.6553,1.6422,1.6484,1.6484,1.6321,1.6158,1.6331,1.6576,1.674,1.6566,1.6412,1.6484,1.6484,1.635,1.6143,1.5549,1.5123,1.4762,1.4814,1.5032,1.533,1.4579,1.3099,1.1102,1.1589,1.1516,1.1073,1.0746,1.0586,1.0601,0.0,0.0,0.0,0.951,0.8516,0.6727,0.6731,0.6039,0.4577,0.4463,0.0,0.4512,0.4438,0.4358,0.419,0.3979,0.0,0.0,0.0,0.0,0.0,0.0,0.0,0.0,0.0,0.0,0.0,-0.0,-0.0,-0.0,-0.0,-0.0,-0.0,-0.0,-0.0,-0.0,-0.0,-0.0,-0.0,-0.0,-0.0,-0.0,-0.0,-0.0,-0.0,-0.0,-0.0,-0.0,-0.0,-0.0,-0.0,-0.0,-0.0,-0.0,-0.0,-0.0,-0.0,-0.0,-0.0,-0.4572,-0.5752,-0.6207,-0.5805,-0.5879,-0.6271,-0.6264,-0.6261,-0.6261,-0.6261,-0.6261,-0.6261,-0.6261,-0.6261,-0.6247,-0.6283,-0.6234,-0.646,-0.6893,-0.7637,-0.8369,1.7363,0.0,1.7363,1.7363,0.0,1.7363,1.7298,1.7344,1.7352,1.708,1.6665,1.6728,1.6831,1.708,1.6348,1.5991,1.6,1.5533,1.5154,1.4763,1.4681,1.4154,1.3348,1.3978,1.4421,1.4595,1.365,1.2352,1.0698,1.0982,1.0982,1.0618,1.0618,1.0618,1.0618,1.0618,1.0471,1.0164,0.953,0.861,0.7317,0.674,0.5844,0.4688,0.4556,0.0,0.0,0.0,0.0,0.0,0.0,0.0,0.0,0.0,0.0,0.4484,0.4226,0.3658,0.2716,0.0988,-0.0,-0.0,-0.0,-0.0,-0.0,-0.0,-0.0,-0.0,-0.0,-0.0,-0.0,-0.0,-0.0,-0.0,-0.0,-0.0,-0.0,-0.0,-0.0,-0.0,-0.0,-0.0,-0.0,-0.0,-0.0,-0.0,-0.0,-0.0,-0.0,-0.0,-0.0,-0.0,-0.0,-0.0,-0.5286,-0.6298,-0.6281,-0.6274,-0.6271,-0.6268,-0.6261,-0.6261,-0.6261,-0.6261,-0.6261,-0.6261,-0.6261,-0.6261,-0.6261,-0.6261,-0.6261,-0.6827,-0.7946,-0.8258,-0.8544,1.8008,1.8008,1.8008,1.8008,1.8008,1.8008,1.7774,1.7561,0.0,0.0,0.0,1.7047,1.6982,1.6957,1.5956,1.5471,1.5257,1.4472,1.3834,1.3392,1.3692,1.3276,1.2241,1.3222,1.3621,1.3316,1.2615,1.1739,1.0613,1.0645,1.0672,1.0624,1.0618,1.0618,1.0618,1.0618,1.058,1.0554,0.9629,0.8615,0.7545,0.6592,0.5681,0.4731,0.4582,0.4501,0.4556,0.453,0.452,0.4542,0.4261,0.4141,0.4155,0.4287,0.4426,0.4565,0.4571,0.4526,0.4467,0.2201,0.0563,0.0063,-0.0,-0.0,-0.0,-0.0,-0.0,-0.0,-0.0,-0.0,-0.0,-0.0,-0.0,-0.0,-0.0,-0.0,-0.0,-0.0,-0.0,-0.0,-0.0,-0.0,-0.0,-0.0,-0.0,-0.0,-0.0,-0.0,-0.0,-0.0,-0.0,-0.0,-0.0,-0.1496,-0.5176,-0.6315,-0.6285,-0.6315,-0.6291,-0.6261,-0.6261,-0.6261,-0.6261,-0.6261,-0.6261,-0.6261,-0.6261,-0.6261,-0.6261,-0.6261,-0.6338,-0.6949,-0.8647,-0.8759,-0.8779,1.8018,1.8008,1.8008,1.8008,1.8008,1.8008,1.7055,1.5782,1.733,1.7929,1.7852,1.7832,1.7398,1.6688,1.6473,1.5982,1.5217,1.5085,1.5205,1.557,1.4356,1.3775,1.3855,1.3431,1.2677,1.1852,1.2311,1.1924,1.0771,1.0843,1.0808,1.0595,1.0618,1.0561,1.0618,1.0618,1.0604,1.0571,1.0431,0.8834,0.5875,0.6885,0.6589,0.4948,0.4617,0.4596,0.4714,0.457,0.4549,0.4737,0.4666,0.4613,0.466,0.4755,0.4817,0.4862,0.4816,0.4668,0.4497,0.4116,0.2756,-0.0,-0.0,-0.0,-0.0,-0.0,-0.0,-0.0,-0.0,-0.0,-0.0,-0.0,-0.0,-0.0,-0.0,-0.0,-0.0,-0.0,-0.0,-0.0,-0.0,-0.0,-0.0,-0.0,-0.0,-0.0,-0.0,-0.0,-0.0,-0.0,-0.0,-0.0,-0.0,-0.0,-0.5496,-0.6441,-0.6373,-0.643,-0.6349,-0.6278,-0.6278,-0.6264,-0.6261,-0.6261,-0.6261,-0.6261,-0.6261,-0.6261,-0.6261,-0.6261,-0.6261,-0.6945,-0.8841,-0.9028,-0.9427,1.8701,1.8701,1.8701,1.8564,1.835,1.835,1.6558,1.3956,1.6447,1.7432,1.7217,1.7217,1.6991,1.6567,1.55,1.4807,1.4386,1.3882,1.3753,1.4015,1.3258,1.3041,1.3093,1.2834,1.2301,1.1753,1.2082,1.1847,1.1094,1.1155,1.1009,1.0652,1.0575,1.0573,1.0568,1.0618,1.0618,1.0618,1.011,0.892,0.6854,0.6912,0.6341,0.503,0.483,0.469,0.4631,0.4686,0.4745,0.4872,0.4816,0.485,0.4979,0.4921,0.491,0.4892,0.3922,0.3728,0.4448,0.2973,0.1444,-0.0,-0.0,-0.0,-0.0,-0.0,-0.0,-0.0,-0.0,-0.0,-0.0,-0.0,-0.0,-0.0,-0.0,-0.0,-0.0,-0.0,-0.0,-0.0,-0.0,-0.0,-0.0,-0.0,-0.0,-0.0,-0.0,-0.0,-0.0,-0.0,-0.0,-0.0,-0.0,-0.0,-0.5916,-0.6857,-0.6702,-0.6624,-0.6391,-0.6386,-0.6366,-0.6325,-0.6268,-0.6261,-0.6261,-0.6261,-0.6261,-0.6261,-0.6261,-0.6261,-0.6261,-0.7099,-0.867,-0.9947,-1.0894,1.9472,1.9277,1.9277,1.8947,1.8433,1.819,1.626,1.3746,1.573,1.6468,1.6191,1.6228,1.614,1.579,1.4378,1.36,1.331,1.2666,1.2305,1.2305,1.2305,1.2305,1.2305,1.2305,1.2184,1.1984,1.1964,1.1817,1.1481,1.1523,1.1257,1.0797,1.0827,1.0824,1.0762,1.0755,1.0748,1.0535,0.9974,0.9127,0.8021,0.7154,0.6256,0.5233,0.504,0.4904,0.4716,0.4877,0.4996,0.5027,0.4969,0.5016,0.5178,0.506,0.4998,0.4893,0.3692,0.3004,0.3302,0.131,-0.0,-0.0,-0.0,-0.0,-0.0,-0.0,-0.0,-0.0,-0.0,-0.0,-0.0,-0.0,-0.0,-0.0,-0.0,-0.0,-0.0,-0.0,-0.0,-0.0,-0.0,-0.0,-0.0,-0.0,-0.0,-0.0,-0.0,-0.0,-0.0,-0.0,-0.0,-0.0,-0.0,-0.0,-0.6117,-0.708,-0.6997,-0.6783,-0.6542,-0.6441,-0.6468,-0.6373,-0.6376,-0.6278,-0.6261,-0.6261,-0.6261,-0.6261,-0.6261,-0.6261,-0.6261,-0.6945,-0.8917,-1.0789,-1.1992,1.9995,1.937,1.9316,1.8839,1.8008,1.6957,1.6573,1.6486,1.5459,1.4819,1.4843,1.517,1.4824,1.4027,1.3818,1.3237,1.2519,1.2372,1.2305,1.2305,1.2305,1.2305,1.2305,1.2305,1.2291,1.2258,1.2251,1.2018,1.1675,1.1824,1.169,1.1381,1.1485,1.1451,1.1336,1.1329,1.1106,1.0647,1.079,0.989,0.8102,0.7941,0.7028,0.5404,0.5389,0.5375,0.5304,0.537,0.5363,0.5357,0.5174,0.5179,0.5308,0.5387,0.5332,0.5365,0.5109,0.3801,-0.0,0.0143,-0.0,-0.0,-0.0,-0.0,-0.0,-0.0,-0.0,-0.0,-0.0,-0.0,-0.0,-0.0,-0.0,-0.0,-0.0,-0.0,-0.0,-0.0,-0.0,-0.0,-0.0,-0.0,-0.0,-0.0,-0.0,-0.0,-0.0,-0.0,-0.0,-0.0,-0.0,-0.0,-0.0,-0.0,-0.5695,-0.7132,-0.6991,-0.6926,-0.678,-0.6654,-0.6552,-0.6478,-0.642,-0.6318,-0.6261,-0.6261,-0.6261,-0.6261,-0.6261,-0.6335,-0.649,-0.7022,-0.8917,-1.095,-1.2012,2.0355,2.0115,2.0039,1.9858,1.9336,1.8038,1.6646,1.5389,1.5129,1.4518,1.3796,1.3921,1.4006,1.3955,1.3257,1.2666,1.2298,1.2305,1.2305,1.2305,1.2305,1.2305,1.2305,1.2305,1.2305,1.2305,1.2305,1.2238,1.2065,1.2124,1.2056,1.1954,1.1774,1.1756,1.1909,1.1587,1.1279,1.1047,1.0604,0.9672,0.8393,0.8093,0.7186,0.5617,0.5436,0.5401,0.5397,0.5406,0.5406,0.5394,0.5332,0.5294,0.5422,0.5428,0.541,0.5242,0.336,0.1571,-0.0,-0.0,-0.0,-0.0,-0.0,-0.0,-0.0,-0.0,-0.0,-0.0,-0.0,-0.0,-0.0,-0.0,-0.0,-0.0,-0.0,-0.0,-0.0,-0.0,-0.0,-0.0,-0.0,-0.0,-0.0,-0.0,-0.0,-0.0,-0.0,-0.0,-0.0,-0.0,-0.0,-0.0,-0.0,-0.0,-0.4385,-0.6355,-0.6858,-0.7054,-0.6936,-0.68,-0.6742,-0.6563,-0.6447,-0.6393,-0.6315,-0.6264,-0.6261,-0.6261,-0.6261,-0.649,-0.7629,-0.8537,-0.997,-1.1323,-1.2084,2.0576,2.0576,2.0576,2.0605,2.0469,1.8747,1.6529,1.4367,1.4764,1.4353,1.3454,1.3367,1.3595,1.3803,1.2982,1.2552,1.2545,1.2458,1.2418,1.2324,1.2264,1.2305,1.2305,1.2305,1.2305,1.2305,1.2305,1.2305,1.2305,1.2305,1.2278,1.2254,1.1984,1.204,1.2249,1.1823,1.1663,1.1587,1.0594,0.9325,0.8056,0.7777,0.6989,0.5624,0.5449,0.5428,0.5428,0.5428,0.5428,0.5428,0.5466,0.5426,0.5487,0.5452,0.4937,0.3884,0.1534,-0.0,-0.0,-0.0,-0.0,-0.0,-0.0,-0.0,-0.0,-0.0,-0.0,-0.0,-0.0,-0.0,-0.0,-0.0,-0.0,-0.0,-0.0,-0.0,-0.0,-0.0,-0.0,-0.0,-0.0,-0.0,-0.0,-0.0,-0.0,-0.0,-0.0,-0.0,-0.0,-0.0,-0.0,-0.0,-0.0,-0.0,-0.2502,-0.5275,-0.6624,-0.7054,-0.7044,-0.6973,-0.6939,-0.6702,-0.6505,-0.6471,-0.6352,-0.6271,-0.6261,-0.6261,-0.649,-0.6945,-0.8008,-0.9518,-1.049,-1.162,-1.215,2.0576,2.0576,2.0576,2.0564,2.0448,1.8279,1.616,1.4058,1.4203,1.4126,1.3968,1.3741,1.3614,1.3649,1.3287,1.3166,1.3113,1.2846,1.2629,1.2348,1.2296,1.2318,1.2305,1.2305,1.2311,1.2338,1.2311,1.2305,1.2305,1.2305,1.2298,1.2278,1.2258,1.2271,1.2298,1.2204,1.2251,1.2032,1.093,0.9098,0.6844,0.6889,0.662,0.5662,0.5447,0.5382,0.5376,0.5435,0.5439,0.5435,0.5504,0.5579,0.5569,0.5454,0.3944,0.0919,-0.0,-0.0,-0.0,-0.0,-0.0,-0.0,-0.0,-0.0,-0.0,-0.0,-0.0,-0.0,-0.0,-0.0,-0.0,-0.0,-0.0,-0.0,-0.0,-0.0,-0.0,-0.0,-0.0,-0.0,-0.0,-0.0,-0.0,-0.0,-0.0,-0.0,-0.0,-0.0,-0.0,-0.0,-0.0,-0.0,-0.0,-0.0,-0.0,-0.3126,-0.5905,-0.7068,-0.7122,-0.7085,-0.6973,-0.6851,-0.6698,-0.6539,-0.6396,-0.6308,-0.6274,-0.649,-0.6872,-0.748,-0.8389,-0.9593,-1.064,-1.1545,-1.2003,2.0576,2.0566,1.9844,1.9949,2.0295,1.7491,1.5462,1.4166,1.4088,1.4088,1.4075,1.3968,1.3928,1.3921,1.3821,1.3567,1.322,1.3086,1.2778,1.2414,1.2674,1.2886,1.2866,1.2685,1.2585,1.2559,1.2398,1.2305,1.2305,1.2305,1.2305,1.2305,1.2305,1.2305,1.2305,1.2305,1.2305,1.2137,1.0621,0.8589,0.6563,0.6345,0.6211,0.5867,0.5577,0.5427,0.5427,0.557,0.564,0.5644,0.5698,0.5725,0.5732,0.5714,0.3934,-0.0,-0.0,-0.0,-0.0,-0.0,-0.0,-0.0,-0.0,-0.0,-0.0,-0.0,-0.0,-0.0,-0.0,-0.0,-0.0,-0.0,-0.0,-0.0,-0.0,-0.0,-0.0,-0.0,-0.0,-0.0,-0.0,-0.0,-0.0,-0.0,-0.0,-0.0,-0.0,-0.0,-0.0,-0.0,-0.0,-0.0,-0.0,-0.0,-0.0,-0.0,-0.3126,-0.5905,-0.7064,-0.7054,-0.6984,-0.6963,-0.682,-0.6671,-0.6585,-0.6349,-0.6315,-0.6335,-0.6872,-0.8161,-0.9069,-0.9367,-1.064,-1.1093,-1.1242,2.0576,2.0411,1.9441,1.9012,1.8868,1.6688,1.5061,1.4173,1.4088,1.4088,1.4088,1.4088,1.4088,1.4088,1.4088,1.3895,1.35,1.34,1.3173,1.2901,1.3081,1.3299,1.3358,1.3084,1.2899,1.2872,1.2699,1.2552,1.2452,1.2445,1.2392,1.2305,1.2305,1.2305,1.2305,1.2305,1.2305,1.1929,1.0346,0.833,0.6587,0.6187,0.6105,0.6091,0.5848,0.5669,0.5516,0.58,0.595,0.5957,0.5923,0.5895,0.5956,0.5304,0.3469,-0.0,-0.0,-0.0,-0.0,-0.0,-0.0,-0.0,-0.0,-0.0,-0.0,-0.0,-0.0,-0.0,-0.0,-0.0,-0.0,-0.0,-0.0,-0.0,-0.0,-0.0,-0.0,-0.0,-0.0,-0.0,-0.0,-0.0,-0.0,-0.0,-0.0,-0.0,-0.0,-0.0,-0.0,-0.0,-0.0,-0.0,-0.0,-0.0,-0.0,-0.0,-0.0,-0.0,-0.0,-0.5908,-0.6887,-0.6877,-0.6853,-0.6793,-0.6709,-0.6534,-0.6339,-0.6278,-0.7173,-0.8542,-0.877,-0.8841,-0.9593,-1.019,-1.0415,2.0566,2.0323,1.9441,1.7937,1.6603,1.5846,1.5054,1.4173,1.4088,1.4088,1.4088,1.4088,1.4088,1.4088,1.4088,1.4062,1.3975,1.3754,1.3743,1.3906,1.3487,1.3552,1.3933,1.3426,1.3186,1.3166,1.318,1.3026,1.2759,1.2822,1.2625,1.2385,1.2358,1.2365,1.2325,1.2325,1.2305,1.1855,1.0351,0.833,0.6598,0.6353,0.624,0.6244,0.6227,0.6101,0.5837,0.6126,0.6219,0.6223,0.611,0.6101,0.597,0.4675,0.2345,-0.0,-0.0,-0.0,-0.0,-0.0,-0.0,-0.0,-0.0,-0.0,-0.0,-0.0,-0.0,-0.0,-0.0,-0.0,-0.0,-0.0,-0.0,-0.0,-0.0,-0.0,-0.0,-0.0,-0.0,-0.0,-0.0,-0.0,-0.0,-0.0,-0.0,-0.0,-0.0,-0.0,-0.0,-0.0,-0.0,-0.0,-0.0,-0.0,-0.0,-0.0,-0.0,-0.0,-0.0,-0.3842,-0.5733,-0.6395,-0.6673,-0.6711,-0.6641,-0.6464,-0.6312,-0.6335,-0.6791,-0.7783,-0.7936,-0.8237,-0.8765,-0.9367,-0.9669,2.0167,1.9353,1.831,1.7261,1.6108,1.5061,1.4328,1.4088,1.4088,1.4088,1.4088,1.4088,1.4088,1.4088,1.4088,1.4088,1.4075,1.3988,1.4038,1.4018,1.3937,1.3884,1.3953,1.3689,1.34,1.3233,1.3206,1.3166,1.3086,1.3066,1.283,1.2466,1.2527,1.2523,1.2332,1.233,1.2305,1.2077,1.0346,0.8732,0.7626,0.6765,0.6257,0.6261,0.6257,0.6207,0.6125,0.6273,0.6273,0.6266,0.6239,0.6213,0.6099,0.5659,0.3614,-0.0,-0.0,-0.0,-0.0,-0.0,-0.0,-0.0,-0.0,-0.0,-0.0,-0.0,-0.0,-0.0,-0.0,-0.0,-0.0,-0.0,-0.0,-0.0,-0.0,-0.0,-0.0,-0.0,-0.0,-0.0,-0.0,-0.0,-0.0,-0.0,-0.0,-0.0,-0.0,-0.0,-0.0,-0.0,-0.0,-0.0,-0.0,-0.0,-0.0,-0.0,-0.0,-0.0,-0.0,-0.0,-0.4119,-0.6272,-0.6467,-0.6675,-0.6609,-0.6498,-0.6342,-0.649,-0.6868,-0.7249,-0.7706,-0.8012,-0.8161,-0.8461,-0.8689,2.0001,1.8877,1.7747,1.678,1.5914,1.4671,1.4088,1.4088,1.4088,1.4088,1.4088,1.4088,1.4088,1.4088,1.4088,1.4088,1.4088,1.4088,1.4088,1.4088,1.4088,1.4088,1.4075,1.3908,1.3728,1.3574,1.354,1.3474,1.3373,1.336,1.3134,1.2739,1.2746,1.2822,1.2641,1.256,1.2277,1.1476,1.0171,0.8818,0.7672,0.67,0.6261,0.6261,0.6261,0.6261,0.6261,0.6261,0.6261,0.6261,0.6264,0.5948,0.5318,0.5668,0.4444,-0.0,-0.0,-0.0,-0.0,-0.0,-0.0,-0.0,-0.0,-0.0,-0.0,-0.0,-0.0,-0.0,-0.0,-0.0,-0.0,-0.0,-0.0,-0.0,-0.0,-0.0,-0.0,-0.0,-0.0,-0.0,-0.0,-0.0,-0.0,-0.0,-0.0,-0.0,-0.0,-0.0,-0.0,-0.0,-0.0,-0.0,-0.0,-0.0,-0.0,-0.0,-0.0,-0.0,-0.0,-0.0,-0.2331,-0.5203,-0.6602,-0.6787,-0.6826,-0.6576,-0.6424,-0.6383,-0.6567,-0.7022,-0.7326,-0.7249,-0.7249,-0.7249,-0.7553,1.9923,1.8798,1.7747,1.6601,1.5545,1.4489,1.4088,1.4088,1.4088,1.4088,1.4088,1.4088,1.4088,1.4088,1.4088,1.4088,1.4088,1.4088,1.4088,1.4088,1.4088,1.4088,1.4075,1.4048,1.4015,1.4008,1.4015,1.3908,1.3681,1.3667,1.354,1.3253,1.3101,1.3055,1.3134,1.3035,1.2167,1.075,0.9974,0.8622,0.6751,0.6335,0.6271,0.6264,0.6278,0.6281,0.6261,0.6359,0.6359,0.6268,0.6271,0.5401,0.399,0.4961,0.3624,-0.0,-0.0,-0.0,-0.0,-0.0,-0.0,-0.0,-0.0,-0.0,-0.0,-0.0,-0.0,-0.0,-0.0,-0.0,-0.0,-0.0,-0.0,-0.0,-0.0,-0.0,-0.0,-0.0,-0.0,-0.0,-0.0,-0.0,-0.0,-0.0,-0.0,-0.0,-0.0,-0.0,-0.0,-0.0,-0.0,-0.0,-0.0,-0.0,-0.0,-0.0,-0.0,-0.0,-0.0,-0.0,-0.0,-0.0,-0.0,-0.6532,-0.6922,-0.675,-0.6508,-0.6383,-0.6366,-0.657,-0.6567,-0.6338,-0.6412,-0.6563,-0.7096,1.9511,1.7747,1.7423,1.6198,1.4657,1.4166,1.4088,1.4088,1.4088,1.4088,1.4088,1.4088,1.4088,1.4088,1.4088,1.4088,1.4088,1.4088,1.4088,1.4088,1.4088,1.4088,1.4088,1.4088,1.4088,1.4088,1.4082,1.4048,1.3975,1.3948,1.3915,1.3854,1.3526,1.3534,1.3784,1.3433,1.2491,1.1057,1.0089,0.8985,0.7525,0.6674,0.6359,0.6274,0.6284,0.628,0.6291,0.6523,0.652,0.6268,0.6274,0.5326,0.3443,0.2468,-0.0,-0.0,-0.0,-0.0,-0.0,-0.0,-0.0,-0.0,-0.0,-0.0,-0.0,-0.0,-0.0,-0.0,-0.0,-0.0,-0.0,-0.0,-0.0,-0.0,-0.0,-0.0,-0.0,-0.0,-0.0,-0.0,-0.0,-0.0,-0.0,-0.0,-0.0,-0.0,-0.0,-0.0,-0.0,-0.0,-0.0,-0.0,-0.0,-0.0,-0.0,-0.0,-0.0,-0.0,-0.0,-0.0,-0.0,-0.0,-0.0,-0.5915,-0.6744,-0.687,-0.6678,-0.6437,-0.6445,-0.6362,-0.6338,-0.6261,-0.6338,-0.6412,-0.7022,1.847,1.7253,1.6846,1.5628,1.4166,1.4088,1.4088,1.4088,1.4088,1.4088,1.4088,1.4088,1.4088,1.4088,1.4088,1.4088,1.4088,1.4088,1.4088,1.4088,1.4088,1.4088,1.4088,1.4088,1.4088,1.4088,1.4088,1.4082,1.4082,1.4088,1.4088,1.4041,1.3908,1.3924,1.3924,1.2801,1.1909,1.0825,0.9812,0.8676,0.741,0.6841,0.6603,0.6468,0.6448,0.6438,0.6468,0.6694,0.6774,0.6548,0.6371,0.5759,0.4396,0.1533,-0.0,-0.0,-0.0,-0.0,-0.0,-0.0,-0.0,-0.0,-0.0,-0.0,-0.0,-0.0,-0.0,-0.0,-0.0,-0.0,-0.0,-0.0,-0.0,-0.0,-0.0,-0.0,-0.0,-0.0,-0.0,-0.0,-0.0,-0.0,-0.0,-0.0,-0.0,-0.0,-0.0,-0.0,-0.0,-0.0,-0.0,-0.0,-0.0,-0.0,-0.0,-0.0,-0.0,-0.0,-0.0,-0.0,-0.0,-0.0,-0.0,-0.4655,-0.6109,-0.7066,-0.6781,-0.6515,-0.6393,-0.6325,-0.6288,-0.6261,-0.6338,-0.6718,-0.7249,1.7498,1.7261,1.6273,1.522,1.4166,1.4088,1.4088,1.4088,1.4088,1.4088,1.4088,1.4088,1.4088,1.4088,1.4088,1.4088,1.4088,1.4088,1.4088,1.4088,1.4088,1.4088,1.4088,1.4088,1.4088,1.4088,1.4088,1.4088,1.4088,1.4088,1.4088,1.4075,1.4068,1.3802,1.3212,1.1685,1.0573,1.0085,0.9294,0.8197,0.7094,0.6774,0.6695,0.6654,0.6654,0.6695,0.6781,0.6895,0.6982,0.6749,0.6646,0.64,0.5738,0.2465,-0.0,-0.0,-0.0,-0.0,-0.0,-0.0,-0.0,-0.0,-0.0,-0.0,-0.0,-0.0,-0.0,-0.0,-0.0,-0.0,-0.0,-0.0,-0.0,-0.0,-0.0,-0.0,0.0629,-0.0,-0.0,-0.0,-0.0,-0.0,-0.0,-0.0,-0.0,-0.0,-0.0,-0.0,-0.0,-0.0,-0.0,-0.0,-0.0,-0.0,-0.0,-0.0,-0.0,-0.0,-0.0,-0.0,-0.0,-0.0,-0.0,-0.3198,-0.5473,-0.6694,-0.679,-0.662,-0.6468,-0.6356,-0.6312,-0.6281,-0.6335,-0.7022,-0.7629,1.8903,1.7261,1.709,1.5876,1.425,1.4088,1.4088,1.4088,1.4088,1.4088,1.4088,1.4088,1.4088,1.4088,1.4088,1.4088,1.4088,1.4088,1.4088,1.4088,1.4088,1.4088,1.4088,1.4088,1.4088,1.4088,1.4088,1.4088,1.4088,1.4088,1.4088,1.4095,1.4004,1.3171,1.1555,1.0846,0.9994,0.9217,0.878,0.795,0.7035,0.6827,0.6831,0.6742,0.6722,0.6776,0.6861,0.697,0.7025,0.6963,0.6841,0.6692,0.6331,0.5602,0.3314,-0.0,-0.0,-0.0,-0.0,-0.0,-0.0,-0.0,-0.0,-0.0,-0.0,-0.0,-0.0,-0.0,0.3153,0.3512,-0.0,-0.0,-0.0,-0.0,0.3054,0.5041,0.4949,0.2335,-0.0,-0.0,-0.0,-0.0,-0.0,-0.0,-0.0,-0.0,-0.0,-0.0,-0.0,-0.0,-0.0,-0.0,-0.0,-0.0,-0.0,-0.0,-0.0,-0.0,-0.0,-0.0,-0.0,-0.0,-0.0,-0.3129,-0.5539,-0.6309,-0.6763,-0.6725,-0.6576,-0.6461,-0.6332,-0.6291,-0.649,-0.7249,-0.8084,1.8674,1.7253,1.6764,1.5636,1.425,1.4088,1.4088,1.4088,1.4088,1.4088,1.4088,1.4088,1.4088,1.4088,1.4088,1.4088,1.4088,1.4088,1.4088,1.4088,1.4088,1.4088,1.4088,1.4088,1.4088,1.4088,1.4088,1.4088,1.4088,1.4088,1.4108,1.4057,1.4057,1.2875,1.0631,0.9565,0.8949,0.8759,0.8221,0.7576,0.7022,0.6976,0.7007,0.6926,0.6905,0.6956,0.7021,0.7027,0.7071,0.7082,0.699,0.6905,0.6915,0.6743,0.4522,-0.0,-0.0,-0.0,-0.0,-0.0,-0.0,-0.0,-0.0,-0.0,-0.0,-0.0,-0.0,0.3151,0.523,0.5858,0.3588,-0.0,0.2147,0.3314,0.4486,0.5838,0.6382,0.4757,0.278,0.2151,-0.0,-0.0,-0.0,0.1255,-0.0,-0.0,-0.0,-0.0,-0.0,-0.0,-0.0,-0.0,-0.0,-0.0,-0.0,-0.0,-0.0,-0.0,-0.0,-0.0,-0.0,-0.0,-0.0,-0.3132,-0.5453,-0.6436,-0.6816,-0.6787,-0.6627,-0.65,-0.6369,-0.6271,-0.6718,-0.7629,-0.8389,1.784,1.7009,1.6108,1.5054,1.4166,1.4088,1.4088,1.4088,1.4088,1.4088,1.4088,1.4088,1.4088,1.4088,1.4088,1.4088,1.4088,1.4088,1.4088,1.4088,1.4088,1.4088,1.4088,1.4088,1.4088,1.4088,1.4088,1.4082,1.3737,1.3835,1.3796,1.3953,1.3493,1.194,0.9894,0.8305,0.769,0.8158,0.7636,0.72,0.7105,0.7115,0.7115,0.7105,0.7099,0.7105,0.7122,0.7126,0.7139,0.7146,0.7146,0.7143,0.7146,0.6894,-0.0,-0.0,-0.0,-0.0,-0.0,-0.0,-0.0,-0.0,-0.0,-0.0,-0.0,-0.0,-0.0,0.4959,0.7048,0.7022,0.692,0.528,0.5191,0.6008,0.5099,0.5275,0.645,0.7094,0.5733,0.4656,0.4117,0.4115,0.3666,0.3132,0.1519,-0.0,-0.0,-0.0,-0.0,-0.0,-0.0,-0.0,-0.0,-0.0,-0.0,-0.0,-0.0,-0.0,-0.0,-0.0,-0.0,-0.0,-0.0,-0.0,-0.5073,-0.6253,-0.686,-0.681,-0.662,-0.6452,-0.6345,-0.6261,-0.7022,-0.8084,-0.8613,1.7429,1.5944,1.5786,1.5061,1.4166,1.4088,1.4088,1.4088,1.4088,1.4088,1.4088,1.4088,1.4088,1.4088,1.4088,1.4088,1.4088,1.4088,1.4088,1.4088,1.4088,1.4088,1.4088,1.3906,1.3997,1.4088,1.3913,1.3385,1.2857,1.2601,1.3028,1.3397,1.2273,1.0265,0.8491,0.725,0.7183,0.757,0.7228,0.7139,0.7139,0.7139,0.7139,0.7139,0.7139,0.7146,0.7068,0.7061,0.7156,0.7091,0.7084,0.7071,0.7153,0.7084,0.6284,0.4572,0.2242,-0.0,-0.0,-0.0,-0.0,-0.0,-0.0,-0.0,-0.0,-0.0,-0.0,0.5497,0.7121,0.7094,0.7101,0.645,0.6545,0.6913,0.6726,0.6447,0.69,0.7074,0.6982,0.6086,0.6183,0.6278,0.5466,0.4835,0.3673,0.188,-0.0,-0.0,-0.0,-0.0,-0.0,-0.0,-0.0,-0.0,-0.0,-0.0,-0.0,-0.0,-0.0,-0.0,-0.0,-0.0,-0.0,-0.0,-0.5188,-0.6599,-0.701,-0.6858,-0.6698,-0.6512,-0.639,-0.6271,-0.6972,-0.7679,-0.8237,1.7543,1.5696,1.5696,1.5054,1.4166,1.4088,1.4088,1.4088,1.4088,1.4088,1.4088,1.4088,1.4088,1.4088,1.4088,1.4088,1.4088,1.4088,1.4088,1.4088,1.4088,1.4088,1.3906,1.3555,1.3203,1.2948,1.2601,1.2334,1.1963,1.1632,1.1802,1.1875,1.105,0.9423,0.7639,0.7197,0.7119,0.7139,0.7139,0.7139,0.7139,0.7139,0.7139,0.7139,0.7139,0.7146,0.6877,0.5697,0.5974,0.6811,0.7088,0.7084,0.7088,0.6917,0.6025,0.4037,0.3323,0.2246,-0.0,-0.0,-0.0,-0.0,0.1979,0.36,0.2967,-0.0,0.2513,0.5652,0.7094,0.7071,0.7074,0.7074,0.7074,0.7074,0.7074,0.7071,0.7153,0.7146,0.7149,0.7068,0.6887,0.6716,0.691,0.6281,0.566,0.395,0.1526,-0.0,-0.0,-0.0,-0.0,-0.0,-0.0,-0.0,-0.0,-0.0,-0.0,-0.0,-0.0,-0.0,-0.0,-0.0,-0.0,-0.0,-0.5008,-0.6999,-0.7099,-0.6953,-0.6803,-0.6651,-0.6582,-0.6537,-0.6741,-0.718,-0.7812,1.7172,1.5379,1.5379,1.4894,1.4173,1.4088,1.4088,1.4088,1.4088,1.4088,1.4088,1.4088,1.4088,1.4088,1.4088,1.4088,1.4088,1.4088,1.4088,1.4088,1.4082,1.3997,1.3464,1.2851,1.2242,1.1815,1.0961,1.06,1.0849,1.0514,1.0212,0.9901,0.9832,0.9112,0.7408,0.7132,0.7139,0.7139,0.7139,0.7139,0.7139,0.7139,0.7139,0.7139,0.7139,0.7143,0.6881,0.5786,0.5706,0.6447,0.6637,0.6548,0.7022,0.7135,0.4864,0.1617,0.3776,0.2964,-0.0,-0.0,-0.0,0.036,0.451,0.6326,0.6317,0.4131,0.3314,0.6248,0.7143,0.7143,0.7146,0.7143,0.7143,0.7143,0.7143,0.7139,0.7143,0.7143,0.7143,0.7143,0.7139,0.7153,0.7084,0.4917,0.3757,0.4764,-0.0,-0.0,-0.0,-0.0,-0.0,-0.0,-0.0,-0.0,-0.0,-0.0,-0.0,-0.0,-0.0,-0.0,-0.0,-0.0,-0.0,-0.3127,-0.5463,-0.7088,-0.7109,-0.7027,-0.6858,-0.6698,-0.6651,-0.6614,-0.6667,-0.7002,-0.765,1.5379,1.4334,1.4328,1.4166,1.4088,1.4088,1.4088,1.4088,1.4088,1.4088,1.4088,1.4088,1.4088,1.4088,1.4088,1.4088,1.4088,1.3906,1.3822,1.3815,1.373,1.3209,1.2595,1.2413,1.1472,1.0783,0.9666,0.9235,0.9314,0.9231,0.8627,0.794,0.7856,0.7319,0.7231,0.7139,0.7139,0.7139,0.7139,0.7139,0.7139,0.7139,0.7139,0.7139,0.7143,0.7149,0.7071,0.6425,0.6789,0.664,0.5188,0.5295,0.6601,0.7075,0.451,0.1619,0.0539,-0.0,-0.0,0.3236,0.4049,0.2337,0.4504,0.6591,0.6671,0.6563,0.5908,0.6694,0.7139,0.7139,0.7139,0.7139,0.7139,0.7139,0.7139,0.7139,0.7139,0.7139,0.7139,0.7143,0.7146,0.7068,0.7084,0.4194,0.1873,0.3135,-0.0,-0.0,-0.0,-0.0,-0.0,-0.0,-0.0,-0.0,-0.0,-0.0,-0.0,-0.0,-0.0,-0.0,-0.0,-0.0,-0.0,-0.313,-0.5468,-0.6999,-0.7129,-0.7027,-0.6881,-0.6742,-0.6688,-0.6531,-0.6373,-0.6883,-0.7334,1.4496,1.4088,1.4088,1.4088,1.4088,1.4088,1.4088,1.4088,1.4088,1.4088,1.4088,1.4088,1.4088,1.4088,1.4088,1.4088,1.399,1.3379,1.293,1.2674,1.2419,1.1901,1.13,1.0697,1.0014,0.9758,0.8715,0.7929,0.7929,0.7929,0.7492,0.7228,0.7139,0.7231,0.7139,0.7139,0.7139,0.7139,0.7139,0.7139,0.7139,0.7139,0.7139,0.7139,0.7139,0.7146,0.7149,0.7149,0.7153,0.6907,0.5911,0.4482,0.3597,0.2971,-0.0,-0.0,-0.0,-0.0,-0.0,-0.0,0.4961,0.451,0.4869,0.5494,0.6563,0.7088,0.7071,0.7143,0.7139,0.7139,0.7139,0.7139,0.7139,0.7139,0.7139,0.7139,0.7139,0.7139,0.7143,0.7146,0.7153,0.7078,0.6631,0.4107,-0.0,-0.0,-0.0,-0.0,-0.0,-0.0,-0.0,-0.0,-0.0,-0.0,-0.0,-0.0,-0.0,-0.0,-0.0,-0.0,-0.0,-0.0,-0.0,-0.3132,-0.5557,-0.6536,-0.6959,-0.7078,-0.698,-0.6817,-0.6641,-0.6498,-0.6359,-0.6352,-0.6729,1.4088,1.4088,1.4088,1.4088,1.4088,1.4088,1.4088,1.4088,1.4088,1.4088,1.4088,1.4088,1.4088,1.3997,1.373,1.347,1.3561,1.2419,1.1798,1.1364,1.094,1.0524,1.0096,0.9323,0.8982,0.8911,0.7841,0.7316,0.7228,0.7139,0.7228,0.7139,0.7139,0.7139,0.7139,0.7139,0.7139,0.7139,0.7139,0.7139,0.7139,0.7139,0.7139,0.7139,0.7139,0.7139,0.7139,0.7139,0.7149,0.7071,0.7002,0.5203,0.251,0.1168,-0.0,-0.0,-0.0,-0.0,-0.0,0.2969,0.5512,0.5787,0.4687,0.3859,0.6732,0.7068,0.7139,0.7139,0.7139,0.7139,0.7139,0.7139,0.7139,0.7139,0.7139,0.7139,0.7139,0.7139,0.7143,0.7146,0.7068,0.7088,0.6094,0.3931,-0.0,-0.0,-0.0,-0.0,-0.0,-0.0,-0.0,-0.0,-0.0,-0.0,-0.0,-0.0,-0.0,-0.0,-0.0,-0.0,-0.0,-0.0,-0.0,-0.3133,-0.5555,-0.6532,-0.7054,-0.7031,-0.6991,-0.6868,-0.6681,-0.6566,-0.6447,-0.6346,-0.6271,1.4088,1.4088,1.4088,1.4088,1.4088,1.4088,1.4088,1.4088,1.4088,1.4088,1.4088,1.3997,1.3906,1.373,1.2851,1.2419,1.2328,1.1214,1.0783,1.0697,1.0519,0.9749,0.9144,0.8715,0.8281,0.758,0.7139,0.7139,0.7139,0.7139,0.7139,0.7139,0.7139,0.7139,0.7139,0.7139,0.7139,0.7139,0.7139,0.7139,0.7139,0.7139,0.7139,0.7139,0.7139,0.7139,0.7139,0.7139,0.7146,0.7153,0.7088,0.6373,0.358,0.1166,-0.0,-0.0,-0.0,-0.0,-0.0,-0.0,0.2873,0.4232,0.4045,0.2774,0.5916,0.6976,0.7054,0.7139,0.7139,0.7139,0.7139,0.7139,0.7139,0.7139,0.7139,0.7139,0.7139,0.7139,0.7143,0.7143,0.7068,0.691,0.5741,0.358,0.188,-0.0,-0.0,-0.0,-0.0,-0.0,-0.0,-0.0,-0.0,-0.0,-0.0,-0.0,-0.0,-0.0,-0.0,-0.0,-0.0,-0.0,-0.0,-0.313,-0.5369,-0.6346,-0.7149,-0.7129,-0.7058,-0.6875,-0.6715,-0.6586,-0.6454,-0.641,-0.6278,1.4088,1.4088,1.4088,1.4088,1.4088,1.4088,1.4088,1.4088,1.4088,1.4088,1.3997,1.3379,1.2845,1.2492,1.1809,1.1295,1.1123,1.0091,0.9845,0.9414,0.8978,0.8273,0.7841,0.7841,0.7489,0.7139,0.7139,0.7139,0.7139,0.7139,0.7139,0.7139,0.7139,0.7139,0.7139,0.7139,0.7139,0.7139,0.7139,0.7139,0.7139,0.7139,0.7139,0.7139,0.7139,0.7139,0.7139,0.7139,0.7149,0.7071,0.7088,0.6186,0.5104,0.2062,-0.0,-0.0,-0.0,-0.0,-0.0,-0.0,-0.0,0.1975,0.2329,0.3126,0.5552,0.6251,0.6962,0.7139,0.7139,0.7139,0.7139,0.7139,0.7139,0.7139,0.7139,0.7139,0.7139,0.7139,0.7139,0.7143,0.6799,0.6459,0.4931,0.3138,0.1705,-0.0,-0.0,-0.0,-0.0,-0.0,-0.0,-0.0,-0.0,-0.0,-0.0,-0.0,-0.0,-0.0,-0.0,-0.0,-0.0,-0.0,-0.0,-0.0,-0.5275,-0.6441,-0.7153,-0.7143,-0.7061,-0.6929,-0.6759,-0.6583,-0.6454,-0.64,-0.6281,1.4088,1.4088,1.4088,1.4088,1.4088,1.4088,1.4088,1.4088,1.4088,1.3822,1.347,1.2334,1.1718,1.1278,1.0514,1.0096,0.9749,0.8969,0.8723,0.8288,0.7757,0.7139,0.7139,0.7139,0.7228,0.7139,0.7139,0.7139,0.7139,0.7139,0.7139,0.7139,0.7139,0.7139,0.7139,0.7139,0.7139,0.7139,0.7139,0.7139,0.7139,0.7139,0.7139,0.7139,0.7139,0.7139,0.7139,0.7139,0.7149,0.6799,0.6447,0.6005,0.5109,0.3857,0.2425,0.1706,0.0987,0.0628,0.1527,0.0629,0.0899,0.3056,0.4039,0.4565,0.5095,0.6166,0.6979,0.7139,0.7139,0.7139,0.7139,0.7139,0.7139,0.7139,0.7139,0.7139,0.7139,0.7139,0.7139,0.7054,0.6713,0.6281,0.4119,-0.0,-0.0,-0.0,-0.0,-0.0,-0.0,-0.0,-0.0,-0.0,-0.0,-0.0,-0.0,-0.0,-0.0,-0.0,-0.0,-0.0,-0.0,-0.0,-0.0,-0.0,-0.5095,-0.6536,-0.7068,-0.7143,-0.7092,-0.7017,-0.6824,-0.661,-0.6468,-0.6424,-0.6285,1.4088,1.4088,1.4088,1.4088,1.4088,1.4088,1.4088,1.4088,1.3913,1.33,1.2242,1.1123,1.0611,1.0351,0.9405,0.8973,0.8711,0.7837,0.7404,0.7404,0.7319,0.7139,0.7139,0.7139,0.7139,0.7139,0.7139,0.7139,0.7139,0.7139,0.7139,0.7139,0.7139,0.7139,0.7139,0.7139,0.7139,0.7139,0.7139,0.7139,0.7139,0.7139,0.7139,0.7139,0.7139,0.7139,0.7139,0.7139,0.7146,0.6972,0.563,0.465,0.3403,0.5486,0.5852,0.6028,0.2506,0.2686,0.5763,0.2244,0.2695,0.4945,0.5479,0.629,0.6729,0.7088,0.7081,0.7143,0.7139,0.7139,0.7139,0.7139,0.7139,0.7139,0.7139,0.7139,0.7139,0.7139,0.7139,0.7143,0.6897,0.6192,0.376,-0.0,-0.0,-0.0,-0.0,-0.0,-0.0,-0.0,-0.0,-0.0,-0.0,-0.0,-0.0,-0.0,-0.0,-0.0,-0.0,-0.0,-0.0,-0.0,-0.0,-0.0,-0.5186,-0.6903,-0.7068,-0.7139,-0.7071,-0.699,-0.6831,-0.6647,-0.6498,-0.6448,-0.6298,1.4088,1.4088,1.4088,1.4088,1.4088,1.4088,1.4088,1.3913,1.3203,1.2248,1.1128,1.0009,0.9492,0.9148,0.836,0.7753,0.7665,0.7489,0.7139,0.7139,0.7139,0.7139,0.7139,0.7139,0.7139,0.7139,0.7139,0.7139,0.7139,0.7139,0.7139,0.7139,0.7139,0.7139,0.7139,0.7139,0.7139,0.7139,0.7139,0.7139,0.7139,0.7139,0.7139,0.7139,0.7139,0.7139,0.7139,0.7139,0.7146,0.7068,0.5811,0.4563,0.3224,0.4945,0.7032,0.7115,0.4748,0.4472,0.5563,0.3944,0.4491,0.5565,0.6284,0.7012,0.7088,0.7071,0.7149,0.7143,0.7139,0.7139,0.7139,0.7139,0.7139,0.7139,0.7139,0.7139,0.7139,0.7139,0.7143,0.7149,0.6986,0.4659,0.224,-0.0,-0.0,-0.0,-0.0,-0.0,-0.0,-0.0,-0.0,-0.0,-0.0,-0.0,-0.0,-0.0,-0.0,-0.0,-0.0,-0.0,-0.0,-0.0,-0.0,-0.0,-0.5463,-0.7091,-0.7068,-0.7122,-0.7044,-0.6939,-0.6807,-0.6661,-0.6502,-0.6376,-0.6281,1.4088,1.4088,1.4088,1.4088,1.4095,1.4122,1.3678,1.2784,1.1643,1.0697,0.9836,0.8798,0.8277,0.8013,0.7577,0.7139,0.7139,0.7139,0.7139,0.7139,0.7139,0.7139,0.7139,0.7139,0.7139,0.7139,0.7139,0.7139,0.7139,0.7139,0.7139,0.7139,0.7139,0.7139,0.7139,0.7139,0.7139,0.7139,0.7139,0.7139,0.7139,0.7139,0.7139,0.7139,0.7139,0.7139,0.7139,0.7143,0.7146,0.7074,0.6542,0.5644,0.4391,0.4844,0.7108,0.7104,0.6917,0.6177,0.5822,0.5922,0.5919,0.545,0.6444,0.6992,0.7078,0.7153,0.7146,0.7139,0.7139,0.7139,0.7139,0.7139,0.7139,0.7139,0.7139,0.7139,0.7139,0.7139,0.7143,0.7149,0.6808,0.403,-0.0,-0.0,-0.0,-0.0,-0.0,-0.0,-0.0,-0.0,-0.0,-0.0,-0.0,-0.0,-0.0,-0.0,-0.0,-0.0,-0.0,-0.0,-0.0,-0.0,-0.0,-0.3849,-0.5738,-0.7091,-0.7064,-0.7109,-0.7061,-0.6963,-0.6824,-0.6671,-0.6505,-0.638,-0.6268,1.4088,1.4088,1.4088,1.4088,1.4102,1.39,1.2576,1.0514,0.9405,0.8978,0.8715,0.7665,0.7316,0.7228,0.7139,0.7139,0.7139,0.7139,0.7139,0.7139,0.7139,0.7139,0.7139,0.7139,0.7139,0.7139,0.7139,0.7139,0.7139,0.7139,0.7139,0.7139,0.7139,0.7139,0.7139,0.7139,0.7139,0.7139,0.7139,0.7139,0.7139,0.7139,0.7139,0.7139,0.7139,0.7139,0.7139,0.7139,0.7143,0.7149,0.6982,0.6989,0.6903,0.7081,0.7084,0.7084,0.7084,0.6903,0.6808,0.6999,0.6989,0.6428,0.689,0.7068,0.7149,0.7143,0.7143,0.7139,0.7139,0.7139,0.7139,0.7139,0.7139,0.7139,0.7139,0.7139,0.7139,0.7143,0.7143,0.7068,0.7091,-0.0,-0.0,-0.0,-0.0,-0.0,-0.0,-0.0,-0.0,-0.0,-0.0,-0.0,-0.0,-0.0,-0.0,-0.0,-0.0,-0.0,-0.0,-0.0,-0.0,-0.0,-0.0,-0.3765,-0.6014,-0.7088,-0.7061,-0.7136,-0.7119,-0.6997,-0.6854,-0.6732,-0.6586,-0.6376,-0.6261,1.4088,1.4088,1.4088,1.4088,1.3828,1.2283,1.0312,0.8245,0.8582,0.8452,0.7577,0.7228,0.7139,0.7139,0.7139,0.7139,0.7139,0.7139,0.7139,0.7139,0.7139,0.7139,0.7139,0.7139,0.7139,0.7139,0.7139,0.7139,0.7139,0.7139,0.7139,0.7139,0.7139,0.7139,0.7139,0.7139,0.7139,0.7139,0.7139,0.7139,0.7139,0.7139,0.7139,0.7139,0.7139,0.7139,0.7139,0.7139,0.7139,0.7143,0.7146,0.7153,0.7088,0.7071,0.7149,0.7153,0.7071,0.7081,0.7071,0.7078,0.7078,0.7143,0.7149,0.7146,0.7139,0.7139,0.7139,0.7139,0.7139,0.7139,0.7139,0.7139,0.7139,0.7139,0.7139,0.7139,0.7139,0.7139,0.7054,0.6529,0.6551,-0.0,-0.0,-0.0,-0.0,-0.0,-0.0,-0.0,-0.0,-0.0,-0.0,-0.0,-0.0,-0.0,-0.0,-0.0,-0.0,-0.0,-0.0,-0.0,-0.0,-0.0,-0.0,-0.3588,-0.5744,-0.6719,-0.7146,-0.7132,-0.7037,-0.7027,-0.6895,-0.6783,-0.6654,-0.6451,-0.6281,1.4088,1.4088,1.4088,1.4088,1.3822,1.2083,1.0191,0.8669,0.8317,0.7753,0.7139,0.7139,0.7139,0.7139,0.7139,0.7139,0.7139,0.7139,0.7139,0.7139,0.7139,0.7139,0.7139,0.7139,0.7139,0.7139,0.7139,0.7139,0.7139,0.7139,0.7139,0.7139,0.7139,0.7139,0.7139,0.7139,0.7139,0.7139,0.7139,0.7139,0.7139,0.7139,0.7139,0.7139,0.7139,0.7139,0.7139,0.7139,0.7139,0.7139,0.7139,0.7146,0.7071,0.7149,0.7139,0.7143,0.7149,0.7153,0.7149,0.7153,0.7149,0.7143,0.7139,0.7139,0.7139,0.7139,0.7139,0.7139,0.7139,0.7139,0.7139,0.7139,0.7139,0.7139,0.7139,0.7139,0.7139,0.7139,0.6609,0.5991,0.5107,0.395,-0.0,-0.0,-0.0,-0.0,-0.0,-0.0,-0.0,-0.0,-0.0,-0.0,-0.0,-0.0,-0.0,-0.0,-0.0,-0.0,-0.0,-0.0,-0.0,-0.0,-0.0,-0.3317,-0.556,-0.6355,-0.7146,-0.7139,-0.7027,-0.694,-0.6959,-0.6871,-0.6739,-0.6552,-0.6396,1.4132,1.4132,1.4048,1.4055,1.3906,1.2735,1.1657,1.068,0.8682,0.7401,0.7404,0.7139,0.7139,0.7139,0.7139,0.7139,0.7139,0.7139,0.7139,0.7139,0.7139,0.7139,0.7139,0.7139,0.7139,0.7139,0.7139,0.7139,0.7139,0.7139,0.7139,0.7139,0.7139,0.7139,0.7139,0.7139,0.7139,0.7139,0.7139,0.7139,0.7139,0.7139,0.7139,0.7139,0.7139,0.7139,0.7139,0.7139,0.7139,0.7139,0.7139,0.7139,0.7143,0.7143,0.7139,0.7139,0.7143,0.7143,0.7143,0.7143,0.7143,0.7139,0.7139,0.7139,0.7139,0.7139,0.7139,0.7139,0.7139,0.7139,0.7139,0.7139,0.7139,0.7139,0.7139,0.7139,0.7139,0.6874,0.6251,0.5361,0.3846,-0.0,-0.0,-0.0,-0.0,-0.0,-0.0,-0.0,-0.0,-0.0,-0.0,-0.0,-0.0,-0.0,-0.0,-0.0,-0.0,-0.0,-0.0,-0.0,-0.0,-0.0,-0.0,-0.3135,-0.5463,-0.6444,-0.7153,-0.7054,-0.7044,-0.7017,-0.7037,-0.6966,-0.6827,-0.6664,-0.6512,1.4125,1.4042,1.3843,1.3874,1.3866,1.2637,1.2524,1.2997,1.0794,0.9222,0.8452,0.7577,0.7139,0.7139,0.7139,0.7139,0.7139,0.7139,0.7139,0.7139,0.7139,0.7139,0.7139,0.7139,0.7139,0.7139,0.7139,0.7139,0.7139,0.7139,0.7139,0.7139,0.7139,0.7139,0.7139,0.7139,0.7139,0.7139,0.7139,0.7139,0.7139,0.7139,0.7139,0.7139,0.7139,0.7139,0.7139,0.7139,0.7139,0.7139,0.7139,0.7139,0.7139,0.7139,0.7139,0.7139,0.7139,0.7139,0.7139,0.7139,0.7139,0.7139,0.7139,0.7139,0.7139,0.7139,0.7139,0.7139,0.7139,0.7139,0.7139,0.7139,0.7139,0.7139,0.7139,0.7139,0.7139,0.6517,0.5983,0.4643,0.3038,-0.0,-0.0,-0.0,-0.0,-0.0,-0.0,-0.0,-0.0,-0.0,-0.0,-0.0,-0.0,-0.0,-0.0,-0.0,-0.0,-0.0,-0.0,-0.0,-0.0,-0.0,-0.0808,-0.3132,-0.5188,-0.6352,-0.7156,-0.7143,-0.7136,-0.7129,-0.7112,-0.7037,-0.697,-0.6827,-0.6658,1.3454,1.3642,1.3467,1.354,1.3566,1.2845,1.3143,1.358,1.2018,1.0605,0.9657,0.8632,0.7845,0.7228,0.7139,0.7139,0.7139,0.7139,0.7139,0.7139,0.7139,0.7139,0.7139,0.7139,0.7139,0.7139,0.7139,0.7139,0.7139,0.7139,0.7139,0.7139,0.7139,0.7139,0.7139,0.7139,0.7139,0.7139,0.7139,0.7139,0.7139,0.7139,0.7139,0.7139,0.7139,0.7139,0.7139,0.7139,0.7139,0.7139,0.7139,0.7139,0.7139,0.7139,0.7139,0.7139,0.7139,0.7139,0.7139,0.7139,0.7139,0.7139,0.7139,0.7139,0.7139,0.7139,0.7139,0.7139,0.7139,0.7139,0.7139,0.7139,0.7139,0.7139,0.7139,0.7139,0.7146,0.6884,0.6523,0.598,-0.0,-0.0,-0.0,-0.0,-0.0,-0.0,-0.0,-0.0,-0.0,-0.0,-0.0,-0.0,-0.0,-0.0,-0.0,-0.0,-0.0,-0.0,-0.0,-0.0,-0.0,-0.0,-0.0718,-0.313,-0.5184,-0.6536,-0.7071,-0.7146,-0.7139,-0.7136,-0.7129,-0.7112,-0.7041,-0.6963,-0.6793,1.2732,1.32,1.3166,1.3186,1.3193,1.316,1.3413,1.3669,1.2581,1.1461,1.0439,0.9852,0.8669,0.7577,0.7139,0.7139,0.7139,0.7139,0.7139,0.7139,0.7139,0.7139,0.7139,0.7139,0.7139,0.7139,0.7139,0.7139,0.7139,0.7139,0.7139,0.7139,0.7139,0.7139,0.7139,0.7139,0.7139,0.7139,0.7139,0.7139,0.7139,0.7139,0.7139,0.7139,0.7139,0.7139,0.7139,0.7139,0.7139,0.7139,0.7139,0.7139,0.7139,0.7139,0.7139,0.7139,0.7139,0.7139,0.7139,0.7139,0.7139,0.7139,0.7139,0.7139,0.7139,0.7139,0.7139,0.7139,0.7139,0.7139,0.7139,0.7139,0.7139,0.7139,0.7139,0.7139,0.7149,0.7068,0.6972,0.6871,-0.0,-0.0,-0.0,-0.0,-0.0,-0.0,-0.0,-0.0,-0.0,-0.0,-0.0,-0.0,-0.0,-0.0,-0.0,-0.0,-0.0,-0.0,-0.0,-0.0,-0.0,-0.0,-0.2511,-0.3124,-0.4996,-0.6621,-0.7068,-0.7143,-0.7139,-0.7139,-0.7136,-0.7129,-0.7109,-0.7021,-0.6892,1.2979,1.3186,1.2946,1.2882,1.2962,1.2855,1.3006,1.3088,1.3047,1.1962,1.0606,1.0289,0.9256,0.7136,0.7139,0.7129,0.7109,0.7126,0.7139,0.7139,0.7139,0.7139,0.7139,0.7139,0.7139,0.7139,0.7139,0.7139,0.7139,0.7139,0.7139,0.7139,0.7139,0.7139,0.7139,0.7139,0.7139,0.7139,0.7139,0.7139,0.7139,0.7139,0.7139,0.7139,0.7139,0.7139,0.7139,0.7139,0.7139,0.7139,0.7139,0.7139,0.7139,0.7139,0.7139,0.7139,0.7139,0.7139,0.7139,0.7139,0.7139,0.7139,0.7139,0.7139,0.7139,0.7139,0.7139,0.7139,0.7139,0.7139,0.7139,0.7139,0.7139,0.7139,0.7139,0.7139,0.7146,0.7146,0.7054,0.6425,-0.0,-0.0,-0.0,-0.0,-0.0,-0.0,-0.0,-0.0,-0.0,-0.0,-0.0,-0.0,-0.0,-0.0,-0.0,-0.0,-0.0,-0.0,-0.0,-0.0,-0.0,-0.0,-0.5208,-0.4917,-0.545,-0.6894,-0.7153,-0.7139,-0.7139,-0.7139,-0.7139,-0.7136,-0.7129,-0.7078,-0.6946]},{"header":{"parameterUnit":"m.s-1","parameterCategory":1,"la1":31.0,"la2":29.5877,"lo1":-88.7671,"lo2":-86.6584,"dy":0.0162,"dx":0.0185,"nx":115,"ny":88,"refTime":"2024-09-13T12:00:00:Z","depth":0,"parameterNumber":3,"parameterNumberName":"V-component_of_WINDS"},"data":[0.0,0.0,0.0,0.0,0.0,0.0,0.0,0.0,0.0,0.0,0.0,0.0,0.0,0.0,0.0,0.0,0.0,0.0,0.0,0.0,0.0,0.0,0.0,0.0,0.0,0.0,0.0,0.0,0.0,0.0,0.0,0.0,0.0,0.0,0.0,0.0,0.0,0.0,0.0,0.0,0.0,0.0,0.0,0.0,0.0,0.0,0.0,0.0,0.0,0.0,0.0,0.0,0.0,0.0,0.0,0.0,0.0,0.0,0.0,0.0,0.0,0.0,0.0,0.0,0.0,0.0,0.0,0.0,0.0,0.0,0.0,0.0,0.0,0.0,0.0,0.0,0.0,0.0,0.0,0.0,0.0,0.0,0.0,0.0,0.0,0.0,0.0,0.0,0.0,0.0,0.0,0.0,0.0,0.0,0.0,0.0,0.0,0.0,0.0,0.0,0.0,0.0,0.0,0.0,0.0,0.0,0.0,0.0,0.0,0.0,0.0,0.0,0.0,0.0,0.0,0.0,0.0,0.0,0.0,0.0,0.0,0.0,0.0,0.0,0.0,0.0,0.0,0.0,0.0,0.0,0.0,0.0,0.0,0.0,0.0,0.0,0.0,0.0,0.0,0.0,0.0,0.0,0.0,0.0,0.0,0.0,0.0,0.0,0.0,0.0,0.0,0.0,0.0,0.0,0.0,0.0,0.0,0.0,0.0,0.0,0.0,0.0,0.0,0.0,0.0,0.0,0.0,0.0,0.0,0.0,0.0,0.0,0.0,0.0,0.0,0.0,0.0,0.0,0.0,0.0,0.0,0.0,0.0,0.0,0.0,0.0,0.0,0.0,0.0,0.0,0.0,0.0,0.0,0.0,0.0,0.0,0.0,0.0,0.0,0.0,0.0,0.0,0.0,0.0,0.0,0.0,0.0,0.0,0.0,0.0,0.0,0.0,0.0,0.0,0.0,0.0,0.0,0.0,0.0,0.0,0.0,0.0,0.0,0.0,0.0,0.0,0.0,0.0,0.0,0.0,0.0,0.0,0.0,0.0,0.0,0.0,0.0,0.0,0.0,0.0,0.0,0.0,0.0,0.0,0.0,0.0,0.0,0.0,0.0,0.0,0.0,0.0,0.0,0.0,0.0,0.0,0.0,0.0,0.0,0.0,0.0,0.0,0.0,0.0,0.0,0.0,0.0,0.0,0.0,0.0,0.0,0.0,0.0,0.0,0.0,0.0,0.0,0.0,0.0,0.0,0.0,0.0,0.0,0.0,0.0,0.0,0.0,0.0,0.0,0.0,0.0,0.0,0.0,0.0,0.0,0.0,0.0,0.0,0.0,0.0,0.0,0.0,0.0,0.0,0.0,0.0,0.0,0.0,0.0,0.0,0.0,0.0,0.0,0.0,0.0,0.0,0.0,0.0,0.0,0.0,0.0,0.0,0.0,0.0,0.0,0.0,0.0,0.0,0.0,0.0,0.0,0.0,0.0,0.0,0.0,0.0,0.0,0.0,0.0,0.0,0.0,0.0,0.0,0.0,0.0,0.0,0.0,0.0,0.0,0.0,0.0,0.0,0.0,0.0,0.0,0.0,0.0,0.0,0.0,0.0,0.0,0.0,0.0,0.0,0.0,0.0,0.0,0.0,0.0,0.0,0.0,0.0,0.0,0.0,0.0,0.0,0.0,0.0,0.0,0.0,0.0,0.0,0.0,0.0,0.0,0.0,0.0,0.0,0.0,0.0,0.0,0.0,0.0,0.0,0.0,0.0,0.0,0.0,0.0,0.0,0.0,0.0,0.0,0.0,0.0,0.0,0.0,0.0,0.0,0.0,0.0,0.0,0.0,0.0,0.0,0.0,0.0,0.0,0.0,0.0,0.0,0.0,0.0,0.0,0.0,0.0,0.0,0.0,0.0,0.0,0.0,0.0,0.0,0.0,0.0,0.0,0.0,0.0,0.0,0.0,0.0,0.0,0.0,0.0,0.0,0.0,0.0,0.0,0.0,0.0,0.0,0.0,0.0,0.0,0.0,0.0,0.0,0.0,0.0,0.0,0.0,0.0,0.0,0.0,0.0,0.0,0.0,0.0,0.0,0.0,0.0,0.0,0.0,0.0,0.0,0.0,0.0,0.0,0.0,0.0,0.0,0.0,0.0,0.0,0.0,0.0,0.0,0.0,0.0,0.0,0.0,0.0,0.0,0.0,0.0,0.0,0.0,0.0,0.0,0.0,0.0,0.0,0.0,0.0,0.0,0.0,0.0,0.0,0.0,0.0,0.0,0.0,0.0,0.0,0.0,0.0,0.0,0.0,0.0,0.0,0.0,0.0,0.0,0.0,0.0,0.0,0.0,0.0,0.0,0.0,0.0,0.0,0.0,0.0,0.0,0.0,0.0,0.0,0.0,0.0,0.0,0.0,0.0,0.0,0.0,0.0,0.0,0.0,0.0,0.0,0.0,0.0,0.0,0.0,0.0,0.0,0.0,0.0,0.0,0.0,0.0,0.0,0.0,0.0,0.0,0.0,0.0,0.0,0.0,0.0,0.0,0.0,0.0,0.0,0.0,0.0,0.0,0.0,0.0,0.0,0.0,0.0,0.0,0.0,0.0,0.0,0.0,0.0,0.0,0.0,0.0,0.0,0.0,0.0,0.0,0.0,0.0,0.0,0.0,0.0,0.0,0.0,0.0,0.0,0.0,0.0,0.0,0.0,0.0,0.0,0.0,0.0,0.0,0.0,0.0,0.0,0.0,0.0,0.0,0.0,0.0,0.0,0.0,0.0,0.0,0.0,0.0,0.0,0.0,0.0,0.0,0.0,0.0,0.0,0.0,0.0,0.0,0.0,0.0,0.0,0.0,0.0,0.0,0.0,0.0,0.0,0.0,0.0,0.0,0.0,0.0,0.0,0.0,0.0,0.0,0.0,0.0,0.0,0.0,0.0,0.0,0.0,0.0,0.0,0.0,0.0,0.0,0.0,0.0,0.0,0.0,0.0,0.0,0.0,0.0,0.0,0.0,0.0,0.0,0.0,0.0,0.0,0.0,0.0,0.0,0.0,0.0,0.0,0.0,0.0,0.0,0.0,0.0,0.0,0.0,0.0,0.0,0.0,0.0,0.0,0.0,0.0,0.0,0.0,0.0,0.0,0.0,0.0,0.0,0.0,0.0,0.0,0.0,0.0,0.0,0.0,0.0,0.0,0.0,0.0,0.0,0.0,0.0,0.0,0.0,0.0,0.0,0.0,0.0,0.0,0.0,0.0,0.0,0.0,0.0,0.0,0.0,0.0,0.0,0.0,0.0,0.0,0.0,0.0,0.0,0.0,0.0,0.0,0.0,0.0,0.0,0.0,0.0,0.0,0.0,0.0,0.0,0.0,0.0,0.0,0.0,0.0,0.0,0.0,0.0,0.0,0.0,0.0,0.0,0.0,0.0,0.0,0.0,0.0,0.0,0.0,0.0,0.0,0.0,0.0,0.0,0.0,0.0,0.0,0.0,0.0,0.0,0.0,0.0,0.0,0.0,0.0,0.0,0.0,0.0,0.0,0.0,0.0,0.0,0.0,0.0,0.0,0.0,0.0,0.0,0.0,0.0,0.0,0.0,0.0,0.0,0.0,0.0,0.0,0.0,0.0,0.0,0.0,0.0,0.0,0.0,0.0,0.0,0.0,0.0,0.0,0.0,0.0,0.0,0.0,0.0,0.0,0.0,0.0,0.0,0.0,0.0,0.0,0.0,0.0,0.0,0.0,0.0,0.0,0.0,0.0,0.0,0.0,0.0,0.0,0.0,0.0,0.0,0.0,0.0,0.0,0.0,0.0,0.0,0.0,0.0,0.0,0.0,0.0,0.0,0.0,0.0,0.0,0.0,0.0,0.0,0.0,0.0,0.0,0.0,0.0,0.0,0.0,0.0,0.0,0.0,0.0,0.0,0.0,0.0,0.0,0.0,0.0,0.0,0.0,0.0,0.0,0.0,0.0,0.0,0.0,0.0,0.0,0.0,0.0,0.0,0.0,0.0,0.0,0.0,0.0,0.0,0.0,0.0,0.0,0.0,0.0,0.0,0.0,0.0,0.0,0.0,0.0,0.0,0.0,0.0,0.0,0.0,0.0,0.0,0.0,0.0,0.0,0.0,0.0,0.0,0.0,0.0,0.0,0.0,0.0,0.0,0.0,0.0,0.0,0.0,0.0,0.0,0.0,0.0,0.0,0.0,0.0,0.0,0.0,0.0,0.0,0.0,0.0,0.0,0.0,0.0,0.0,0.0,0.0,0.0,0.0,0.0,0.0,0.0,0.0,-1.0063,0.0,0.0,0.0,0.0,0.0,0.0,0.0,0.0,0.0,0.0,0.0,0.0,0.0,0.0,0.0,0.0,0.0,0.0,0.0,0.0,0.0,0.0,0.0,0.0,0.0,0.0,0.0,0.0,0.0,0.0,0.0,0.0,0.0,0.0,0.0,0.0,0.0,0.0,0.0,0.0,0.0,0.0,0.0,0.0,0.0,0.0,0.0,0.0,0.0,0.0,0.0,0.0,0.0,0.0,0.0,0.0,0.0,0.0,0.0,0.0,0.0,0.0,0.0,0.0,0.0,0.0,0.0,0.0,0.0,0.0,0.0,0.0,0.0,0.0,0.0,0.0,0.0,0.0,0.0,0.0,0.0,0.0,0.0,0.0,0.0,0.0,0.0,0.0,0.0,0.0,0.0,0.0,0.0,0.0,0.0,0.0,0.0,0.0,0.0,0.0,0.0,0.0,0.0,0.0,0.0,0.0,0.0,0.0,0.0,0.0,-0.9971,-1.002,-0.9973,-0.9995,-1.0111,0.0,0.0,0.0,0.0,0.0,0.0,0.0,0.0,0.0,0.0,0.0,0.0,0.0,0.0,0.0,0.0,0.0,0.0,0.0,0.0,0.0,0.0,0.0,0.0,0.0,0.0,0.0,0.0,0.0,0.0,0.0,0.0,0.0,0.0,0.0,0.0,0.0,0.0,0.0,0.0,0.0,0.0,0.0,0.0,0.0,0.0,0.0,0.0,0.0,0.0,0.0,0.0,0.0,0.0,0.0,0.0,0.0,0.0,0.0,0.0,0.0,0.0,0.0,0.0,0.0,0.0,0.0,0.0,0.0,0.0,0.0,0.0,0.0,0.0,0.0,0.0,0.0,0.0,0.0,0.0,0.0,0.0,0.0,0.0,0.0,0.0,0.0,0.0,0.0,0.0,0.0,0.0,0.0,0.0,0.0,0.0,0.0,0.0,0.0,0.0,0.0,0.0,0.0,0.0,0.0,0.0,0.0,0.0,0.0,0.0,0.0,0.0,-1.0331,-1.036,-1.0423,0.0,0.0,0.0,0.0,0.0,0.0,0.0,0.0,0.0,0.0,0.0,0.0,0.0,0.0,0.0,0.0,0.0,0.0,0.0,0.0,0.0,0.0,0.0,0.0,0.0,0.0,0.0,0.0,0.0,0.0,0.0,0.0,0.0,0.0,0.0,0.0,0.0,0.0,0.0,0.0,0.0,0.0,0.0,0.0,0.0,0.0,0.0,0.0,0.0,0.0,0.0,0.0,0.0,0.0,0.0,0.0,0.0,0.0,0.0,0.0,0.0,0.0,0.0,0.0,0.0,0.0,0.0,0.0,0.0,0.0,0.0,0.0,0.0,0.0,0.0,0.0,0.0,0.0,0.0,0.0,0.0,0.0,0.0,0.0,0.0,0.0,0.0,0.0,0.0,0.0,0.0,0.0,0.0,0.0,0.0,0.0,0.0,0.0,0.0,0.0,0.0,0.0,0.0,0.0,0.0,0.0,0.0,0.0,0.0,0.0,-1.0475,-1.1249,-1.1271,0.0,-1.1382,0.0,0.0,0.0,0.0,0.0,0.0,0.0,0.0,0.0,0.0,0.0,0.0,0.0,0.0,0.0,0.0,0.0,0.0,0.0,0.0,0.0,0.0,0.0,0.0,0.0,0.0,0.0,0.0,0.0,0.0,0.0,0.0,0.0,0.0,0.0,0.0,0.0,0.0,0.0,0.0,0.0,0.0,0.0,0.0,0.0,0.0,0.0,0.0,0.0,0.0,0.0,0.0,0.0,0.0,0.0,0.0,0.0,0.0,0.0,0.0,0.0,0.0,0.0,0.0,0.0,0.0,0.0,0.0,0.0,0.0,0.0,0.0,0.0,0.0,0.0,0.0,0.0,0.0,0.0,0.0,0.0,0.0,0.0,0.0,0.0,0.0,0.0,0.0,0.0,0.0,0.0,0.0,0.0,0.0,0.0,0.0,0.0,0.0,0.0,0.0,0.0,0.0,0.0,0.0,0.0,0.0,0.0,0.0,0.0,0.0,-1.1091,-1.1457,-1.1495,-1.1502,0.0,0.0,0.0,0.0,0.0,0.0,0.0,0.0,0.0,0.0,0.0,0.0,0.0,0.0,0.0,0.0,0.0,0.0,0.0,0.0,0.0,0.0,0.0,0.0,0.0,0.0,0.0,0.0,0.0,0.0,0.0,0.0,0.0,0.0,0.0,0.0,0.0,0.0,0.0,0.0,0.0,0.0,0.0,0.0,0.0,0.0,0.0,0.0,0.0,0.0,0.0,0.0,0.0,0.0,0.0,0.0,0.0,0.0,0.0,0.0,0.0,0.0,0.0,0.0,0.0,0.0,0.0,0.0,0.0,0.0,0.0,0.0,0.0,0.0,0.0,0.0,0.0,0.0,0.0,0.0,0.0,0.0,0.0,0.0,0.0,0.0,0.0,0.0,0.0,0.0,0.0,0.0,0.0,0.0,0.0,0.0,0.0,0.0,0.0,0.0,0.0,0.0,0.0,0.0,0.0,0.0,0.0,0.0,0.0,0.0,-1.1244,-1.1585,-1.1828,-1.1911,-1.1712,-1.1166,0.0,0.0,0.0,0.0,0.0,0.0,0.0,0.0,0.0,0.0,0.0,0.0,0.0,0.0,0.0,0.0,0.0,0.0,0.0,0.0,0.0,0.0,0.0,0.0,0.0,0.0,0.0,0.0,0.0,0.0,0.0,0.0,0.0,0.0,0.0,0.0,0.0,0.0,0.0,0.0,0.0,0.0,0.0,0.0,0.0,0.0,0.0,0.0,0.0,0.0,0.0,0.0,0.0,0.0,0.0,0.0,0.0,0.0,0.0,0.0,0.0,0.0,0.0,0.0,0.0,0.0,0.0,0.0,0.0,0.0,0.0,0.0,0.0,0.0,0.0,0.0,0.0,0.0,0.0,0.0,0.0,0.0,0.0,0.0,0.0,0.0,0.0,0.0,0.0,0.0,0.0,0.0,0.0,0.0,0.0,0.0,0.0,0.0,0.0,0.0,0.0,0.0,0.0,0.0,0.0,0.0,0.0,0.0,0.0,-1.1787,-1.1806,-1.2616,-1.2753,-1.2037,0.0,0.0,0.0,0.0,0.0,0.0,0.0,0.0,0.0,0.0,0.0,0.0,0.0,0.0,0.0,0.0,0.0,0.0,0.0,0.0,0.0,0.0,0.0,0.0,0.0,0.0,0.0,0.0,0.0,0.0,0.0,0.0,0.0,0.0,0.0,0.0,0.0,0.0,0.0,0.0,0.0,0.0,0.0,0.0,0.0,0.0,0.0,0.0,0.0,0.0,0.0,0.0,0.0,0.0,0.0,0.0,0.0,0.0,0.0,0.0,0.0,0.0,0.0,0.0,0.0,0.0,0.0,0.0,0.0,0.0,0.0,0.0,0.0,0.0,0.0,0.0,0.0,0.0,0.0,0.0,0.0,0.0,0.0,0.0,0.0,0.0,0.0,0.0,0.0,0.0,0.0,0.0,0.0,0.0,0.0,0.0,0.0,0.0,0.0,0.0,0.0,0.0,0.0,0.0,0.0,0.0,0.0,0.0,0.0,-1.1021,-1.132,-1.2135,-1.3435,-1.2554,-1.1698,0.0,0.0,0.0,0.0,0.0,0.0,0.0,0.0,0.0,0.0,0.0,0.0,0.0,0.0,0.0,0.0,0.0,0.0,0.0,0.0,0.0,0.0,0.0,0.0,0.0,0.0,0.0,0.0,0.0,0.0,0.0,0.0,0.0,0.0,0.0,0.0,0.0,0.0,0.0,0.0,0.0,0.0,0.0,0.0,0.0,0.0,0.0,0.0,0.0,0.0,0.0,0.0,0.0,0.0,0.0,0.0,0.0,0.0,0.0,0.0,0.0,0.0,0.0,0.0,0.0,0.0,0.0,0.0,0.0,0.0,0.0,0.0,0.0,0.0,0.0,0.0,0.0,0.0,0.0,0.0,0.0,0.0,0.0,0.0,0.0,0.0,0.0,0.0,0.0,0.0,0.0,0.0,0.0,0.0,0.0,0.0,0.0,0.0,0.0,0.0,0.0,0.0,0.0,0.0,0.0,0.0,0.0,0.0,0.0,-1.0846,0.0,-1.2647,0.0,-1.245,-1.1356,0.0,0.0,0.0,0.0,0.0,0.0,0.0,0.0,0.0,0.0,0.0,0.0,0.0,0.0,0.0,0.0,0.0,0.0,0.0,0.0,0.0,0.0,0.0,0.0,0.0,0.0,0.0,0.0,0.0,0.0,0.0,0.0,0.0,0.0,0.0,0.0,0.0,0.0,0.0,0.0,0.0,0.0,0.0,0.0,0.0,0.0,0.0,0.0,0.0,0.0,0.0,0.0,0.0,0.0,0.0,0.0,0.0,0.0,0.0,0.0,0.0,0.0,0.0,0.0,0.0,0.0,0.0,0.0,0.0,0.0,0.0,0.0,0.0,0.0,0.0,0.0,0.0,0.0,0.0,0.0,0.0,0.0,0.0,0.0,0.0,0.0,0.0,0.0,0.0,0.0,0.0,0.0,0.0,0.0,0.0,0.0,0.0,0.0,0.0,0.0,0.0,0.0,0.0,0.0,0.0,0.0,0.0,0.0,-1.0803,-1.2301,-1.3235,-1.3329,-1.257,-1.2558,-1.108,0.0,0.0,0.0,0.0,0.0,0.0,0.0,0.0,0.0,0.0,0.0,0.0,0.0,0.0,0.0,0.0,0.0,0.0,0.0,0.0,0.0,0.0,0.0,0.0,0.0,0.0,0.0,0.0,0.0,0.0,0.0,0.0,0.0,0.0,0.0,0.0,0.0,0.0,0.0,0.0,0.0,0.0,0.0,0.0,0.0,0.0,0.0,0.0,0.0,0.0,0.0,0.0,0.0,0.0,0.0,0.0,0.0,0.0,0.0,0.0,0.0,0.0,0.0,0.0,0.0,0.0,0.0,0.0,0.0,0.0,0.0,0.0,0.0,0.0,0.0,0.0,0.0,0.0,0.0,0.0,0.0,0.0,0.0,0.0,0.0,0.0,0.0,0.0,0.0,0.0,0.0,0.0,0.0,0.0,0.0,0.0,0.0,0.0,0.0,0.0,0.0,0.0,0.0,0.0,0.0,0.0,0.0,0.0,0.0,-1.1583,-1.2354,-1.3191,-1.3978,-1.2525,-1.1504,0.0,0.0,0.0,0.0,0.0,0.0,0.0,0.0,0.0,0.0,0.0,0.0,0.0,0.0,0.0,0.0,0.0,0.0,0.0,0.0,0.0,0.0,0.0,0.0,0.0,0.0,0.0,0.0,0.0,0.0,0.0,0.0,0.0,0.0,0.0,0.0,0.0,0.0,0.0,0.0,0.0,0.0,0.0,0.0,0.0,0.0,0.0,0.0,0.0,0.0,0.0,0.0,0.0,0.0,0.0,0.0,0.0,0.0,0.0,0.0,0.0,0.0,0.0,0.0,0.0,0.0,0.0,0.0,0.0,0.0,0.0,0.0,0.0,0.0,0.0,0.0,0.0,0.0,0.0,0.0,0.0,0.0,0.0,0.0,0.0,0.0,0.0,0.0,0.0,0.0,0.0,0.0,0.0,0.0,0.0,0.0,0.0,0.0,0.0,0.0,0.0,0.0,0.0,0.0,0.0,0.0,0.0,0.0,0.0,-1.2942,-1.3383,-1.3989,-1.47,-1.3003,-1.192,-1.1541,0.0,0.0,0.0,0.0,0.0,0.0,0.0,0.0,0.0,0.0,0.0,0.0,0.0,0.0,0.0,0.0,0.0,0.0,0.0,0.0,0.0,0.0,0.0,0.0,0.0,0.0,0.0,0.0,0.0,0.0,0.0,0.0,0.0,0.0,0.0,0.0,0.0,0.0,0.0,0.0,0.0,0.0,0.0,0.0,0.0,0.0,0.0,0.0,0.0,0.0,0.0,0.0,0.0,0.0,0.0,0.0,0.0,0.0,0.0,0.0,0.0,0.0,0.0,0.0,0.0,0.0,0.0,0.0,0.0,0.0,0.0,0.0,0.0,0.0,0.0,0.0,0.0,0.0,0.0,0.0,0.0,0.0,0.0,0.0,0.0,0.0,0.0,0.0,0.0,0.0,0.0,0.0,0.0,0.0,0.0,0.0,0.0,0.0,0.0,0.0,0.0,0.0,0.0,0.0,0.0,0.0,0.0,0.0,-1.5773,-1.6028,-1.577,-1.4958,-1.3986,-1.2451,0.0,0.0,0.0,0.0,0.0,0.0,0.0,0.0,0.0,0.0,0.0,0.0,0.0,0.0,0.0,0.0,0.0,0.0,0.0,0.0,0.0,0.0,0.0,0.0,0.0,0.0,0.0,0.0,0.0,0.0,0.0,0.0,0.0,0.0,0.0,0.0,0.0,0.0,0.0,0.0,0.0,0.0,0.0,0.0,0.0,0.0,0.0,0.0,0.0,0.0,0.0,0.0,0.0,0.0,0.0,0.0,0.0,0.0,0.0,0.0,0.0,0.0,0.0,0.0,0.0,0.0,0.0,0.0,0.0,0.0,0.0,0.0,0.0,0.0,0.0,0.0,0.0,0.0,0.0,0.0,0.0,0.0,0.0,0.0,0.0,0.0,0.0,0.0,0.0,0.0,0.0,0.0,0.0,0.0,0.0,0.0,0.0,0.0,0.0,0.0,0.0,0.0,0.0,0.0,0.0,0.0,0.0,0.0,0.0,-1.5778,-1.8048,-1.8912,-1.8047,-1.5611,-1.4018,0.0,0.0,0.0,0.0,0.0,0.0,0.0,0.0,0.0,0.0,0.0,0.0,0.0,0.0,0.0,0.0,0.0,0.0,0.0,0.0,0.0,0.0,0.0,0.0,0.0,0.0,0.0,0.0,0.0,0.0,0.0,0.0,0.0,0.0,0.0,0.0,0.0,0.0,0.0,0.0,0.0,0.0,0.0,0.0,0.0,0.0,0.0,0.0,0.0,0.0,0.0,0.0,0.0,0.0,0.0,0.0,0.0,0.0,0.0,0.0,0.0,0.0,0.0,0.0,0.0,0.0,0.0,0.0,0.0,0.0,0.0,0.0,0.0,0.0,0.0,0.0,0.0,0.0,0.0,0.0,0.0,0.0,0.0,0.0,0.0,0.0,0.0,0.0,0.0,0.0,0.0,0.0,0.0,0.0,0.0,0.0,0.0,0.0,0.0,0.0,0.0,0.0,0.0,0.0,0.0,0.0,0.0,0.0,-1.5953,-1.7701,-2.0243,-2.1327,-2.0849,-1.8096,-1.5931,0.0,0.0,0.0,0.0,0.0,0.0,0.0,0.0,0.0,0.0,0.0,0.0,0.0,0.0,0.0,0.0,0.0,0.0,0.0,0.0,0.0,0.0,0.0,0.0,0.0,0.0,0.0,0.0,0.0,0.0,0.0,0.0,0.0,0.0,0.0,0.0,0.0,0.0,0.0,0.0,0.0,0.0,0.0,0.0,0.0,0.0,0.0,0.0,0.0,0.0,0.0,0.0,0.0,0.0,0.0,0.0,0.0,0.0,0.0,0.0,0.0,0.0,0.0,0.0,0.0,0.0,0.0,0.0,0.0,0.0,0.0,0.0,0.0,0.0,0.0,0.0,0.0,0.0,0.0,0.0,0.0,0.0,0.0,0.0,0.0,0.0,0.0,0.0,0.0,0.0,0.0,0.0,0.0,0.0,0.0,0.0,0.0,0.0,0.0,0.0,0.0,0.0,0.0,0.0,0.0,0.0,0.0,0.0,-1.7491,-2.0445,-2.2228,-2.3107,-2.3052,-2.0633,-1.7855,0.0,0.0,0.0,0.0,0.0,0.0,0.0,0.0,0.0,0.0,0.0,0.0,0.0,0.0,0.0,0.0,0.0,0.0,0.0,0.0,0.0,0.0,0.0,0.0,0.0,0.0,0.0,0.0,0.0,0.0,0.0,0.0,0.0,0.0,0.0,0.0,0.0,0.0,0.0,0.0,0.0,0.0,0.0,0.0,0.0,0.0,0.0,0.0,0.0,0.0,0.0,0.0,0.0,0.0,0.0,0.0,0.0,0.0,0.0,0.0,0.0,0.0,0.0,0.0,0.0,0.0,0.0,0.0,0.0,0.0,0.0,0.0,0.0,0.0,0.0,0.0,0.0,0.0,0.0,0.0,0.0,0.0,0.0,0.0,0.0,0.0,0.0,0.0,0.0,0.0,0.0,0.0,0.0,0.0,0.0,0.0,0.0,0.0,0.0,0.0,0.0,0.0,0.0,0.0,0.0,0.0,0.0,0.0,-1.8541,-2.0479,-2.2738,-2.3933,-2.3933,-2.077,-1.7932,0.0,0.0,0.0,0.0,0.0,0.0,0.0,0.0,0.0,0.0,0.0,0.0,0.0,0.0,0.0,0.0,0.0,0.0,0.0,0.0,0.0,0.0,0.0,0.0,0.0,0.0,0.0,0.0,0.0,0.0,0.0,0.0,0.0,0.0,0.0,0.0,0.0,0.0,0.0,0.0,0.0,0.0,0.0,0.0,0.0,0.0,0.0,0.0,-1.1028,0.0,0.0,0.0,0.0,0.0,0.0,0.0,0.0,0.0,0.0,0.0,0.0,0.0,0.0,0.0,0.0,0.0,0.0,0.0,0.0,0.0,0.0,0.0,0.0,0.0,0.0,0.0,0.0,0.0,0.0,0.0,0.0,0.0,0.0,0.0,0.0,0.0,0.0,0.0,0.0,0.0,0.0,0.0,0.0,0.0,0.0,0.0,0.0,0.0,0.0,0.0,0.0,0.0,0.0,0.0,0.0,0.0,0.0,0.0,-1.9632,-2.1643,-2.3344,-2.419,-2.4098,-2.1567,-1.8906,0.0,0.0,0.0,0.0,0.0,0.0,0.0,0.0,0.0,0.0,0.0,0.0,0.0,0.0,0.0,0.0,0.0,0.0,0.0,0.0,0.0,0.0,0.0,0.0,0.0,0.0,0.0,0.0,0.0,0.0,0.0,0.0,0.0,0.0,0.0,0.0,0.0,0.0,0.0,0.0,0.0,0.0,0.0,0.0,0.0,0.0,0.0,0.0,0.0,0.0,0.0,0.0,0.0,0.0,0.0,0.0,0.0,0.0,0.0,0.0,0.0,0.0,0.0,0.0,0.0,0.0,0.0,0.0,0.0,0.0,0.0,0.0,0.0,0.0,0.0,0.0,0.0,0.0,0.0,0.0,0.0,0.0,0.0,0.0,0.0,0.0,0.0,0.0,0.0,0.0,0.0,0.0,0.0,0.0,0.0,0.0,0.0,0.0,0.0,0.0,0.0,0.0,0.0,0.0,0.0,0.0,0.0,-1.8151,-2.0427,-2.3088,-2.3841,-2.419,-2.4171,-2.2444,-2.0037,-1.705,0.0,0.0,0.0,0.0,0.0,0.0,0.0,0.0,0.0,0.0,0.0,0.0,0.0,0.0,0.0,0.0,0.0,0.0,0.0,0.0,0.0,0.0,0.0,0.0,0.0,0.0,0.0,0.0,0.0,0.0,0.0,0.0,0.0,0.0,0.0,0.0,0.0,0.0,-0.9701,-1.0999,0.0,0.0,0.0,0.0,0.0,0.0,0.0,0.0,-1.1051,0.0,0.0,0.0,0.0,0.0,0.0,0.0,0.0,0.0,0.0,0.0,0.0,0.0,0.0,0.0,0.0,0.0,0.0,0.0,0.0,0.0,0.0,0.0,0.0,0.0,0.0,0.0,0.0,0.0,0.0,0.0,0.0,0.0,0.0,0.0,0.0,0.0,0.0,0.0,0.0,0.0,0.0,0.0,0.0,0.0,0.0,0.0,0.0,0.0,0.0,0.0,0.0,0.0,0.0,0.0,0.0,-1.8629,-1.8427,-2.0152,-2.3896,-2.4135,-2.419,-2.4153,-2.2608,-2.0208,-1.7047,0.0,0.0,0.0,0.0,0.0,0.0,0.0,0.0,0.0,0.0,0.0,0.0,0.0,0.0,0.0,0.0,0.0,0.0,0.0,0.0,0.0,0.0,0.0,0.0,0.0,0.0,0.0,0.0,0.0,0.0,0.0,0.0,0.0,0.0,0.0,0.0,0.0,0.0,0.0,-1.3978,-1.458,0.0,0.0,0.0,0.0,0.0,0.0,0.0,0.0,-1.1477,0.0,0.0,0.0,0.0,0.0,0.0,0.0,0.0,0.0,0.0,0.0,0.0,0.0,0.0,0.0,0.0,0.0,0.0,0.0,0.0,0.0,0.0,0.0,0.0,0.0,0.0,0.0,0.0,0.0,0.0,0.0,0.0,0.0,0.0,0.0,0.0,0.0,0.0,0.0,0.0,0.0,0.0,0.0,0.0,0.0,0.0,0.0,0.0,0.0,0.0,0.0,0.0,0.0,0.0,0.0,-1.7913,-1.9344,-2.1363,-2.408,-2.419,-2.419,-2.4153,-2.1803,-1.9361,0.0,0.0,0.0,0.0,0.0,0.0,0.0,0.0,0.0,0.0,0.0,0.0,0.0,0.0,0.0,0.0,0.0,0.0,0.0,0.0,0.0,0.0,0.0,0.0,0.0,0.0,0.0,0.0,0.0,0.0,0.0,0.0,0.0,0.0,0.0,0.0,0.0,0.0,0.0,0.0,-1.4664,-1.5368,-1.5811,0.0,0.0,0.0,0.0,0.0,0.0,-1.3468,-1.2737,0.0,0.0,0.0,0.0,0.0,0.0,0.0,0.0,0.0,0.0,0.0,0.0,0.0,0.0,0.0,0.0,0.0,0.0,0.0,0.0,0.0,0.0,0.0,0.0,0.0,0.0,0.0,0.0,0.0,0.0,0.0,0.0,0.0,0.0,0.0,0.0,0.0,0.0,0.0,0.0,0.0,0.0,0.0,0.0,0.0,0.0,0.0,0.0,0.0,0.0,0.0,0.0,0.0,0.0,0.0,-1.6927,-1.9803,-2.2226,-2.408,-2.419,-2.419,-2.4153,-2.133,-1.8878,0.0,0.0,0.0,0.0,0.0,0.0,0.0,0.0,0.0,0.0,0.0,0.0,0.0,0.0,0.0,0.0,0.0,0.0,0.0,0.0,0.0,0.0,0.0,0.0,0.0,0.0,0.0,0.0,0.0,0.0,0.0,0.0,0.0,0.0,0.0,0.0,0.0,0.0,0.0,0.0,0.0,-1.6599,-1.6946,-1.6401,0.0,0.0,0.0,0.0,-1.6055,-1.5542,0.0,0.0,0.0,0.0,0.0,0.0,0.0,0.0,0.0,0.0,0.0,0.0,0.0,0.0,0.0,0.0,0.0,0.0,0.0,0.0,0.0,0.0,0.0,0.0,0.0,0.0,0.0,0.0,0.0,0.0,0.0,0.0,0.0,0.0,0.0,0.0,0.0,0.0,0.0,0.0,0.0,0.0,0.0,0.0,0.0,0.0,0.0,0.0,0.0,0.0,0.0,0.0,0.0,0.0,0.0,0.0,-1.6835,-1.8665,-2.1105,-2.4006,-2.419,-2.419,-2.4171,-2.2462,-2.0064,0.0,0.0,0.0,0.0,0.0,0.0,0.0,0.0,0.0,0.0,0.0,0.0,0.0,0.0,0.0,0.0,0.0,0.0,0.0,0.0,0.0,0.0,0.0,0.0,0.0,0.0,0.0,0.0,0.0,0.0,0.0,0.0,0.0,0.0,0.0,0.0,0.0,0.0,0.0,0.0,0.0,-2.0254,-1.89,-1.8631,-1.8785,0.0,0.0,-1.783,-1.9458,-1.9037,0.0,0.0,0.0,0.0,0.0,0.0,0.0,0.0,0.0,0.0,0.0,0.0,0.0,0.0,0.0,0.0,0.0,0.0,0.0,0.0,0.0,0.0,0.0,0.0,0.0,0.0,0.0,0.0,0.0,0.0,0.0,0.0,0.0,0.0,0.0,0.0,0.0,0.0,0.0,0.0,0.0,0.0,0.0,0.0,0.0,0.0,0.0,0.0,0.0,0.0,0.0,0.0,0.0,0.0,0.0,-1.4591,-1.689,-1.9418,-2.1858,-2.4098,-2.419,-2.419,-2.419,-2.1734,-1.929,0.0,0.0,0.0,0.0,0.0,0.0,0.0,0.0,0.0,0.0,0.0,0.0,0.0,0.0,0.0,0.0,0.0,0.0,0.0,0.0,0.0,0.0,0.0,0.0,0.0,0.0,0.0,0.0,0.0,0.0,0.0,0.0,0.0,0.0,0.0,0.0,0.0,0.0,0.0,0.0,0.0,0.0,-2.1045,-2.0746,0.0,0.0,0.0,-2.01,-2.0869,0.0,0.0,0.0,0.0,0.0,0.0,0.0,0.0,0.0,0.0,0.0,0.0,0.0,0.0,0.0,0.0,0.0,0.0,0.0,0.0,0.0,0.0,0.0,0.0,0.0,0.0,0.0,0.0,0.0,0.0,0.0,0.0,0.0,0.0,0.0,0.0,0.0,0.0,0.0,0.0,0.0,0.0,0.0,0.0,0.0,0.0,0.0,0.0,0.0,0.0,0.0,0.0,0.0,0.0,0.0,0.0,0.0,-1.6927,-2.0131,-2.2574,-2.4135,-2.419,-2.419,-2.4153,-2.1425,0.0,0.0,0.0,0.0,0.0,0.0,0.0,0.0,0.0,0.0,0.0,0.0,0.0,0.0,0.0,0.0,0.0,0.0,0.0,0.0,0.0,0.0,0.0,0.0,0.0,0.0,0.0,-0.6224,0.0,0.0,0.0,0.0,0.0,0.0,0.0,0.0,0.0,0.0,0.0,0.0,0.0,0.0,-2.0639,-2.2544,-2.2419,-2.2216,0.0,0.0,-2.2216,-2.2427,-2.1966,-2.0797,0.0,0.0,0.0,0.0,0.0,0.0,0.0,0.0,0.0,0.0,0.0,0.0,0.0,0.0,0.0,0.0,0.0,0.0,0.0,0.0,0.0,0.0,0.0,0.0,0.0,0.0,0.0,0.0,0.0,0.0,0.0,0.0,0.0,0.0,0.0,0.0,0.0,0.0,0.0,0.0,0.0,0.0,0.0,0.0,0.0,0.0,0.0,0.0,0.0,0.0,0.0,0.0,0.0,0.0,0.0,-1.6927,-2.0123,-2.2572,-2.4116,-2.419,-2.419,-2.4171,-2.2539,-2.0155,0.0,0.0,0.0,0.0,0.0,0.0,0.0,0.0,0.0,0.0,0.0,0.0,0.0,0.0,0.0,0.0,0.0,0.0,0.0,0.0,0.0,0.0,0.0,0.0,0.0,0.0,0.0,0.0,0.0,0.0,0.0,0.0,0.0,0.0,0.0,0.0,0.0,0.0,0.0,0.0,0.0,-2.259,-2.2791,-2.3437,-2.4178,0.0,0.0,-2.4206,-2.5005,-2.5063,-2.3698,-1.9745,0.0,0.0,0.0,0.0,0.0,0.0,0.0,0.0,0.0,0.0,0.0,0.0,0.0,0.0,0.0,0.0,0.0,0.0,0.0,0.0,0.0,0.0,0.0,0.0,0.0,0.0,0.0,0.0,0.0,0.0,0.0,0.0,0.0,0.0,0.0,0.0,0.0,0.0,0.0,0.0,0.0,0.0,0.0,0.0,0.0,0.0,0.0,0.0,0.0,0.0,0.0,0.0,0.0,-1.5295,-1.6908,-2.0123,-2.2572,-2.4135,-2.419,-2.419,-2.419,-2.27,-2.0633,0.0,0.0,0.0,0.0,0.0,0.0,0.0,0.0,0.0,0.0,0.0,0.0,0.0,0.0,0.0,0.0,0.0,0.0,0.0,0.0,0.0,0.0,0.0,0.0,0.0,0.0,0.0,0.0,-0.8697,-0.9089,-0.9583,0.0,0.0,0.0,0.0,0.0,0.0,0.0,0.0,0.0,0.0,-2.3178,-2.4197,-2.462,0.0,0.0,-2.5101,-2.5024,-2.5409,-2.4582,-2.3207,-2.1139,-1.9913,0.0,0.0,0.0,0.0,0.0,0.0,0.0,0.0,0.0,0.0,0.0,0.0,0.0,0.0,0.0,0.0,0.0,0.0,0.0,0.0,0.0,0.0,0.0,0.0,0.0,0.0,0.0,0.0,0.0,0.0,0.0,0.0,0.0,0.0,0.0,0.0,0.0,0.0,0.0,0.0,0.0,0.0,0.0,0.0,0.0,0.0,0.0,0.0,0.0,0.0,0.0,0.0,-1.5316,-1.6908,-2.0147,-2.2592,-2.4171,-2.419,-2.419,-2.4172,-2.301,-2.1242,0.0,0.0,0.0,0.0,0.0,0.0,0.0,0.0,0.0,0.0,0.0,0.0,0.0,0.0,0.0,0.0,0.0,0.0,0.0,0.0,0.0,0.0,0.0,0.0,0.0,0.0,0.0,0.0,-0.9299,-0.9498,-1.0037,0.0,0.0,0.0,0.0,0.0,0.0,0.0,0.0,0.0,0.0,-2.3697,-2.5091,-2.5332,-2.5351,-2.539,-2.5416,-2.5453,-2.5515,-2.4515,-2.3392,-2.2352,0.0,0.0,0.0,0.0,0.0,0.0,0.0,0.0,0.0,0.0,0.0,0.0,0.0,0.0,0.0,0.0,0.0,0.0,0.0,0.0,0.0,0.0,0.0,0.0,0.0,0.0,0.0,-0.9735,0.0,0.0,-0.9698,0.0,0.0,0.0,0.0,0.0,0.0,0.0,0.0,0.0,0.0,0.0,0.0,0.0,0.0,0.0,0.0,0.0,0.0,0.0,0.0,0.0,0.0,-1.5362,-1.6908,-2.0177,-2.2575,-2.4135,-2.419,-2.419,-2.419,-2.3584,-2.2122,-1.9694,0.0,0.0,0.0,0.0,0.0,0.0,0.0,0.0,0.0,0.0,0.0,0.0,0.0,0.0,0.0,0.0,0.0,0.0,0.0,0.0,0.0,0.0,0.0,0.0,0.0,0.0,-1.0144,-1.0156,-1.0152,0.0,0.0,0.0,0.0,0.0,0.0,0.0,0.0,0.0,0.0,-2.2964,-2.4379,-2.5197,-2.537,-2.5447,-2.5457,-2.5498,-2.555,-2.5639,-2.5511,-2.492,0.0,0.0,0.0,0.0,0.0,0.0,0.0,0.0,0.0,0.0,0.0,0.0,0.0,0.0,0.0,0.0,0.0,0.0,0.0,0.0,0.0,0.0,0.0,0.0,0.0,0.0,0.0,-1.2924,-1.2105,0.0,0.0,0.0,0.0,0.0,0.0,0.0,0.0,0.0,0.0,0.0,-1.6018,-1.7219,0.0,0.0,0.0,0.0,0.0,0.0,0.0,0.0,0.0,0.0,0.0,0.0,-1.6156,-1.7898,-2.0984,-2.3125,-2.4153,-2.419,-2.4266,-2.4374,-2.3782,-2.2115,-1.9326,0.0,0.0,0.0,0.0,0.0,0.0,0.0,0.0,0.0,0.0,0.0,0.0,0.0,0.0,0.0,0.0,0.0,0.0,0.0,0.0,0.0,0.0,0.0,0.0,0.0,-1.0186,0.0,0.0,0.0,0.0,0.0,0.0,0.0,0.0,0.0,0.0,0.0,-2.1957,-2.308,-2.4707,-2.5851,-2.614,-2.6207,-2.6495,0.0,0.0,0.0,0.0,0.0,0.0,0.0,0.0,0.0,0.0,0.0,0.0,0.0,0.0,-2.3314,-1.876,-1.6825,-1.6234,-1.7277,0.0,0.0,0.0,0.0,0.0,0.0,0.0,0.0,0.0,0.0,0.0,0.0,0.0,0.0,-1.526,0.0,-1.4436,0.0,0.0,0.0,0.0,0.0,0.0,0.0,0.0,-1.754,-1.8526,-1.8302,-1.9519,-1.9435,0.0,-1.8528,-1.6893,0.0,0.0,0.0,0.0,0.0,0.0,0.0,0.0,-1.6985,-1.868,-2.1533,-2.3382,-2.4172,-2.419,-2.4303,-2.4476,-2.3904,-2.2576,-2.0389,-1.9485,-1.7843,0.0,0.0,0.0,0.0,0.0,0.0,0.0,0.0,0.0,0.0,0.0,0.0,0.0,0.0,0.0,0.0,0.0,0.0,0.0,0.0,0.0,0.0,0.0,-1.0643,0.0,0.0,0.0,0.0,0.0,0.0,0.0,0.0,0.0,-2.237,-2.3216,-2.4215,-2.5726,-2.6602,-2.7199,-2.7536,0.0,0.0,0.0,0.0,0.0,0.0,0.0,-2.6797,-2.7363,-2.6523,-2.5817,-2.6061,-2.6829,-2.7312,-2.6929,0.0,0.0,-2.195,-2.0499,-2.0204,-2.0935,-2.1321,-2.1524,-2.1712,-2.2565,-2.3125,0.0,0.0,0.0,0.0,0.0,0.0,0.0,0.0,-1.6606,-1.6761,0.0,-1.6639,0.0,0.0,0.0,0.0,0.0,-1.6765,0.0,0.0,-2.0921,-2.1921,-2.1295,-2.1921,-2.1904,-2.1278,-2.187,-2.0737,-1.7935,-1.6149,0.0,0.0,0.0,0.0,0.0,0.0,-1.7844,-1.943,-2.1801,-2.3419,-2.419,-2.4209,-2.4303,-2.451,-2.4088,-2.3531,-2.2831,-2.1987,-2.0403,-1.7927,-1.6215,0.0,0.0,0.0,0.0,0.0,0.0,0.0,0.0,0.0,0.0,0.0,0.0,0.0,0.0,0.0,0.0,0.0,0.0,0.0,0.0,-1.1769,0.0,0.0,0.0,0.0,0.0,0.0,0.0,0.0,0.0,0.0,-2.6775,-2.6188,-2.6419,-2.8905,0.0,0.0,0.0,0.0,-2.8357,-2.8435,-2.8446,-2.8496,-2.8476,-2.8457,-2.8457,-2.8457,0.0,0.0,-2.7246,-2.7773,-2.8076,-2.7122,-2.7711,-2.7977,-2.7253,-2.5274,-2.455,-2.6284,-2.516,-2.4595,-2.617,-2.6359,-2.6414,-1.9181,0.0,0.0,0.0,0.0,-1.7582,-1.8735,-2.0097,-2.0114,-1.9629,-1.8804,-1.8728,0.0,0.0,0.0,0.0,0.0,0.0,-1.9335,-2.0332,-2.1697,-2.2479,-2.2733,-2.2446,-2.2192,-2.2006,-2.2226,-2.1938,-2.1274,-2.0418,-1.7968,-1.4088,0.0,0.0,0.0,0.0,-2.0039,-2.1182,-2.294,-2.4045,-2.4392,-2.4396,-2.4565,-2.4858,-2.4877,-2.4502,-2.3764,-2.3486,-2.2439,-2.0504,-1.8804,0.0,0.0,0.0,0.0,0.0,0.0,0.0,0.0,0.0,0.0,0.0,0.0,0.0,0.0,0.0,0.0,0.0,0.0,0.0,-1.2617,-1.3063,-1.3588,0.0,0.0,0.0,0.0,0.0,0.0,0.0,0.0,0.0,-3.0056,-2.9718,-2.919,0.0,0.0,-3.0651,-3.0367,-3.0707,-3.1196,-3.1761,-3.1895,0.0,-3.1426,-3.1211,-3.1152,-3.1328,-3.164,-3.1563,-3.0702,-3.0698,-3.0529,-2.9592,-2.9635,-2.9733,-2.9398,-2.773,-2.6581,-2.6995,-2.7152,-2.7282,-2.7492,-2.7405,-2.7249,-2.2254,-1.9798,-1.9638,-1.9773,-2.0069,-2.0636,-2.1673,-2.2955,-2.2937,-2.2571,-2.1942,-2.1801,-2.0627,-1.8752,-1.8319,0.0,0.0,0.0,-2.1413,-2.2506,-2.2959,-2.3401,-2.3782,-2.3376,-2.3185,-2.3163,-2.3168,-2.3265,-2.3403,-2.3397,-2.1238,-1.7152,0.0,0.0,-1.7803,-1.9902,-2.146,-2.233,-2.3548,-2.4303,-2.4495,-2.4628,-2.4784,-2.4991,-2.5203,-2.5063,-2.4601,-2.4582,-2.3947,-2.2581,-2.0908,-1.915,0.0,0.0,0.0,0.0,0.0,0.0,0.0,0.0,0.0,0.0,0.0,-0.9255,-0.8778,0.0,0.0,0.0,-1.3724,-1.5801,-1.5469,-1.6191,0.0,0.0,0.0,0.0,0.0,0.0,0.0,-2.6074,-2.7885,-2.9788,-3.1895,-3.224,-3.2089,-3.1532,-3.2029,-3.2402,-3.2287,0.0,-3.2804,-3.3264,-3.337,-3.3223,-3.2695,-3.2656,-3.273,-3.2849,-3.3093,-3.3102,-3.2526,-3.2365,-3.2134,-3.1621,-3.1468,-3.1237,-3.0525,-2.9306,-2.8449,-2.8483,-2.8933,-2.9221,-2.8948,-2.8453,-2.8003,-2.4692,-2.4574,-2.3207,-2.297,-2.3502,-2.3823,-2.4321,-2.4965,-2.4944,-2.5136,-2.5393,-2.5094,-2.4267,-2.3047,-2.2091,0.0,-2.2782,-2.3328,-2.3921,-2.458,-2.4578,-2.4601,-2.4608,-2.454,-2.4486,-2.4505,-2.4503,-2.4516,-2.4564,-2.5162,-2.4388,-2.2265,-2.1402,-2.0868,-2.0658,-2.1512,-2.2335,-2.3088,-2.3823,-2.4303,-2.4522,-2.4826,-2.4991,-2.5022,-2.5203,-2.5313,-2.5293,-2.5236,-2.4851,-2.4091,-2.2447,-2.1196,-2.0408,0.0,0.0,0.0,0.0,0.0,0.0,0.0,0.0,0.0,0.0,0.0,0.0,0.0,0.0,0.0,-1.6816,0.0,-1.959,-2.0293,0.0,0.0,0.0,-2.3066,-2.4727,-2.6387,-2.7519,-2.7793,0.0,0.0,-3.2838,-3.3994,-3.4783,-3.472,-3.4008,-3.3794,-3.4587,-3.4043,-3.3613,-3.3711,-3.3633,-3.3457,-3.3203,-3.3418,-3.3672,-3.3627,-3.3498,-3.3473,-3.3192,-3.3096,-3.3077,-3.2814,-3.2891,-3.2487,-3.0948,-3.0686,-3.0609,-3.0648,-3.0475,-3.0359,-3.0244,-2.9532,-2.8802,-2.6167,-2.6133,-2.5795,-2.5101,-2.4252,-2.4317,-2.4466,-2.4615,-2.4625,-2.4671,-2.4731,-2.4624,-2.4438,-2.4137,-2.3883,-2.3862,-2.4069,-2.4764,-2.5171,-2.5313,-2.5343,-2.5338,-2.5321,-2.4763,-2.4506,-2.4503,-2.4506,-2.4641,-2.4977,-2.5341,-2.5374,-2.512,-2.5141,-2.3916,-2.1621,-2.2902,-2.373,-2.3914,-2.4098,-2.4381,-2.4717,-2.4908,-2.5077,-2.5224,-2.5274,-2.5313,-2.5293,-2.4716,-2.4312,-2.4052,-2.2496,-2.1784,-2.212,-1.7433,0.0,0.0,0.0,0.0,0.0,0.0,0.0,0.0,0.0,-1.5039,-1.248,0.0,-1.5954,0.0,-1.8926,-2.3613,-2.1504,-2.2012,0.0,0.0,-2.6367,-2.7461,-2.916,-3.0312,-3.1055,-3.1328,-3.2988,-3.4375,-3.5095,-3.5487,-3.5682,-3.5664,-3.5488,-3.5201,-3.4805,-3.5137,-3.5391,-3.5351,-3.5312,-3.5332,-3.5156,-3.5293,-3.5318,-3.5302,-3.5166,-3.4878,-3.4122,-3.3949,-3.3699,-3.3064,-3.2891,-3.2872,-3.2949,-3.2622,-3.2506,-3.2756,-3.1628,-3.0398,-3.0379,-2.9913,-2.9479,-2.7723,-2.7706,-2.7706,-2.7267,-2.6454,-2.5761,-2.5505,-2.5473,-2.5497,-2.5496,-2.5456,-2.5456,-2.5478,-2.5464,-2.551,-2.5475,-2.5511,-2.5913,-2.6163,-2.6343,-2.618,-2.6179,-2.6339,-2.5756,-2.5505,-2.5505,-2.5678,-2.585,-2.6096,-2.6552,-2.6738,-2.6588,-2.6959,-2.6075,-2.4055,-2.4823,-2.5254,-2.5273,-2.5003,-2.4839,-2.4815,-2.4934,-2.5118,-2.5284,-2.5313,-2.5313,-2.5313,-2.4532,-2.4118,-2.4052,-2.2485,-2.1968,-2.2765,-1.913,-1.5914,0.0,0.0,0.0,0.0,0.0,0.0,0.0,0.0,0.0,0.0,0.0,-1.918,-1.582,-2.3105,-2.7285,-2.5488,-2.6445,-2.7871,-2.9668,-3.0293,-3.1094,-3.2441,-3.3359,-3.416,-3.4785,-3.5781,-3.6719,-3.7422,-3.7305,-3.6992,-3.6641,-3.6562,-3.6269,-3.5508,-3.5703,-3.6016,-3.6016,-3.6016,-3.6016,-3.6016,-3.5919,-3.5852,-3.5824,-3.5726,-3.5468,-3.493,-3.4795,-3.4622,-3.416,-3.4064,-3.416,-3.4474,-3.4314,-3.4083,-3.3718,-3.3237,-3.2301,-3.1205,-3.0289,-2.9696,-2.9011,-2.9011,-2.9011,-2.9011,-2.8926,-2.7554,-2.6996,-2.6996,-2.6979,-2.6979,-2.6996,-2.6996,-2.6979,-2.7012,-2.6996,-2.6996,-2.6996,-2.6996,-2.7178,-2.7508,-2.7211,-2.7194,-2.7428,-2.7076,-2.6927,-2.6877,-2.7132,-2.7355,-2.7457,-2.8102,-2.8084,-2.7467,-2.7791,-2.7606,-2.6954,-2.6911,-2.6814,-2.6594,-2.6078,-2.5533,-2.4974,-2.505,-2.5191,-2.5293,-2.5313,-2.5313,-2.5293,-2.4523,-2.4109,-2.4052,-2.2543,-2.1987,-2.258,-2.045,-1.9019,0.0,-1.7472,0.0,0.0,0.0,0.0,0.0,0.0,0.0,0.0,-2.0684,-2.166,-2.2637,-2.7891,-3.0879,-3.0019,-3.1406,-3.2676,-3.3457,-3.3672,-3.4082,-3.4941,-3.5801,-3.6738,-3.7793,-3.832,-3.8789,-3.9219,-3.8945,-3.8281,-3.7617,-3.7461,-3.7207,-3.6504,-3.6172,-3.6016,-3.6016,-3.6016,-3.5996,-3.5976,-3.5821,-3.5712,-3.5678,-3.5654,-3.5584,-3.5468,-3.5468,-3.5468,-3.5449,-3.5372,-3.543,-3.5507,-3.5468,-3.5141,-3.4295,-3.4686,-3.4436,-3.2327,-3.0807,-2.9902,-2.9011,-2.9011,-2.9011,-2.9011,-2.8994,-2.867,-2.8588,-2.8552,-2.8552,-2.8556,-2.8558,-2.8572,-2.8566,-2.8561,-2.8549,-2.8571,-2.8552,-2.8552,-2.8606,-2.8679,-2.8939,-2.8745,-2.8207,-2.8157,-2.7975,-2.7656,-2.742,-2.7617,-2.8185,-2.8327,-2.8504,-2.8658,-2.874,-2.8695,-2.8544,0.0,0.0,0.0,-2.6489,-2.621,-2.5777,-2.5796,-2.5646,-2.5312,-2.5313,0.0,-2.5264,-2.4543,-2.4101,-2.4072,-2.3157,0.0,0.0,0.0,0.0,0.0,0.0,0.0,0.0,0.0,0.0,0.0,-2.3691,-2.3574,-2.2598,-2.3848,-2.5391,-2.7031,-3.0644,-3.2598,-3.1816,-3.2578,-3.3516,-3.4355,-3.5098,-3.5859,-3.6719,-3.7578,-3.8379,-3.8984,-3.8809,-3.8828,-3.9316,-3.8926,-3.8555,-3.8398,-3.8359,-3.8301,-3.8105,-3.6894,-3.6074,-3.6016,-3.6035,-3.5976,-3.5941,-3.581,-3.5655,-3.5644,-3.5612,-3.5565,-3.5526,-3.5507,-3.5507,-3.5507,-3.5507,-3.5507,-3.5507,-3.5507,-3.543,-3.5185,-3.5353,-3.4856,-3.2779,-3.1509,-3.0696,-3.0074,0.0,-3.0074,-3.0074,0.0,-3.0074,-3.0112,-3.004,-2.9311,-2.8996,-2.9011,-2.8975,-2.9006,-2.8996,-2.9191,-2.9299,-2.9316,-2.9523,-2.9741,-2.9937,-2.9934,-2.9841,-2.9632,-2.947,-2.9082,-2.8491,-2.8458,-2.8407,-2.8424,-2.8609,-2.8797,-2.8975,-2.8975,-2.8975,-2.8975,-2.8975,-2.8384,-2.7185,-2.729,-2.7103,-2.661,-2.6298,-2.6092,-2.5927,-2.5514,0.0,0.0,0.0,0.0,0.0,0.0,0.0,0.0,0.0,0.0,-2.5111,-2.3371,-2.2458,-2.2945,-2.3827,-2.4922,-2.623,-2.7519,-2.7734,-2.6445,-2.6738,-2.7891,-3.0078,-3.293,-3.4336,-3.3574,-3.457,-3.5508,-3.5976,-3.6758,-3.748,-3.793,-3.8711,-3.9336,-3.9609,-3.9805,-4.0,-4.0254,-4.0078,-3.9687,-3.9316,-3.9238,-3.9101,-3.8633,-3.7851,-3.7168,-3.6699,-3.623,-3.5976,-3.5902,-3.5718,-3.5622,-3.5584,-3.5565,-3.5545,-3.5507,-3.5507,-3.5507,-3.5507,-3.5507,-3.5507,-3.5507,-3.5507,-3.5507,-3.5507,-3.5507,-3.5124,-3.3745,-3.222,-3.1073,-3.119,-3.119,-3.119,-3.119,-3.119,-3.119,-3.1257,-3.1198,0.0,0.0,0.0,-2.9377,-2.9414,-2.9519,-2.9851,-3.0039,-3.0105,-3.0511,-3.0891,-3.1171,-3.0933,-3.0901,-3.1074,-3.0776,-3.0238,-2.9561,-2.9719,-2.9424,-2.8769,-2.9049,-2.9122,-2.8994,-2.8975,-2.8975,-2.8975,-2.8975,-2.8677,-2.8041,-2.8165,-2.7961,-2.7439,-2.694,-2.6727,-2.6832,-2.5986,-2.5524,-2.5514,-2.4745,-2.4389,-2.4504,-2.3861,-2.3485,-2.3562,-2.4312,-2.5101,-2.589,-2.6602,-2.7046,-2.7056,-2.796,-2.8666,-2.8965,-3.0293,-3.0762,-2.9902,-2.9453,-3.0156,-3.2461,-3.4687,-3.5762,-3.5234,-3.6406,-3.7363,-3.7519,-3.8301,-3.8828,-3.8887,-3.959,-4.0137,-4.0195,-4.0723,-4.1191,-4.1133,-4.1133,-4.0957,-4.0312,-4.0137,-3.9922,-3.9199,-3.875,-3.8223,-3.7617,-3.6719,-3.6063,-3.6253,-3.5815,-3.5641,-3.5815,-3.568,-3.5507,-3.5507,-3.5507,-3.5507,-3.5507,-3.5507,-3.5507,-3.5507,-3.5507,-3.5507,-3.5507,-3.5493,-3.5339,-3.468,-3.2978,-3.1657,-3.1207,-3.119,-3.119,-3.119,-3.119,-3.119,-3.1411,-3.1655,-3.1103,-3.0898,-3.092,-3.0886,-3.1066,-3.1386,-3.1477,-3.1708,-3.2082,-3.2166,-3.2239,-3.2281,-3.2626,-3.2451,-3.1864,-3.1833,-3.1574,-3.1078,-3.0857,-3.0464,-3.0,-2.9995,-2.9696,-2.9108,-2.8975,-2.9017,-2.8975,-2.8975,-2.8938,-2.8847,-2.8856,-2.867,-2.8243,-2.8135,-2.7985,-2.7706,-2.6872,-2.64,-2.6399,-2.5591,-2.5476,-2.6196,-2.613,-2.6159,-2.6428,-2.6967,-2.767,-2.8296,-2.8027,-2.7893,-2.8,-2.8829,-2.9991,-3.1484,-3.1875,-3.1641,-3.084,-3.1934,-3.3144,-3.4277,-3.541,-3.6269,-3.6836,-3.7168,-3.7695,-3.8359,-3.918,-3.9707,-3.9726,-4.0449,-4.0957,-4.0957,-4.1113,-4.1191,-4.1191,-4.1191,-4.1152,-4.1016,-4.0879,-4.0898,-4.0527,-3.9531,-3.8652,-3.8242,-3.7031,-3.668,-3.7332,-3.6526,-3.6142,-3.6469,-3.6007,-3.5603,-3.5603,-3.5526,-3.5507,-3.5507,-3.5507,-3.5507,-3.5507,-3.5507,-3.5507,-3.5507,-3.5507,-3.532,-3.4813,-3.3694,-3.2874,-3.2391,-3.2391,-3.2391,-3.2154,-3.1782,-3.1782,-3.1808,-3.1905,-3.2106,-3.1939,-3.1545,-3.1545,-3.1623,-3.1825,-3.2315,-3.2681,-3.289,-3.3105,-3.3202,-3.3219,-3.3444,-3.332,-3.3027,-3.3002,-3.2684,-3.2074,-3.1889,-3.1477,-3.0901,-3.0858,-3.0662,-3.0291,-2.9863,-2.9448,-2.9035,-2.8975,-2.8975,-2.8975,-2.9156,-2.9175,-2.9106,-2.8791,-2.8602,-2.8525,-2.7747,-2.7295,-2.7305,-2.6919,-2.6909,-2.7283,-2.7313,-2.7505,-2.7879,-2.7909,-2.8209,-2.8846,-2.8816,-2.8803,-2.8898,-3.0186,-3.149,-3.2754,-3.3301,-3.3398,-3.3008,-3.3203,-3.3965,-3.5293,-3.6601,-3.7363,-3.7363,-3.8144,-3.8867,-3.9238,-4.0078,-4.0586,-4.0644,-4.0918,-4.1191,-4.1191,-4.1191,-4.1191,-4.1191,-4.1191,-4.1191,-4.1191,-4.1191,-4.1191,-4.1191,-4.0547,-3.9824,-3.9375,-3.9004,-3.8633,-3.8434,-3.8396,-3.8007,-3.7565,-3.6713,-3.6219,-3.6103,-3.5872,-3.5545,-3.5507,-3.5507,-3.5507,-3.5507,-3.5507,-3.5507,-3.5507,-3.5507,-3.5289,-3.4775,-3.4127,-3.3282,-3.3389,-3.3389,-3.3389,-3.3151,-3.2747,-3.2815,-3.2791,-3.2781,-3.3352,-3.3211,-3.2651,-3.2196,-3.2022,-3.2196,-3.2872,-3.3243,-3.3361,-3.3652,-3.3807,-3.3807,-3.3807,-3.3807,-3.3807,-3.3807,-3.3476,-3.2926,-3.2871,-3.2467,-3.1758,-3.1659,-3.1569,-3.1357,-3.0788,-3.0147,-2.9567,-2.9549,-2.9531,-2.9545,-2.9595,-2.9622,-2.9677,-2.9235,-2.9121,-2.9302,-2.8582,-2.817,-2.8182,-2.8016,-2.7975,-2.8148,-2.8179,-2.8448,-2.8994,-2.8698,-2.8709,-2.9242,-2.9536,-2.983,-3.0152,-3.1574,-3.2832,-3.3633,-3.4297,-3.4785,-3.4922,-3.4394,-3.4609,-3.6172,-3.7656,-3.8359,-3.8184,-3.9043,-3.9961,-4.0195,-4.0762,-4.1133,-4.1191,-4.1191,-4.1191,-4.1191,-4.1191,-4.1191,-4.1191,-4.1191,-4.1191,-4.1191,-4.1191,-4.1191,-4.1191,-4.1191,-4.0879,-4.0566,-4.0781,-4.0508,-3.9174,-3.9646,-3.9681,-3.8469,-3.7579,-3.7002,-3.668,-3.6142,-3.5705,-3.5603,-3.5507,-3.5507,-3.5507,-3.5507,-3.5507,-3.5507,-3.5507,-3.532,-3.4793,-3.4218,-3.3401,-3.3443,-3.3381,-3.3457,-3.3639,-3.4047,-3.4386,-3.4746,-3.5154,-3.5341,-3.5339,-3.4968,-3.3288,-3.2716,-3.3045,-3.3154,-3.339,-3.3707,-3.3762,-3.3807,-3.3807,-3.3807,-3.3807,-3.3807,-3.3807,-3.377,-3.3678,-3.366,-3.3246,-3.2518,-3.2485,-3.2118,-3.1483,-3.1341,-3.1249,-3.1146,-3.1127,-3.1146,-3.114,-3.047,-2.9993,-2.9716,-2.9638,-2.9848,-3.0263,-2.9433,-2.8998,-2.8972,-2.8284,-2.8245,-2.8902,-2.8975,-2.9371,-3.0102,-3.0167,-3.0237,-3.0429,-3.0532,-3.0959,-3.1894,-3.2773,-3.3672,-3.4473,-3.4668,-3.5078,-3.5781,-3.5781,-3.6133,-3.7187,-3.8086,-3.8945,-3.9551,-3.9844,-4.0273,-4.0879,-4.1094,-4.1191,-4.1191,-4.1191,-4.1191,-4.1191,-4.1191,-4.1191,-4.1191,-4.1191,-4.1191,-4.1191,-4.1191,-4.1191,-4.1191,-4.1191,-4.1191,-4.1074,-4.1191,-4.1016,-4.052,-4.045,-4.0158,-3.9277,-3.845,-3.7738,-3.7161,-3.6738,-3.6411,-3.5834,-3.5507,-3.5507,-3.5507,-3.5507,-3.5507,-3.5474,-3.5446,-3.5304,-3.4793,-3.4208,-3.3456,-3.4728,-3.4665,-3.4709,-3.4745,-3.4882,-3.5022,-3.5295,-3.5605,-3.6077,-3.6159,-3.5939,-3.5115,-3.4449,-3.39,-3.3655,-3.3652,-3.3788,-3.3807,-3.3807,-3.3807,-3.3807,-3.3807,-3.3807,-3.3807,-3.3807,-3.3807,-3.3807,-3.3623,-3.3374,-3.3311,-3.29,-3.2188,-3.2129,-3.1865,-3.1433,-3.1407,-3.1415,-3.1415,-3.1238,-3.115,-3.1054,-3.0204,-2.9931,-3.0304,-3.0059,-2.9867,-2.9848,-2.9529,-2.9529,-2.9829,-2.986,-3.0025,-3.0359,-3.0398,-3.0679,-3.1322,-3.1972,-3.2697,-3.3613,-3.3984,-3.4551,-3.541,-3.5469,-3.584,-3.6621,-3.6309,-3.6738,-3.8594,-3.9629,-4.0117,-3.998,-4.0351,-4.084,-4.1133,-4.1191,-4.1191,-4.1191,-4.1191,-4.1191,-4.1191,-4.1191,-4.1191,-4.1191,-4.1191,-4.1191,-4.1191,-4.1191,-4.1191,-4.1191,-4.1191,-4.1191,-4.1191,-4.1191,-4.1094,-4.0859,-4.0698,-4.0438,-4.0008,-3.9335,-3.8565,-3.8238,-3.7219,-3.6565,-3.6257,-3.5815,-3.5526,-3.5507,-3.5507,-3.5507,-3.5446,-3.5138,-3.4889,-3.4486,-3.4087,-3.3658,-3.5639,-3.5639,-3.5639,-3.569,-3.5813,-3.5821,-3.606,-3.6472,-3.7007,-3.7148,-3.6964,-3.6725,-3.612,-3.5266,-3.4723,-3.4486,-3.4468,-3.4229,-3.4119,-3.4091,-3.3925,-3.3807,-3.3807,-3.3807,-3.3807,-3.3807,-3.3807,-3.3807,-3.3807,-3.3807,-3.3505,-3.2993,-3.2926,-3.2635,-3.2119,-3.2049,-3.2045,-3.2052,-3.2126,-3.2253,-3.2312,-3.1193,-3.0579,-3.072,-3.0513,-3.0398,-3.0398,-3.0398,-3.0398,-3.0398,-3.0609,-3.0775,-3.0725,-3.0533,-3.1174,-3.2818,-3.3461,-3.4023,-3.4668,-3.4922,-3.5332,-3.5937,-3.6191,-3.6621,-3.709,-3.6934,-3.7695,-3.9531,-4.0703,-4.0859,-4.0469,-4.082,-4.1172,-4.1191,-4.1191,-4.1191,-4.1191,-4.1191,-4.1191,-4.1191,-4.1191,-4.1191,-4.1191,-4.1191,-4.1191,-4.1191,-4.1191,-4.1191,-4.1191,-4.1191,-4.1191,-4.1191,-4.1191,-4.1113,-4.09,-4.0754,-4.0675,-4.0523,-3.995,-3.9546,-3.9354,-3.8007,-3.6892,-3.6699,-3.6026,-3.5565,-3.5507,-3.5507,-3.5446,-3.532,-3.5034,-3.4614,-3.4311,-3.3986,-3.3842,-3.5639,-3.5639,-3.5639,-3.6163,-3.7079,-3.7066,-3.7613,-3.8365,-3.8499,-3.8548,-3.8377,-3.7753,-3.7404,-3.7246,-3.6505,-3.6174,-3.6028,-3.5293,-3.4936,-3.487,-3.4246,-3.3844,-3.3807,-3.3807,-3.3825,-3.3899,-3.3825,-3.3807,-3.3807,-3.3807,-3.3788,-3.3733,-3.3678,-3.3715,-3.356,-3.3532,-3.366,-3.3511,-3.3147,-3.3088,-3.3268,-3.276,-3.2178,-3.1705,-3.0891,-3.0525,-3.0487,-3.0436,-3.0456,-3.0436,-3.1218,-3.1641,-3.1583,-3.0929,-3.2122,-3.5105,-3.5019,-3.4648,-3.4844,-3.5449,-3.5937,-3.6133,-3.6738,-3.7266,-3.7559,-3.7969,-3.875,-3.9844,-4.0742,-4.1133,-4.1074,-4.1113,-4.1191,-4.1191,-4.1191,-4.1191,-4.1191,-4.1191,-4.1191,-4.1191,-4.1191,-4.1191,-4.1191,-4.1191,-4.1191,-4.1191,-4.1191,-4.1191,-4.1191,-4.1191,-4.1191,-4.1191,-4.1191,-4.1172,-4.0996,-4.0857,-4.0726,-4.06,-4.0392,-4.0181,-3.9546,-3.8854,-3.7988,-3.7084,-3.6276,-3.5776,-3.5584,-3.5446,-3.5354,-3.519,-3.4944,-3.4593,-3.4265,-3.4012,-3.3895,-3.5639,-3.5622,-3.5985,-3.6551,-3.7185,-3.7509,-3.8032,-3.8658,-3.8707,-3.8707,-3.867,-3.8377,-3.8267,-3.8248,-3.7973,-3.7276,-3.6321,-3.5954,-3.5837,-3.5799,-3.5542,-3.5404,-3.5349,-3.4853,-3.4578,-3.4504,-3.4064,-3.3807,-3.3807,-3.3807,-3.3807,-3.3807,-3.3807,-3.3807,-3.3807,-3.3807,-3.3807,-3.3805,-3.3943,-3.4131,-3.416,-3.3824,-3.3511,-3.3276,-3.2454,-3.2004,-3.2004,-3.1999,-3.1987,-3.2006,-3.2314,-3.2468,-3.2506,-3.2827,-3.3874,-3.5684,-3.5703,-3.5527,-3.5566,-3.582,-3.6269,-3.6797,-3.7109,-3.7851,-3.8652,-3.8809,-3.918,-4.041,-4.0957,-4.1191,-4.1191,-4.1191,-4.1191,-4.1191,-4.1191,-4.1191,-4.1191,-4.1191,-4.1191,-4.1191,-4.1191,-4.1191,-4.1191,-4.1191,-4.1191,-4.1191,-4.1191,-4.1191,-4.1191,-4.1191,-4.1191,-4.1191,-4.1191,-4.1191,-4.1133,-4.0996,-4.0857,-4.0726,-4.0581,-4.0523,-4.0119,-3.9488,-3.8681,-3.7834,-3.6877,-3.6007,-3.5815,-3.5474,-3.5354,-3.4999,-3.4754,-3.4655,-3.4265,-3.4141,-3.4093,-3.5639,-3.5711,-3.6182,-3.6717,-3.723,-3.7702,-3.8234,-3.8676,-3.8707,-3.8707,-3.8707,-3.8707,-3.8707,-3.8707,-3.8707,-3.8175,-3.7092,-3.6817,-3.6691,-3.6684,-3.6434,-3.6292,-3.6208,-3.5705,-3.544,-3.5367,-3.489,-3.4486,-3.4211,-3.4192,-3.4045,-3.3807,-3.3807,-3.3807,-3.3807,-3.3807,-3.3807,-3.3921,-3.4375,-3.4698,-3.4693,-3.4647,-3.4622,-3.4545,-3.4032,-3.3429,-3.296,-3.2891,-3.2904,-3.2942,-3.3167,-3.343,-3.3776,-3.4457,-3.522,-3.5898,-3.6016,-3.6016,-3.6055,-3.625,-3.668,-3.7266,-3.7871,-3.8711,-3.9746,-3.9609,-4.0098,-4.0918,-4.1191,-4.1191,-4.1191,-4.1191,-4.1191,-4.1191,-4.1191,-4.1191,-4.1191,-4.1191,-4.1191,-4.1191,-4.1191,-4.1191,-4.1191,-4.1191,-4.1191,-4.1191,-4.1191,-4.1191,-4.1191,-4.1191,-4.1191,-4.1191,-4.1191,-4.1191,-4.1172,-4.1094,-4.1055,-4.0937,-4.0762,-4.0746,-4.0611,-4.0019,-3.9369,-3.8527,-3.757,-3.6589,-3.5949,-3.5603,-3.5254,-3.4908,-3.4851,-3.4813,-3.4593,-3.4401,-3.4334,-3.5622,-3.5739,-3.6182,-3.6777,-3.7291,-3.7789,-3.8216,-3.8676,-3.8707,-3.8707,-3.8707,-3.8707,-3.8707,-3.8707,-3.8707,-3.8634,-3.8395,-3.779,-3.7503,-3.7442,-3.6806,-3.649,-3.6535,-3.6391,-3.6229,-3.6174,-3.6211,-3.5789,-3.5055,-3.499,-3.4688,-3.4027,-3.3954,-3.3972,-3.3862,-3.3862,-3.3807,-3.3947,-3.4394,-3.4698,-3.475,-3.5133,-3.5391,-3.5411,-3.5315,-3.4603,-3.3103,-3.305,-3.3152,-3.3171,-3.3788,-3.4603,-3.52,-3.5514,-3.5783,-3.5957,-3.6016,-3.6016,-3.6152,-3.6777,-3.7207,-3.7754,-3.8906,-3.9726,-4.0059,-4.0605,-4.1016,-4.1133,-4.1191,-4.1191,-4.1191,-4.1191,-4.1191,-4.1191,-4.1191,-4.1191,-4.1191,-4.1191,-4.1191,-4.1191,-4.1191,-4.1191,-4.1191,-4.1191,-4.1191,-4.1191,-4.1191,-4.1191,-4.1191,-4.1191,-4.1191,-4.1191,-4.1191,-4.1191,-4.1191,-4.1191,-4.1191,-4.1152,-4.0937,-4.0835,-4.079,-4.0376,-3.9875,-3.9056,-3.7661,-3.6661,-3.5795,-3.5474,-3.535,-3.5105,-3.507,-3.4981,-3.4832,-3.4655,-3.4572,-3.5827,-3.6207,-3.6724,-3.7228,-3.772,-3.8234,-3.8578,-3.8707,-3.8707,-3.8707,-3.8707,-3.8707,-3.8707,-3.8707,-3.8707,-3.8707,-3.867,-3.8432,-3.831,-3.8255,-3.8034,-3.7888,-3.7821,-3.7356,-3.6817,-3.6358,-3.6285,-3.6174,-3.5954,-3.5899,-3.5735,-3.545,-3.489,-3.4642,-3.4586,-3.4109,-3.3807,-3.3868,-3.4375,-3.4699,-3.4759,-3.5215,-3.5488,-3.5507,-3.5488,-3.5199,-3.4737,-3.4691,-3.4691,-3.4653,-3.4936,-3.5238,-3.5495,-3.5726,-3.5893,-3.5996,-3.6016,-3.6309,-3.6855,-3.7187,-3.7891,-3.8848,-3.9629,-4.0176,-4.0684,-4.1016,-4.1191,-4.1191,-4.1191,-4.1191,-4.1191,-4.1191,-4.1191,-4.1191,-4.1191,-4.1191,-4.1191,-4.1191,-4.1191,-4.1191,-4.1191,-4.1191,-4.1191,-4.1191,-4.1191,-4.1191,-4.1191,-4.1191,-4.1191,-4.1191,-4.1191,-4.1191,-4.1191,-4.1191,-4.1191,-4.1191,-4.1191,-4.1191,-4.1055,-4.0957,-4.0906,-4.0751,-4.0265,-3.936,-3.7964,-3.6853,-3.5968,-3.5446,-3.5335,-3.5239,-3.5122,-3.5053,-3.4999,-3.4907,-3.4851,-3.5898,-3.6457,-3.6999,-3.7469,-3.7951,-3.8469,-3.8707,-3.8707,-3.8707,-3.8707,-3.8707,-3.8707,-3.8707,-3.8707,-3.8707,-3.8707,-3.8707,-3.8707,-3.8707,-3.8707,-3.8707,-3.8707,-3.867,-3.8212,-3.7716,-3.7294,-3.7202,-3.7019,-3.6743,-3.6707,-3.6581,-3.6224,-3.5745,-3.5468,-3.545,-3.4982,-3.4668,-3.455,-3.4895,-3.504,-3.4969,-3.5288,-3.5507,-3.5507,-3.5507,-3.5507,-3.5507,-3.5507,-3.5507,-3.5507,-3.5526,-3.5541,-3.5581,-3.5784,-3.6193,-3.6777,-3.6719,-3.6875,-3.7676,-3.8164,-3.8652,-3.9726,-4.0195,-4.0586,-4.1074,-4.1191,-4.1191,-4.1191,-4.1191,-4.1191,-4.1191,-4.1191,-4.1191,-4.1191,-4.1191,-4.1191,-4.1191,-4.1191,-4.1191,-4.1191,-4.1191,-4.1191,-4.1191,-4.1191,-4.1191,-4.1191,-4.1191,-4.1191,-4.1191,-4.1191,-4.1191,-4.1191,-4.1191,-4.1191,-4.1191,-4.1191,-4.1191,-4.1172,-4.1113,-4.1094,-4.1047,-4.0901,-4.054,-3.9499,-3.8223,-3.7296,-3.643,-3.5743,-3.5432,-3.5304,-3.5223,-3.5239,-3.5239,-3.5239,-3.5155,-3.5941,-3.6498,-3.6999,-3.7506,-3.7998,-3.8496,-3.8707,-3.8707,-3.8707,-3.8707,-3.8707,-3.8707,-3.8707,-3.8707,-3.8707,-3.8707,-3.8707,-3.8707,-3.8707,-3.8707,-3.8707,-3.8707,-3.867,-3.8597,-3.8505,-3.8487,-3.8505,-3.8212,-3.7588,-3.7551,-3.7202,-3.6662,-3.6489,-3.636,-3.6332,-3.6305,-3.5843,-3.5437,-3.5663,-3.5571,-3.5139,-3.5474,-3.5565,-3.5526,-3.5603,-3.5622,-3.5507,-3.5608,-3.5608,-3.5545,-3.5565,-3.5608,-3.5715,-3.5869,-3.6795,-3.8203,-3.7773,-3.791,-3.8613,-3.9219,-3.9785,-4.0098,-4.0684,-4.1191,-4.1191,-4.1191,-4.1191,-4.1191,-4.1191,-4.1191,-4.1191,-4.1191,-4.1191,-4.1191,-4.1191,-4.1191,-4.1191,-4.1191,-4.1191,-4.1191,-4.1191,-4.1191,-4.1191,-4.1191,-4.1191,-4.1191,-4.1191,-4.1191,-4.1191,-4.1191,-4.1191,-4.1191,-4.1191,-4.1191,-4.1191,-4.1191,-4.1191,-4.1191,-4.1152,-4.1152,-4.1133,-4.0996,-4.0586,-3.9562,-3.8762,-3.78,-3.6911,-3.6199,-3.5647,-3.5451,-3.5432,-3.5493,-3.546,-3.5412,-3.527,-3.6122,-3.6999,-3.7152,-3.7703,-3.8433,-3.8658,-3.8707,-3.8707,-3.8707,-3.8707,-3.8707,-3.8707,-3.8707,-3.8707,-3.8707,-3.8707,-3.8707,-3.8707,-3.8707,-3.8707,-3.8707,-3.8707,-3.8707,-3.8707,-3.8707,-3.8707,-3.8689,-3.8597,-3.8395,-3.8322,-3.823,-3.8065,-3.7415,-3.7184,-3.7113,-3.6659,-3.6021,-3.5608,-3.5772,-3.5703,-3.54,-3.6008,-3.6065,-3.5584,-3.6098,-3.6078,-3.568,-3.6075,-3.6056,-3.5545,-3.5584,-3.5639,-3.5753,-3.644,-3.7441,-3.8418,-3.8476,-3.8633,-3.9394,-3.9785,-4.0195,-4.0781,-4.1016,-4.1191,-4.1191,-4.1191,-4.1191,-4.1191,-4.1191,-4.1191,-4.1191,-4.1191,-4.1191,-4.1191,-4.1191,-4.1191,-4.1191,-4.1191,-4.1191,-4.1191,-4.1191,-4.1191,-4.1191,-4.1191,-4.1191,-4.1191,-4.1191,-4.1191,-4.1191,-4.1191,-4.1191,-4.1191,-4.1191,-4.1191,-4.1191,-4.1191,-4.1191,-4.1191,-4.1191,-4.1191,-4.1152,-4.1055,-4.043,-3.958,-3.9249,-3.8473,-3.7397,-3.6507,-3.6089,-3.5628,-3.5493,-3.5507,-3.5493,-3.546,-3.5304,-3.6446,-3.721,-3.7396,-3.7964,-3.8658,-3.8707,-3.8707,-3.8707,-3.8707,-3.8707,-3.8707,-3.8707,-3.8707,-3.8707,-3.8707,-3.8707,-3.8707,-3.8707,-3.8707,-3.8707,-3.8707,-3.8707,-3.8707,-3.8707,-3.8707,-3.8707,-3.8707,-3.8689,-3.8689,-3.8707,-3.8707,-3.8579,-3.8212,-3.7998,-3.7998,-3.7711,-3.7203,-3.6841,-3.6942,-3.6844,-3.6422,-3.691,-3.6974,-3.668,-3.7041,-3.6983,-3.668,-3.7017,-3.7002,-3.6666,-3.6598,-3.6363,-3.5805,-3.696,-3.8281,-3.9512,-3.9375,-3.9531,-4.0234,-4.0449,-4.0664,-4.1074,-4.1191,-4.1191,-4.1191,-4.1191,-4.1191,-4.1191,-4.1191,-4.1191,-4.1191,-4.1191,-4.1191,-4.1191,-4.1191,-4.1191,-4.1191,-4.1191,-4.1191,-4.1191,-4.1191,-4.1191,-4.1191,-4.1191,-4.1191,-4.1191,-4.1191,-4.1191,-4.1191,-4.1191,-4.1191,-4.1191,-4.1191,-4.1191,-4.1191,-4.1191,-4.1191,-4.1191,-4.1191,-4.1191,-4.1152,-4.1094,-4.0684,-4.0082,-3.9689,-3.9073,-3.7973,-3.6949,-3.6257,-3.5872,-3.5661,-3.5507,-3.5493,-3.5383,-3.5239,-3.6685,-3.7228,-3.7649,-3.815,-3.8658,-3.8707,-3.8707,-3.8707,-3.8707,-3.8707,-3.8707,-3.8707,-3.8707,-3.8707,-3.8707,-3.8707,-3.8707,-3.8707,-3.8707,-3.8707,-3.8707,-3.8707,-3.8707,-3.8707,-3.8707,-3.8707,-3.8707,-3.8707,-3.8707,-3.8707,-3.8707,-3.867,-3.8652,-3.8707,-3.8644,-3.8826,-3.878,-3.8304,-3.8343,-3.8153,-3.7817,-3.7935,-3.7969,-3.7738,-3.7738,-3.7969,-3.7973,-3.8131,-3.8136,-3.8277,-3.8176,-3.7247,-3.6228,-3.7615,-3.9219,-4.0527,-4.041,-4.0371,-4.0976,-4.1074,-4.1152,-4.1191,-4.1191,-4.1191,-4.1191,-4.1191,-4.1191,-4.1191,-4.1191,-4.1191,-4.1191,-4.1191,-4.1191,-4.1191,-4.1191,-4.1172,-4.1187,-4.1191,-4.1191,-4.1191,-4.1191,-4.1191,-4.1191,-4.1191,-4.1191,-4.1191,-4.1191,-4.1191,-4.1191,-4.1191,-4.1191,-4.1191,-4.1191,-4.1191,-4.1191,-4.1191,-4.1191,-4.1191,-4.1191,-4.1191,-4.1172,-4.1094,-4.0976,-4.0636,-4.0215,-3.9475,-3.8507,-3.7546,-3.668,-3.6045,-3.5795,-3.5622,-3.5474,-3.5304,-3.5138,-3.6312,-3.7228,-3.7285,-3.7861,-3.8627,-3.8707,-3.8707,-3.8707,-3.8707,-3.8707,-3.8707,-3.8707,-3.8707,-3.8707,-3.8707,-3.8707,-3.8707,-3.8707,-3.8707,-3.8707,-3.8707,-3.8707,-3.8707,-3.8707,-3.8707,-3.8707,-3.8707,-3.8707,-3.8707,-3.8707,-3.8707,-3.8726,-3.8738,-3.8802,-3.9008,-3.911,-3.8994,-3.8763,-3.8804,-3.8644,-3.8424,-3.8719,-3.8738,-3.8238,-3.8123,-3.843,-3.8911,-3.9031,-3.9339,-3.9488,-3.8796,-3.795,-3.7833,-3.8639,-3.9882,-4.0762,-4.1055,-4.0976,-4.1152,-4.1191,-4.1191,-4.1191,-4.1191,-4.1191,-4.1191,-4.1191,-4.1191,-4.1191,-4.1208,-4.1179,-4.1172,-4.1113,-4.1094,-4.1133,-4.1098,-4.1059,-4.105,-4.1125,-4.1172,-4.1191,-4.1172,-4.1191,-4.1191,-4.1191,-4.1191,-4.1191,-4.1191,-4.1191,-4.1191,-4.1191,-4.1191,-4.1191,-4.1191,-4.1191,-4.1191,-4.1191,-4.1191,-4.1191,-4.1191,-4.1191,-4.1191,-4.1152,-4.1035,-4.0896,-4.0699,-3.9835,-3.8849,-3.8142,-3.7296,-3.6642,-3.5911,-3.568,-3.5446,-3.5239,-3.5016,-3.6452,-3.721,-3.7433,-3.7982,-3.8627,-3.8707,-3.8707,-3.8707,-3.8707,-3.8707,-3.8707,-3.8707,-3.8707,-3.8707,-3.8707,-3.8707,-3.8707,-3.8707,-3.8707,-3.8707,-3.8707,-3.8707,-3.8707,-3.8707,-3.8707,-3.8707,-3.8707,-3.8707,-3.8707,-3.8707,-3.8762,-3.8885,-3.8885,-3.9045,-3.9331,-3.9463,-3.9547,-3.9509,-3.9525,-3.9435,-3.9319,-3.9565,-3.9738,-3.9277,-3.9161,-3.945,-3.9815,-3.9854,-4.0104,-4.0162,-3.9642,-3.9161,-3.9219,-3.9764,-4.0471,-4.1016,-4.1133,-4.1152,-4.1172,-4.1191,-4.1191,-4.1191,-4.1191,-4.1191,-4.1191,-4.1191,-4.1191,-4.1188,-4.1114,-4.1029,-4.1015,-4.0957,-4.0959,-4.096,-4.0966,-4.0894,-4.0872,-4.0955,-4.1039,-4.1037,-4.1016,-4.0976,-4.0996,-4.1074,-4.1113,-4.1094,-4.1191,-4.1191,-4.1191,-4.1191,-4.1191,-4.1191,-4.1191,-4.1191,-4.1191,-4.1191,-4.1191,-4.1191,-4.1191,-4.1191,-4.1191,-4.1152,-4.1094,-4.0935,-4.073,-4.0072,-3.9157,-3.8488,-3.7584,-3.6397,-3.5666,-3.5565,-3.5383,-3.5138,-3.4944,-3.6781,-3.7323,-3.772,-3.8216,-3.8658,-3.8707,-3.8707,-3.8707,-3.8707,-3.8707,-3.8707,-3.8707,-3.8707,-3.8707,-3.8707,-3.8707,-3.8707,-3.8707,-3.8707,-3.8707,-3.8707,-3.8707,-3.8707,-3.8707,-3.8707,-3.8707,-3.8707,-3.8689,-3.8792,-3.8799,-3.8958,-3.913,-3.9187,-3.9362,-3.9683,-3.9927,-4.003,-4.0096,-4.0219,-4.0319,-4.0296,-4.0354,-4.0354,-4.0296,-4.0258,-4.0296,-4.0392,-4.0412,-4.0489,-4.0527,-4.0527,-4.0508,-4.0527,-4.065,-4.082,-4.1113,-4.1074,-4.1113,-4.1191,-4.1191,-4.1191,-4.1191,-4.1191,-4.1191,-4.1191,-4.1191,-4.1191,-4.1128,-4.102,-4.0866,-4.0804,-4.0792,-4.0804,-4.081,-4.0796,-4.0754,-4.0723,-4.0754,-4.079,-4.0868,-4.0887,-4.0867,-4.0871,-4.0935,-4.0948,-4.1016,-4.1113,-4.1191,-4.1191,-4.1191,-4.1191,-4.1191,-4.1191,-4.1191,-4.1191,-4.1191,-4.1191,-4.1191,-4.1191,-4.1191,-4.1191,-4.1172,-4.1113,-4.0918,-4.0583,-4.0042,-3.9407,-3.8623,-3.7546,-3.6128,-3.5532,-3.5507,-3.5304,-3.5016,-3.487,-3.6955,-3.779,-3.7877,-3.8234,-3.8658,-3.8707,-3.8707,-3.8707,-3.8707,-3.8707,-3.8707,-3.8707,-3.8707,-3.8707,-3.8707,-3.8707,-3.8707,-3.8707,-3.8707,-3.8707,-3.8707,-3.8707,-3.8707,-3.8732,-3.8719,-3.8707,-3.875,-3.8873,-3.899,-3.9073,-3.9221,-3.9468,-3.9525,-3.969,-3.9947,-4.0092,-4.0223,-4.0351,-4.0473,-4.0489,-4.0489,-4.0489,-4.0489,-4.0489,-4.0489,-4.0527,-4.06,-4.0562,-4.0585,-4.0735,-4.0696,-4.062,-4.0566,-4.0696,-4.0828,-4.0917,-4.1072,-4.1152,-4.1191,-4.1191,-4.1191,-4.1191,-4.1191,-4.1191,-4.1191,-4.1191,-4.1172,-4.1059,-4.0908,-4.0754,-4.0793,-4.0723,-4.0747,-4.0766,-4.0737,-4.0703,-4.0688,-4.0639,-4.0635,-4.072,-4.0764,-4.0789,-4.0827,-4.0848,-4.0949,-4.1012,-4.1113,-4.1191,-4.1191,-4.1191,-4.1191,-4.1191,-4.1191,-4.1191,-4.1191,-4.1191,-4.1191,-4.1191,-4.1191,-4.1191,-4.1191,-4.1191,-4.1094,-4.0898,-4.0784,-4.0521,-3.9758,-3.8892,-3.7988,-3.693,-3.6238,-3.5565,-3.5454,-3.5367,-3.4981,-3.6988,-3.7893,-3.7893,-3.8216,-3.8658,-3.8707,-3.8707,-3.8707,-3.8707,-3.8707,-3.8707,-3.8707,-3.8707,-3.8707,-3.8707,-3.8707,-3.8707,-3.8707,-3.8707,-3.8707,-3.8707,-3.8707,-3.8732,-3.8815,-3.8894,-3.898,-3.9073,-3.9117,-3.913,-3.927,-3.9526,-3.9769,-3.9844,-4.0019,-4.0238,-4.03,-4.0373,-4.0489,-4.0489,-4.0489,-4.0489,-4.0489,-4.0489,-4.0489,-4.0489,-4.0527,-4.0554,-4.0539,-4.0578,-4.0703,-4.0716,-4.0696,-4.0716,-4.0785,-4.0926,-4.0993,-4.1077,-4.113,-4.1191,-4.1191,-4.1191,-4.1191,-4.1202,-4.1151,-4.1143,-4.1133,-4.1095,-4.0861,-4.0754,-4.062,-4.0639,-4.0639,-4.0639,-4.0639,-4.0639,-4.062,-4.0566,-4.0527,-4.0546,-4.06,-4.0611,-4.068,-4.0746,-4.0808,-4.0919,-4.1021,-4.1124,-4.1172,-4.1191,-4.1191,-4.1191,-4.1191,-4.1191,-4.1191,-4.1191,-4.1191,-4.1191,-4.1191,-4.1191,-4.1191,-4.1191,-4.1191,-4.1055,-4.0859,-4.0787,-4.0731,-4.0258,-3.9431,-3.8584,-3.7719,-3.6858,-3.6152,-3.5936,-3.5691,-3.5238,-3.7248,-3.8065,-3.8065,-3.83,-3.8676,-3.8707,-3.8707,-3.8707,-3.8707,-3.8707,-3.8707,-3.8707,-3.8707,-3.8707,-3.8707,-3.8707,-3.8707,-3.8707,-3.8707,-3.8707,-3.8689,-3.8719,-3.8826,-3.8971,-3.9125,-3.9257,-3.9524,-3.9561,-3.9453,-3.9584,-3.9845,-4.0084,-4.0182,-4.0271,-4.046,-4.045,-4.0489,-4.0489,-4.0489,-4.0489,-4.0489,-4.0489,-4.0489,-4.0489,-4.0489,-4.0508,-4.0573,-4.0526,-4.0597,-4.0703,-4.0752,-4.0766,-4.0866,-4.0985,-4.11,-4.116,-4.1096,-4.1104,-4.1152,-4.1152,-4.1152,-4.1209,-4.1179,-4.1098,-4.104,-4.1023,-4.096,-4.0596,-4.0508,-4.0508,-4.0527,-4.0508,-4.0508,-4.0508,-4.0508,-4.0489,-4.0508,-4.0508,-4.0508,-4.0508,-4.0489,-4.0566,-4.0696,-4.0779,-4.0882,-4.1013,-4.1113,-4.1172,-4.1191,-4.1191,-4.1191,-4.1191,-4.1191,-4.1191,-4.1191,-4.1191,-4.1191,-4.1191,-4.1191,-4.1191,-4.1191,-4.1191,-4.1035,-4.0877,-4.0808,-4.0716,-4.0315,-3.9854,-3.8892,-3.7988,-3.7243,-3.6575,-3.5969,-3.5607,-3.5234,-3.8065,-3.8596,-3.8578,-3.8658,-3.8707,-3.8707,-3.8707,-3.8707,-3.8707,-3.8707,-3.8707,-3.8707,-3.8707,-3.8707,-3.8707,-3.8707,-3.8707,-3.8732,-3.8762,-3.8743,-3.8773,-3.8913,-3.9054,-3.9072,-3.9358,-3.9552,-3.988,-4.0002,-3.9944,-3.9983,-4.0158,-4.0379,-4.0415,-4.0476,-4.0492,-4.0489,-4.0489,-4.0489,-4.0489,-4.0489,-4.0489,-4.0489,-4.0489,-4.0489,-4.0508,-4.0546,-4.062,-4.0568,-4.0569,-4.0771,-4.0784,-4.0909,-4.1094,-4.1174,-4.1179,-4.1199,-4.1188,-4.1172,-4.1172,-4.1123,-4.111,-4.1164,-4.1121,-4.1036,-4.0964,-4.0863,-4.0746,-4.0545,-4.0489,-4.0489,-4.0489,-4.0489,-4.0489,-4.0489,-4.0489,-4.0489,-4.0489,-4.0489,-4.0489,-4.0508,-4.0527,-4.06,-4.0696,-4.0761,-4.0855,-4.0974,-4.1094,-4.1152,-4.1191,-4.1191,-4.1191,-4.1191,-4.1191,-4.1191,-4.1191,-4.1191,-4.1191,-4.1191,-4.1191,-4.1191,-4.1191,-4.1172,-4.1055,-4.0915,-4.0846,-4.0731,-4.0431,-3.9854,-3.9027,-3.8238,-3.7454,-3.657,-3.5685,-3.5411,-3.5261,-3.8515,-3.8707,-3.8707,-3.8707,-3.8707,-3.8707,-3.8707,-3.8707,-3.8707,-3.8707,-3.8707,-3.8707,-3.8707,-3.8707,-3.8707,-3.8707,-3.8701,-3.8855,-3.8924,-3.9008,-3.909,-3.9231,-3.9408,-3.9576,-3.9794,-3.9878,-4.0139,-4.0321,-4.0321,-4.0321,-4.0425,-4.0473,-4.0489,-4.0492,-4.0489,-4.0489,-4.0489,-4.0489,-4.0489,-4.0489,-4.0489,-4.0489,-4.0489,-4.0489,-4.0489,-4.0527,-4.0546,-4.0546,-4.0566,-4.0727,-4.0765,-4.0927,-4.1112,-4.1201,-4.1191,-4.1191,-4.1191,-4.1191,-4.1191,-4.1152,-4.1147,-4.1179,-4.1139,-4.104,-4.0863,-4.0716,-4.062,-4.0508,-4.0489,-4.0489,-4.0489,-4.0489,-4.0489,-4.0489,-4.0489,-4.0489,-4.0489,-4.0489,-4.0508,-4.0527,-4.0566,-4.0658,-4.0714,-4.079,-4.0898,-4.1074,-4.1133,-4.1172,-4.1191,-4.1191,-4.1191,-4.1191,-4.1191,-4.1191,-4.1191,-4.1191,-4.1191,-4.1191,-4.1191,-4.1191,-4.1191,-4.1152,-4.1035,-4.0935,-4.0834,-4.0689,-4.05,-4.0142,-3.9585,-3.8661,-3.7661,-3.6853,-3.6065,-3.557,-3.5441,-3.8707,-3.8707,-3.8707,-3.8707,-3.8707,-3.8707,-3.8707,-3.8707,-3.8707,-3.8707,-3.8707,-3.8707,-3.8707,-3.8719,-3.8773,-3.8844,-3.8833,-3.909,-3.92,-3.9308,-3.9449,-3.9622,-3.9754,-3.9982,-4.01,-4.0196,-4.0339,-4.0457,-4.0473,-4.0489,-4.0473,-4.0489,-4.0489,-4.0489,-4.0489,-4.0489,-4.0489,-4.0489,-4.0489,-4.0489,-4.0489,-4.0489,-4.0489,-4.0489,-4.0489,-4.0489,-4.0489,-4.0489,-4.0546,-4.062,-4.075,-4.0901,-4.1037,-4.1155,-4.1191,-4.1191,-4.1191,-4.1191,-4.1191,-4.1163,-4.1176,-4.1177,-4.114,-4.101,-4.0776,-4.06,-4.0489,-4.0489,-4.0489,-4.0489,-4.0489,-4.0489,-4.0489,-4.0489,-4.0489,-4.0489,-4.0489,-4.0489,-4.0508,-4.0527,-4.06,-4.0716,-4.0777,-4.0827,-4.0957,-4.1133,-4.1191,-4.1191,-4.1191,-4.1191,-4.1191,-4.1191,-4.1191,-4.1191,-4.1191,-4.1191,-4.1191,-4.1191,-4.1191,-4.1191,-4.1191,-4.1152,-4.1074,-4.0954,-4.0815,-4.067,-4.0523,-4.0389,-4.0158,-3.895,-3.7892,-3.7238,-3.6565,-3.5988,-3.5565,-3.8707,-3.8707,-3.8707,-3.8707,-3.8707,-3.8707,-3.8707,-3.8707,-3.8707,-3.8707,-3.8707,-3.8719,-3.8732,-3.8773,-3.8971,-3.909,-3.9099,-3.9432,-3.9552,-3.9576,-3.9603,-3.984,-4.0003,-4.0139,-4.0251,-4.0408,-4.0489,-4.0489,-4.0489,-4.0489,-4.0489,-4.0489,-4.0489,-4.0489,-4.0489,-4.0489,-4.0489,-4.0489,-4.0489,-4.0489,-4.0489,-4.0489,-4.0489,-4.0489,-4.0489,-4.0489,-4.0489,-4.0489,-4.0527,-4.0566,-4.0716,-4.0814,-4.0918,-4.1097,-4.1191,-4.1191,-4.1191,-4.1191,-4.1191,-4.1133,-4.1091,-4.113,-4.1071,-4.0961,-4.0804,-4.0596,-4.0523,-4.0489,-4.0489,-4.0489,-4.0489,-4.0489,-4.0489,-4.0489,-4.0489,-4.0489,-4.0489,-4.0489,-4.0508,-4.0508,-4.06,-4.0746,-4.0848,-4.0918,-4.1012,-4.1172,-4.1191,-4.1191,-4.1191,-4.1191,-4.1191,-4.1191,-4.1191,-4.1191,-4.1191,-4.1191,-4.1191,-4.1191,-4.1191,-4.1191,-4.1191,-4.1152,-4.1113,-4.0915,-4.0781,-4.064,-4.0546,-4.0431,-4.0027,-3.8988,-3.8084,-3.7353,-3.6603,-3.5897,-3.5603,-3.8707,-3.8707,-3.8707,-3.8707,-3.8707,-3.8707,-3.8707,-3.8707,-3.8707,-3.8707,-3.8719,-3.8855,-3.8952,-3.9026,-3.9238,-3.9389,-3.9438,-3.9735,-3.9857,-3.9981,-4.0081,-4.0212,-4.0339,-4.0339,-4.0406,-4.0489,-4.0489,-4.0489,-4.0489,-4.0489,-4.0489,-4.0489,-4.0489,-4.0489,-4.0489,-4.0489,-4.0489,-4.0489,-4.0489,-4.0489,-4.0489,-4.0489,-4.0489,-4.0489,-4.0489,-4.0489,-4.0489,-4.0489,-4.0546,-4.062,-4.0716,-4.0783,-4.0834,-4.1061,-4.1172,-4.1191,-4.1191,-4.1191,-4.1191,-4.1133,-4.1152,-4.1124,-4.1008,-4.0857,-4.0796,-4.0615,-4.0519,-4.0489,-4.0489,-4.0489,-4.0489,-4.0489,-4.0489,-4.0489,-4.0489,-4.0489,-4.0489,-4.0489,-4.0489,-4.0508,-4.0626,-4.0781,-4.0895,-4.1013,-4.1097,-4.1191,-4.1191,-4.1191,-4.1191,-4.1191,-4.1191,-4.1191,-4.1191,-4.1191,-4.1191,-4.1191,-4.1191,-4.1191,-4.1191,-4.1191,-4.1191,-4.1191,-4.1113,-4.0918,-4.0754,-4.0665,-4.0566,-4.0508,-4.0046,-3.9296,-3.8334,-3.7334,-3.6603,-3.5839,-3.5622,-3.8707,-3.8707,-3.8707,-3.8707,-3.8707,-3.8707,-3.8707,-3.8707,-3.8707,-3.8762,-3.8844,-3.9117,-3.9245,-3.9333,-3.9584,-3.9754,-3.984,-4.0043,-4.0177,-4.0289,-4.0375,-4.0489,-4.0489,-4.0489,-4.0473,-4.0489,-4.0489,-4.0489,-4.0489,-4.0489,-4.0489,-4.0489,-4.0489,-4.0489,-4.0489,-4.0489,-4.0489,-4.0489,-4.0489,-4.0489,-4.0489,-4.0489,-4.0489,-4.0489,-4.0489,-4.0489,-4.0489,-4.0489,-4.0546,-4.0626,-4.0703,-4.0791,-4.0873,-4.0991,-4.112,-4.1136,-4.114,-4.1147,-4.1143,-4.1167,-4.1182,-4.1117,-4.1012,-4.0859,-4.0757,-4.0648,-4.0616,-4.0489,-4.0489,-4.0489,-4.0489,-4.0489,-4.0489,-4.0489,-4.0489,-4.0489,-4.0489,-4.0489,-4.0489,-4.0523,-4.066,-4.0808,-4.0906,-4.1016,-4.1133,-4.1191,-4.1191,-4.1191,-4.1191,-4.1191,-4.1191,-4.1191,-4.1191,-4.1191,-4.1191,-4.1191,-4.1191,-4.1191,-4.1191,-4.1191,-4.1191,-4.1191,-4.1113,-4.0898,-4.0757,-4.0689,-4.06,-4.0508,-4.0219,-3.9796,-3.87,-3.7488,-3.668,-3.5974,-3.5641,-3.8707,-3.8707,-3.8707,-3.8707,-3.8707,-3.8707,-3.8707,-3.8707,-3.875,-3.8902,-3.9125,-3.9438,-3.9599,-3.9668,-3.9943,-4.0062,-4.012,-4.0319,-4.0441,-4.0441,-4.0476,-4.0489,-4.0489,-4.0489,-4.0489,-4.0489,-4.0489,-4.0489,-4.0489,-4.0489,-4.0489,-4.0489,-4.0489,-4.0489,-4.0489,-4.0489,-4.0489,-4.0489,-4.0489,-4.0489,-4.0489,-4.0489,-4.0489,-4.0489,-4.0489,-4.0489,-4.0489,-4.0489,-4.0527,-4.0577,-4.0706,-4.081,-4.0953,-4.0982,-4.0991,-4.0945,-4.0978,-4.0986,-4.1003,-4.1111,-4.1123,-4.1011,-4.0924,-4.0866,-4.0757,-4.0716,-4.0677,-4.0508,-4.0489,-4.0489,-4.0489,-4.0489,-4.0489,-4.0489,-4.0489,-4.0489,-4.0489,-4.0489,-4.0489,-4.0508,-4.0669,-4.0822,-4.0921,-4.1016,-4.1133,-4.1191,-4.1191,-4.1191,-4.1191,-4.1191,-4.1191,-4.1191,-4.1191,-4.1191,-4.1191,-4.1191,-4.1191,-4.1191,-4.1191,-4.1191,-4.1191,-4.1191,-4.1074,-4.0859,-4.0765,-4.0708,-4.06,-4.0489,-4.0104,-3.9642,-3.8738,-3.77,-3.6853,-3.6108,-3.5718,-3.8707,-3.8707,-3.8707,-3.8707,-3.8707,-3.8707,-3.8707,-3.875,-3.8894,-3.9144,-3.9457,-3.9775,-3.9922,-4.0022,-4.0194,-4.0356,-4.0372,-4.0406,-4.0489,-4.0489,-4.0489,-4.0489,-4.0489,-4.0489,-4.0489,-4.0489,-4.0489,-4.0489,-4.0489,-4.0489,-4.0489,-4.0489,-4.0489,-4.0489,-4.0489,-4.0489,-4.0489,-4.0489,-4.0489,-4.0489,-4.0489,-4.0489,-4.0489,-4.0489,-4.0489,-4.0489,-4.0489,-4.0489,-4.0527,-4.06,-4.07,-4.084,-4.0967,-4.1011,-4.0924,-4.087,-4.0877,-4.083,-4.0873,-4.0963,-4.1005,-4.0892,-4.0828,-4.0808,-4.0716,-4.062,-4.0546,-4.0508,-4.0489,-4.0489,-4.0489,-4.0489,-4.0489,-4.0489,-4.0489,-4.0489,-4.0489,-4.0489,-4.0508,-4.0546,-4.0654,-4.0888,-4.1033,-4.1074,-4.1172,-4.1191,-4.1191,-4.1191,-4.1191,-4.1191,-4.1191,-4.1191,-4.1191,-4.1191,-4.1191,-4.1191,-4.1191,-4.1191,-4.1191,-4.1191,-4.1191,-4.1191,-4.1055,-4.0879,-4.0808,-4.0735,-4.06,-4.0392,-3.995,-3.9354,-3.8604,-3.7777,-3.6873,-3.6161,-3.5622,-3.8707,-3.8707,-3.8707,-3.8707,-3.8726,-3.8799,-3.8895,-3.9055,-3.9308,-3.9576,-3.9819,-4.0101,-4.0232,-4.0285,-4.0389,-4.0489,-4.0489,-4.0489,-4.0489,-4.0489,-4.0489,-4.0489,-4.0489,-4.0489,-4.0489,-4.0489,-4.0489,-4.0489,-4.0489,-4.0489,-4.0489,-4.0489,-4.0489,-4.0489,-4.0489,-4.0489,-4.0489,-4.0489,-4.0489,-4.0489,-4.0489,-4.0489,-4.0489,-4.0489,-4.0489,-4.0489,-4.0489,-4.0508,-4.0527,-4.0639,-4.0728,-4.0803,-4.0917,-4.0925,-4.0831,-4.0812,-4.0785,-4.0725,-4.0778,-4.0842,-4.0823,-4.0711,-4.0684,-4.0693,-4.0658,-4.0566,-4.0527,-4.0489,-4.0489,-4.0489,-4.0489,-4.0489,-4.0489,-4.0489,-4.0489,-4.0489,-4.0489,-4.0489,-4.0508,-4.0546,-4.0684,-4.0915,-4.1133,-4.1152,-4.1191,-4.1191,-4.1191,-4.1191,-4.1191,-4.1191,-4.1191,-4.1191,-4.1191,-4.1191,-4.1191,-4.1191,-4.1191,-4.1191,-4.1191,-4.1191,-4.1191,-4.1191,-4.1055,-4.0913,-4.0829,-4.0735,-4.0581,-4.0315,-4.0046,-3.9488,-3.87,-3.7834,-3.6892,-3.618,-3.5545,-3.8707,-3.8707,-3.8707,-3.8707,-3.8744,-3.8983,-3.9286,-3.9584,-3.9943,-4.0081,-4.0139,-4.0372,-4.0457,-4.0473,-4.0489,-4.0489,-4.0489,-4.0489,-4.0489,-4.0489,-4.0489,-4.0489,-4.0489,-4.0489,-4.0489,-4.0489,-4.0489,-4.0489,-4.0489,-4.0489,-4.0489,-4.0489,-4.0489,-4.0489,-4.0489,-4.0489,-4.0489,-4.0489,-4.0489,-4.0489,-4.0489,-4.0489,-4.0489,-4.0489,-4.0489,-4.0489,-4.0489,-4.0489,-4.0508,-4.0546,-4.0635,-4.0673,-4.0708,-4.0677,-4.0696,-4.0696,-4.0696,-4.0708,-4.0684,-4.0731,-4.0673,-4.0588,-4.0631,-4.06,-4.0546,-4.0508,-4.0508,-4.0489,-4.0489,-4.0489,-4.0489,-4.0489,-4.0489,-4.0489,-4.0489,-4.0489,-4.0489,-4.0508,-4.0508,-4.06,-4.0735,-4.0918,-4.1133,-4.1191,-4.1191,-4.1191,-4.1191,-4.1191,-4.1191,-4.1191,-4.1191,-4.1191,-4.1191,-4.1191,-4.1191,-4.1191,-4.1191,-4.1191,-4.1191,-4.1191,-4.1191,-4.1191,-4.1094,-4.098,-4.0849,-4.0716,-4.0562,-4.0469,-4.0373,-3.9681,-3.8873,-3.818,-3.7353,-3.6161,-3.5507,-3.8707,-3.8707,-3.8707,-3.8707,-3.878,-3.9256,-3.9517,-3.964,-3.9948,-4.0195,-4.0389,-4.0473,-4.0489,-4.0489,-4.0489,-4.0489,-4.0489,-4.0489,-4.0489,-4.0489,-4.0489,-4.0489,-4.0489,-4.0489,-4.0489,-4.0489,-4.0489,-4.0489,-4.0489,-4.0489,-4.0489,-4.0489,-4.0489,-4.0489,-4.0489,-4.0489,-4.0489,-4.0489,-4.0489,-4.0489,-4.0489,-4.0489,-4.0489,-4.0489,-4.0489,-4.0489,-4.0489,-4.0489,-4.0489,-4.0508,-4.0527,-4.0566,-4.0716,-4.062,-4.0546,-4.0566,-4.062,-4.0677,-4.062,-4.0658,-4.0658,-4.0508,-4.0546,-4.0527,-4.0489,-4.0489,-4.0489,-4.0489,-4.0489,-4.0489,-4.0489,-4.0489,-4.0489,-4.0489,-4.0489,-4.0489,-4.0489,-4.0489,-4.0523,-4.0651,-4.0786,-4.0957,-4.1152,-4.1191,-4.1191,-4.1191,-4.1191,-4.1191,-4.1191,-4.1191,-4.1191,-4.1191,-4.1191,-4.1191,-4.1191,-4.1191,-4.1191,-4.1191,-4.1191,-4.1191,-4.1191,-4.1172,-4.1133,-4.1015,-4.0868,-4.0699,-4.0527,-4.045,-4.0427,-3.9854,-3.9104,-3.8469,-3.7738,-3.6584,-3.5622,-3.8707,-3.8707,-3.8707,-3.8707,-3.8762,-3.9216,-3.9407,-3.9509,-3.9984,-4.0356,-4.0489,-4.0489,-4.0489,-4.0489,-4.0489,-4.0489,-4.0489,-4.0489,-4.0489,-4.0489,-4.0489,-4.0489,-4.0489,-4.0489,-4.0489,-4.0489,-4.0489,-4.0489,-4.0489,-4.0489,-4.0489,-4.0489,-4.0489,-4.0489,-4.0489,-4.0489,-4.0489,-4.0489,-4.0489,-4.0489,-4.0489,-4.0489,-4.0489,-4.0489,-4.0489,-4.0489,-4.0489,-4.0489,-4.0489,-4.0489,-4.0489,-4.0527,-4.062,-4.0546,-4.0489,-4.0508,-4.0546,-4.0566,-4.0546,-4.0566,-4.0546,-4.0508,-4.0489,-4.0489,-4.0489,-4.0489,-4.0489,-4.0489,-4.0489,-4.0489,-4.0489,-4.0489,-4.0489,-4.0489,-4.0489,-4.0489,-4.0489,-4.0489,-4.0579,-4.0694,-4.0854,-4.1021,-4.1133,-4.1172,-4.1191,-4.1191,-4.1191,-4.1191,-4.1191,-4.1191,-4.1191,-4.1191,-4.1191,-4.1191,-4.1191,-4.1191,-4.1191,-4.1191,-4.1191,-4.1191,-4.1191,-4.1172,-4.1113,-4.0999,-4.0854,-4.0698,-4.0527,-4.0489,-4.0369,-3.9869,-3.9469,-3.8969,-3.8219,-3.7161,-3.6276,-3.8566,-3.8566,-3.8597,-3.8615,-3.8732,-3.8906,-3.9039,-3.9176,-3.9986,-4.0422,-4.0441,-4.0489,-4.0489,-4.0489,-4.0489,-4.0489,-4.0489,-4.0489,-4.0489,-4.0489,-4.0489,-4.0489,-4.0489,-4.0489,-4.0489,-4.0489,-4.0489,-4.0489,-4.0489,-4.0489,-4.0489,-4.0489,-4.0489,-4.0489,-4.0489,-4.0489,-4.0489,-4.0489,-4.0489,-4.0489,-4.0489,-4.0489,-4.0489,-4.0489,-4.0489,-4.0489,-4.0489,-4.0489,-4.0489,-4.0489,-4.0489,-4.0489,-4.0508,-4.0508,-4.0489,-4.0489,-4.0508,-4.0508,-4.0508,-4.0508,-4.0508,-4.0489,-4.0489,-4.0489,-4.0489,-4.0489,-4.0489,-4.0489,-4.0489,-4.0489,-4.0489,-4.0489,-4.0489,-4.0489,-4.0489,-4.0489,-4.0489,-4.0534,-4.0615,-4.0723,-4.0874,-4.1035,-4.1152,-4.1191,-4.1191,-4.1191,-4.1191,-4.1191,-4.1191,-4.1191,-4.1191,-4.1191,-4.1191,-4.1191,-4.1191,-4.1191,-4.1191,-4.1191,-4.1191,-4.1191,-4.1191,-4.1152,-4.1113,-4.0974,-4.0808,-4.0684,-4.0566,-4.0523,-4.0466,-4.0312,-3.9912,-3.9508,-3.8719,-3.7796,-3.693,-3.7778,-3.7809,-3.7778,-3.812,-3.8621,-3.8322,-3.8544,-3.9128,-3.959,-3.9945,-4.0195,-4.0389,-4.0489,-4.0489,-4.0489,-4.0489,-4.0489,-4.0489,-4.0489,-4.0489,-4.0489,-4.0489,-4.0489,-4.0489,-4.0489,-4.0489,-4.0489,-4.0489,-4.0489,-4.0489,-4.0489,-4.0489,-4.0489,-4.0489,-4.0489,-4.0489,-4.0489,-4.0489,-4.0489,-4.0489,-4.0489,-4.0489,-4.0489,-4.0489,-4.0489,-4.0489,-4.0489,-4.0489,-4.0489,-4.0489,-4.0489,-4.0489,-4.0489,-4.0489,-4.0489,-4.0489,-4.0489,-4.0489,-4.0489,-4.0489,-4.0489,-4.0489,-4.0489,-4.0489,-4.0489,-4.0489,-4.0489,-4.0489,-4.0489,-4.0489,-4.0489,-4.0489,-4.0489,-4.0489,-4.0489,-4.0489,-4.0489,-4.0574,-4.0636,-4.0752,-4.0883,-4.1016,-4.1152,-4.1191,-4.1191,-4.1191,-4.1191,-4.1191,-4.1191,-4.1191,-4.1191,-4.1191,-4.1191,-4.1191,-4.1191,-4.1191,-4.1191,-4.1191,-4.1191,-4.1191,-4.1191,-4.1172,-4.1125,-4.0935,-4.0784,-4.0679,-4.0585,-4.0508,-4.0469,-4.0431,-4.0335,-3.9912,-3.9527,-3.8719,-3.7757,-3.6964,-3.6978,-3.7,-3.7202,-3.7526,-3.7304,-3.7634,-3.835,-3.8704,-3.9236,-3.9842,-4.0177,-4.0358,-4.0473,-4.0489,-4.0489,-4.0489,-4.0489,-4.0489,-4.0489,-4.0489,-4.0489,-4.0489,-4.0489,-4.0489,-4.0489,-4.0489,-4.0489,-4.0489,-4.0489,-4.0489,-4.0489,-4.0489,-4.0489,-4.0489,-4.0489,-4.0489,-4.0489,-4.0489,-4.0489,-4.0489,-4.0489,-4.0489,-4.0489,-4.0489,-4.0489,-4.0489,-4.0489,-4.0489,-4.0489,-4.0489,-4.0489,-4.0489,-4.0489,-4.0489,-4.0489,-4.0489,-4.0489,-4.0489,-4.0489,-4.0489,-4.0489,-4.0489,-4.0489,-4.0489,-4.0489,-4.0489,-4.0489,-4.0489,-4.0489,-4.0489,-4.0489,-4.0489,-4.0489,-4.0489,-4.0489,-4.0527,-4.0592,-4.0612,-4.0617,-4.0801,-4.1035,-4.1152,-4.1191,-4.1191,-4.1191,-4.1191,-4.1191,-4.1191,-4.1191,-4.1191,-4.1191,-4.1191,-4.1191,-4.1191,-4.1191,-4.1191,-4.1191,-4.1191,-4.1191,-4.1191,-4.1191,-4.1146,-4.0915,-4.0746,-4.0689,-4.062,-4.0527,-4.0489,-4.0469,-4.0431,-4.0335,-3.9931,-3.9488,-3.8527,-3.6205,-3.6266,-3.6174,-3.6229,-3.6248,-3.6156,-3.6604,-3.7301,-3.7599,-3.8384,-3.9301,-3.9513,-3.9929,-4.0389,-4.0489,-4.0489,-4.0489,-4.0489,-4.0489,-4.0489,-4.0489,-4.0489,-4.0489,-4.0489,-4.0489,-4.0489,-4.0489,-4.0489,-4.0489,-4.0489,-4.0489,-4.0489,-4.0489,-4.0489,-4.0489,-4.0489,-4.0489,-4.0489,-4.0489,-4.0489,-4.0489,-4.0489,-4.0489,-4.0489,-4.0489,-4.0489,-4.0489,-4.0489,-4.0489,-4.0489,-4.0489,-4.0489,-4.0489,-4.0489,-4.0489,-4.0489,-4.0489,-4.0489,-4.0489,-4.0489,-4.0489,-4.0489,-4.0489,-4.0489,-4.0489,-4.0489,-4.0489,-4.0489,-4.0489,-4.0489,-4.0489,-4.0489,-4.0489,-4.0489,-4.0489,-4.0489,-4.0546,-4.06,-4.0577,-4.0515,-4.0742,-4.0996,-4.1133,-4.1191,-4.1191,-4.1191,-4.1191,-4.1191,-4.1191,-4.1191,-4.1191,-4.1191,-4.1191,-4.1191,-4.1191,-4.1191,-4.1191,-4.1191,-4.1191,-4.1191,-4.1191,-4.1152,-4.1056,-4.0838,-4.069,-4.0656,-4.06,-4.0508,-4.0489,-4.0489,-4.0469,-4.0431,-4.0315,-3.9815,-3.9084,-3.5661,-3.6229,-3.5569,-3.5634,-3.6103,-3.556,-3.5734,-3.6452,-3.6591,-3.737,-3.8244,-3.8067,-3.8553,-4.0469,-4.0489,-4.0431,-4.0315,-4.0412,-4.0489,-4.0489,-4.0489,-4.0489,-4.0489,-4.0489,-4.0489,-4.0489,-4.0489,-4.0489,-4.0489,-4.0489,-4.0489,-4.0489,-4.0489,-4.0489,-4.0489,-4.0489,-4.0489,-4.0489,-4.0489,-4.0489,-4.0489,-4.0489,-4.0489,-4.0489,-4.0489,-4.0489,-4.0489,-4.0489,-4.0489,-4.0489,-4.0489,-4.0489,-4.0489,-4.0489,-4.0489,-4.0489,-4.0489,-4.0489,-4.0489,-4.0489,-4.0489,-4.0489,-4.0489,-4.0489,-4.0489,-4.0489,-4.0489,-4.0489,-4.0489,-4.0489,-4.0489,-4.0489,-4.0489,-4.0489,-4.0489,-4.0489,-4.0527,-4.0527,-4.0523,-4.0568,-4.0684,-4.0937,-4.1172,-4.1191,-4.1191,-4.1191,-4.1191,-4.1191,-4.1191,-4.1191,-4.1191,-4.1191,-4.1191,-4.1191,-4.1191,-4.1191,-4.1191,-4.1191,-4.1191,-4.1191,-4.1172,-4.1074,-4.0939,-4.0779,-4.0711,-4.065,-4.0566,-4.0489,-4.0489,-4.0489,-4.0489,-4.0469,-4.0431,-4.0142,-3.9392]}]]